<?xml version="1.0" encoding="UTF-8" standalone="no" ?>
<gpx xmlns="http://www.topografix.com/GPX/1/1" xmlns:xsi="http://www.w3.org/2001/XMLSchema-instance" xsi:schemaLocation="http://www.topografix.com/GPX/1/1 http://www.topografix.com/GPX/1/1/gpx.xsd" version="1.1" creator="VisuGPX - https://www.visugpx.com">
  <metadata>
    <name>drap blausac par st martin de peille</name>
    <desc><![CDATA[srtie vtt 30km avec grosse cote au départ]]></desc>
  </metadata>
  <trk>
    <name><![CDATA[2013-11-02T10:14:00Z]]></name>
    <trkseg>
      <trkpt lat="43.75584" lon="7.32303">
        <ele>122</ele>
        <time>2013-11-02T10:17:02Z</time>
      </trkpt>
      <trkpt lat="43.7524" lon="7.32312">
        <ele>100</ele>
        <time>2013-11-02T10:18:54Z</time>
      </trkpt>
      <trkpt lat="43.7523" lon="7.32309">
        <ele>100</ele>
        <time>2013-11-02T10:18:59Z</time>
      </trkpt>
      <trkpt lat="43.75239" lon="7.32328">
        <ele>100</ele>
        <time>2013-11-02T10:19:04Z</time>
      </trkpt>
      <trkpt lat="43.75239" lon="7.32347">
        <ele>105</ele>
        <time>2013-11-02T10:19:09Z</time>
      </trkpt>
      <trkpt lat="43.75238" lon="7.32367">
        <ele>107</ele>
        <time>2013-11-02T10:19:14Z</time>
      </trkpt>
      <trkpt lat="43.75236" lon="7.32385">
        <ele>108</ele>
        <time>2013-11-02T10:19:19Z</time>
      </trkpt>
      <trkpt lat="43.75238" lon="7.32403">
        <ele>108</ele>
        <time>2013-11-02T10:19:24Z</time>
      </trkpt>
      <trkpt lat="43.75243" lon="7.32416">
        <ele>107</ele>
        <time>2013-11-02T10:19:29Z</time>
      </trkpt>
      <trkpt lat="43.75245" lon="7.32429">
        <ele>111</ele>
        <time>2013-11-02T10:19:34Z</time>
      </trkpt>
      <trkpt lat="43.75247" lon="7.32444">
        <ele>113</ele>
        <time>2013-11-02T10:19:39Z</time>
      </trkpt>
      <trkpt lat="43.75245" lon="7.32455">
        <ele>115</ele>
        <time>2013-11-02T10:19:44Z</time>
      </trkpt>
      <trkpt lat="43.7524" lon="7.32466">
        <ele>116</ele>
        <time>2013-11-02T10:19:49Z</time>
      </trkpt>
      <trkpt lat="43.75244" lon="7.32477">
        <ele>116</ele>
        <time>2013-11-02T10:19:54Z</time>
      </trkpt>
      <trkpt lat="43.75254" lon="7.32486">
        <ele>116</ele>
        <time>2013-11-02T10:19:59Z</time>
      </trkpt>
      <trkpt lat="43.75258" lon="7.32499">
        <ele>116</ele>
        <time>2013-11-02T10:20:04Z</time>
      </trkpt>
      <trkpt lat="43.75257" lon="7.32489">
        <ele>116</ele>
        <time>2013-11-02T10:20:14Z</time>
      </trkpt>
      <trkpt lat="43.75247" lon="7.32482">
        <ele>116</ele>
        <time>2013-11-02T10:20:28Z</time>
      </trkpt>
      <trkpt lat="43.75247" lon="7.32473">
        <ele>116</ele>
        <time>2013-11-02T10:20:33Z</time>
      </trkpt>
      <trkpt lat="43.75243" lon="7.32459">
        <ele>115</ele>
        <time>2013-11-02T10:20:38Z</time>
      </trkpt>
      <trkpt lat="43.7524" lon="7.32446">
        <ele>114</ele>
        <time>2013-11-02T10:20:43Z</time>
      </trkpt>
      <trkpt lat="43.75233" lon="7.32436">
        <ele>114</ele>
        <time>2013-11-02T10:20:48Z</time>
      </trkpt>
      <trkpt lat="43.75222" lon="7.32431">
        <ele>115</ele>
        <time>2013-11-02T10:20:53Z</time>
      </trkpt>
      <trkpt lat="43.75214" lon="7.32427">
        <ele>116</ele>
        <time>2013-11-02T10:20:58Z</time>
      </trkpt>
      <trkpt lat="43.75207" lon="7.32422">
        <ele>117</ele>
        <time>2013-11-02T10:21:03Z</time>
      </trkpt>
      <trkpt lat="43.75199" lon="7.32413">
        <ele>112</ele>
        <time>2013-11-02T10:21:08Z</time>
      </trkpt>
      <trkpt lat="43.75187" lon="7.3241">
        <ele>114</ele>
        <time>2013-11-02T10:21:13Z</time>
      </trkpt>
      <trkpt lat="43.75182" lon="7.32419">
        <ele>119</ele>
        <time>2013-11-02T10:21:18Z</time>
      </trkpt>
      <trkpt lat="43.75182" lon="7.3243">
        <ele>119</ele>
        <time>2013-11-02T10:21:23Z</time>
      </trkpt>
      <trkpt lat="43.7519" lon="7.32439">
        <ele>119</ele>
        <time>2013-11-02T10:21:28Z</time>
      </trkpt>
      <trkpt lat="43.75196" lon="7.32449">
        <ele>119</ele>
        <time>2013-11-02T10:21:33Z</time>
      </trkpt>
      <trkpt lat="43.75199" lon="7.32461">
        <ele>119</ele>
        <time>2013-11-02T10:21:38Z</time>
      </trkpt>
      <trkpt lat="43.75203" lon="7.32476">
        <ele>120</ele>
        <time>2013-11-02T10:21:43Z</time>
      </trkpt>
      <trkpt lat="43.75199" lon="7.3249">
        <ele>121</ele>
        <time>2013-11-02T10:21:48Z</time>
      </trkpt>
      <trkpt lat="43.75194" lon="7.32504">
        <ele>128</ele>
        <time>2013-11-02T10:21:53Z</time>
      </trkpt>
      <trkpt lat="43.75186" lon="7.32515">
        <ele>129</ele>
        <time>2013-11-02T10:21:58Z</time>
      </trkpt>
      <trkpt lat="43.75176" lon="7.32507">
        <ele>130</ele>
        <time>2013-11-02T10:22:03Z</time>
      </trkpt>
      <trkpt lat="43.75182" lon="7.32494">
        <ele>125</ele>
        <time>2013-11-02T10:22:08Z</time>
      </trkpt>
      <trkpt lat="43.75184" lon="7.32481">
        <ele>122</ele>
        <time>2013-11-02T10:22:13Z</time>
      </trkpt>
      <trkpt lat="43.75177" lon="7.32468">
        <ele>122</ele>
        <time>2013-11-02T10:22:18Z</time>
      </trkpt>
      <trkpt lat="43.7517" lon="7.32462">
        <ele>121</ele>
        <time>2013-11-02T10:22:23Z</time>
      </trkpt>
      <trkpt lat="43.7516" lon="7.32456">
        <ele>135</ele>
        <time>2013-11-02T10:22:28Z</time>
      </trkpt>
      <trkpt lat="43.75153" lon="7.32449">
        <ele>135</ele>
        <time>2013-11-02T10:22:33Z</time>
      </trkpt>
      <trkpt lat="43.75146" lon="7.3244">
        <ele>135</ele>
        <time>2013-11-02T10:22:38Z</time>
      </trkpt>
      <trkpt lat="43.75141" lon="7.32428">
        <ele>135</ele>
        <time>2013-11-02T10:22:43Z</time>
      </trkpt>
      <trkpt lat="43.75136" lon="7.32417">
        <ele>136</ele>
        <time>2013-11-02T10:22:48Z</time>
      </trkpt>
      <trkpt lat="43.75132" lon="7.32405">
        <ele>132</ele>
        <time>2013-11-02T10:22:53Z</time>
      </trkpt>
      <trkpt lat="43.75128" lon="7.32392">
        <ele>133</ele>
        <time>2013-11-02T10:22:58Z</time>
      </trkpt>
      <trkpt lat="43.75126" lon="7.32382">
        <ele>133</ele>
        <time>2013-11-02T10:23:03Z</time>
      </trkpt>
      <trkpt lat="43.75122" lon="7.32372">
        <ele>133</ele>
        <time>2013-11-02T10:23:08Z</time>
      </trkpt>
      <trkpt lat="43.75115" lon="7.3236">
        <ele>134</ele>
        <time>2013-11-02T10:23:13Z</time>
      </trkpt>
      <trkpt lat="43.75112" lon="7.32347">
        <ele>135</ele>
        <time>2013-11-02T10:23:18Z</time>
      </trkpt>
      <trkpt lat="43.75109" lon="7.32335">
        <ele>136</ele>
        <time>2013-11-02T10:23:23Z</time>
      </trkpt>
      <trkpt lat="43.75105" lon="7.32323">
        <ele>130</ele>
        <time>2013-11-02T10:23:28Z</time>
      </trkpt>
      <trkpt lat="43.75102" lon="7.32314">
        <ele>129</ele>
        <time>2013-11-02T10:23:33Z</time>
      </trkpt>
      <trkpt lat="43.75102" lon="7.3232">
        <ele>131</ele>
        <time>2013-11-02T10:23:45Z</time>
      </trkpt>
      <trkpt lat="43.75107" lon="7.32334">
        <ele>137</ele>
        <time>2013-11-02T10:23:50Z</time>
      </trkpt>
      <trkpt lat="43.7511" lon="7.32341">
        <ele>136</ele>
        <time>2013-11-02T10:23:55Z</time>
      </trkpt>
      <trkpt lat="43.75109" lon="7.32334">
        <ele>136</ele>
        <time>2013-11-02T10:24:00Z</time>
      </trkpt>
      <trkpt lat="43.75105" lon="7.32321">
        <ele>130</ele>
        <time>2013-11-02T10:24:05Z</time>
      </trkpt>
      <trkpt lat="43.751" lon="7.32311">
        <ele>129</ele>
        <time>2013-11-02T10:24:10Z</time>
      </trkpt>
      <trkpt lat="43.75092" lon="7.32302">
        <ele>128</ele>
        <time>2013-11-02T10:24:15Z</time>
      </trkpt>
      <trkpt lat="43.75083" lon="7.32297">
        <ele>135</ele>
        <time>2013-11-02T10:24:20Z</time>
      </trkpt>
      <trkpt lat="43.75073" lon="7.32297">
        <ele>135</ele>
        <time>2013-11-02T10:24:25Z</time>
      </trkpt>
      <trkpt lat="43.75063" lon="7.32298">
        <ele>134</ele>
        <time>2013-11-02T10:24:30Z</time>
      </trkpt>
      <trkpt lat="43.75057" lon="7.32302">
        <ele>135</ele>
        <time>2013-11-02T10:24:35Z</time>
      </trkpt>
      <trkpt lat="43.75058" lon="7.32312">
        <ele>136</ele>
        <time>2013-11-02T10:24:40Z</time>
      </trkpt>
      <trkpt lat="43.7506" lon="7.32323">
        <ele>137</ele>
        <time>2013-11-02T10:24:45Z</time>
      </trkpt>
      <trkpt lat="43.75059" lon="7.32334">
        <ele>145</ele>
        <time>2013-11-02T10:24:50Z</time>
      </trkpt>
      <trkpt lat="43.75059" lon="7.32345">
        <ele>145</ele>
        <time>2013-11-02T10:24:55Z</time>
      </trkpt>
      <trkpt lat="43.7506" lon="7.32359">
        <ele>145</ele>
        <time>2013-11-02T10:25:00Z</time>
      </trkpt>
      <trkpt lat="43.75057" lon="7.32371">
        <ele>145</ele>
        <time>2013-11-02T10:25:05Z</time>
      </trkpt>
      <trkpt lat="43.75055" lon="7.32382">
        <ele>146</ele>
        <time>2013-11-02T10:25:10Z</time>
      </trkpt>
      <trkpt lat="43.75054" lon="7.32395">
        <ele>146</ele>
        <time>2013-11-02T10:25:15Z</time>
      </trkpt>
      <trkpt lat="43.75055" lon="7.3241">
        <ele>147</ele>
        <time>2013-11-02T10:25:20Z</time>
      </trkpt>
      <trkpt lat="43.75056" lon="7.32424">
        <ele>151</ele>
        <time>2013-11-02T10:25:25Z</time>
      </trkpt>
      <trkpt lat="43.75056" lon="7.32437">
        <ele>151</ele>
        <time>2013-11-02T10:25:30Z</time>
      </trkpt>
      <trkpt lat="43.75056" lon="7.3245">
        <ele>151</ele>
        <time>2013-11-02T10:25:35Z</time>
      </trkpt>
      <trkpt lat="43.75058" lon="7.32464">
        <ele>152</ele>
        <time>2013-11-02T10:25:40Z</time>
      </trkpt>
      <trkpt lat="43.75059" lon="7.32478">
        <ele>153</ele>
        <time>2013-11-02T10:25:45Z</time>
      </trkpt>
      <trkpt lat="43.7506" lon="7.32492">
        <ele>153</ele>
        <time>2013-11-02T10:25:50Z</time>
      </trkpt>
      <trkpt lat="43.7506" lon="7.32506">
        <ele>157</ele>
        <time>2013-11-02T10:25:55Z</time>
      </trkpt>
      <trkpt lat="43.7506" lon="7.32519">
        <ele>157</ele>
        <time>2013-11-02T10:26:00Z</time>
      </trkpt>
      <trkpt lat="43.75061" lon="7.32532">
        <ele>158</ele>
        <time>2013-11-02T10:26:05Z</time>
      </trkpt>
      <trkpt lat="43.7506" lon="7.32545">
        <ele>159</ele>
        <time>2013-11-02T10:26:10Z</time>
      </trkpt>
      <trkpt lat="43.75062" lon="7.32559">
        <ele>160</ele>
        <time>2013-11-02T10:26:15Z</time>
      </trkpt>
      <trkpt lat="43.75063" lon="7.32572">
        <ele>162</ele>
        <time>2013-11-02T10:26:20Z</time>
      </trkpt>
      <trkpt lat="43.75063" lon="7.32581">
        <ele>162</ele>
        <time>2013-11-02T10:26:25Z</time>
      </trkpt>
      <trkpt lat="43.75066" lon="7.32588">
        <ele>166</ele>
        <time>2013-11-02T10:26:30Z</time>
      </trkpt>
      <trkpt lat="43.75066" lon="7.32597">
        <ele>166</ele>
        <time>2013-11-02T10:26:35Z</time>
      </trkpt>
      <trkpt lat="43.75068" lon="7.32605">
        <ele>166</ele>
        <time>2013-11-02T10:26:40Z</time>
      </trkpt>
      <trkpt lat="43.75071" lon="7.32613">
        <ele>166</ele>
        <time>2013-11-02T10:26:45Z</time>
      </trkpt>
      <trkpt lat="43.75071" lon="7.32626">
        <ele>167</ele>
        <time>2013-11-02T10:26:50Z</time>
      </trkpt>
      <trkpt lat="43.75073" lon="7.3264">
        <ele>168</ele>
        <time>2013-11-02T10:26:55Z</time>
      </trkpt>
      <trkpt lat="43.75074" lon="7.32654">
        <ele>171</ele>
        <time>2013-11-02T10:27:00Z</time>
      </trkpt>
      <trkpt lat="43.75077" lon="7.32666">
        <ele>175</ele>
        <time>2013-11-02T10:27:05Z</time>
      </trkpt>
      <trkpt lat="43.7508" lon="7.32678">
        <ele>175</ele>
        <time>2013-11-02T10:27:10Z</time>
      </trkpt>
      <trkpt lat="43.75083" lon="7.32691">
        <ele>174</ele>
        <time>2013-11-02T10:27:15Z</time>
      </trkpt>
      <trkpt lat="43.75088" lon="7.32703">
        <ele>179</ele>
        <time>2013-11-02T10:27:20Z</time>
      </trkpt>
      <trkpt lat="43.75092" lon="7.32716">
        <ele>180</ele>
        <time>2013-11-02T10:27:25Z</time>
      </trkpt>
      <trkpt lat="43.75093" lon="7.3273">
        <ele>182</ele>
        <time>2013-11-02T10:27:30Z</time>
      </trkpt>
      <trkpt lat="43.75092" lon="7.32742">
        <ele>183</ele>
        <time>2013-11-02T10:27:35Z</time>
      </trkpt>
      <trkpt lat="43.75093" lon="7.32757">
        <ele>187</ele>
        <time>2013-11-02T10:27:40Z</time>
      </trkpt>
      <trkpt lat="43.75096" lon="7.32766">
        <ele>187</ele>
        <time>2013-11-02T10:27:45Z</time>
      </trkpt>
      <trkpt lat="43.75099" lon="7.32774">
        <ele>187</ele>
        <time>2013-11-02T10:27:50Z</time>
      </trkpt>
      <trkpt lat="43.75102" lon="7.32782">
        <ele>187</ele>
        <time>2013-11-02T10:27:55Z</time>
      </trkpt>
      <trkpt lat="43.75104" lon="7.3279">
        <ele>188</ele>
        <time>2013-11-02T10:28:00Z</time>
      </trkpt>
      <trkpt lat="43.75108" lon="7.32798">
        <ele>188</ele>
        <time>2013-11-02T10:28:05Z</time>
      </trkpt>
      <trkpt lat="43.75111" lon="7.32804">
        <ele>188</ele>
        <time>2013-11-02T10:28:10Z</time>
      </trkpt>
      <trkpt lat="43.75113" lon="7.3281">
        <ele>188</ele>
        <time>2013-11-02T10:28:15Z</time>
      </trkpt>
      <trkpt lat="43.75107" lon="7.32794">
        <ele>188</ele>
        <time>2013-11-02T10:28:26Z</time>
      </trkpt>
      <trkpt lat="43.75101" lon="7.32779">
        <ele>187</ele>
        <time>2013-11-02T10:28:31Z</time>
      </trkpt>
      <trkpt lat="43.75093" lon="7.3276">
        <ele>187</ele>
        <time>2013-11-02T10:28:36Z</time>
      </trkpt>
      <trkpt lat="43.7509" lon="7.32741">
        <ele>183</ele>
        <time>2013-11-02T10:28:41Z</time>
      </trkpt>
      <trkpt lat="43.75091" lon="7.32731">
        <ele>182</ele>
        <time>2013-11-02T10:28:46Z</time>
      </trkpt>
      <trkpt lat="43.75085" lon="7.32743">
        <ele>184</ele>
        <time>2013-11-02T10:28:56Z</time>
      </trkpt>
      <trkpt lat="43.75085" lon="7.32752">
        <ele>186</ele>
        <time>2013-11-02T10:29:01Z</time>
      </trkpt>
      <trkpt lat="43.75088" lon="7.32758">
        <ele>186</ele>
        <time>2013-11-02T10:29:06Z</time>
      </trkpt>
      <trkpt lat="43.75089" lon="7.32765">
        <ele>187</ele>
        <time>2013-11-02T10:29:11Z</time>
      </trkpt>
      <trkpt lat="43.75093" lon="7.32772">
        <ele>187</ele>
        <time>2013-11-02T10:29:16Z</time>
      </trkpt>
      <trkpt lat="43.75095" lon="7.32778">
        <ele>187</ele>
        <time>2013-11-02T10:29:21Z</time>
      </trkpt>
      <trkpt lat="43.75097" lon="7.32785">
        <ele>187</ele>
        <time>2013-11-02T10:29:26Z</time>
      </trkpt>
      <trkpt lat="43.751" lon="7.32793">
        <ele>188</ele>
        <time>2013-11-02T10:29:31Z</time>
      </trkpt>
      <trkpt lat="43.75103" lon="7.328">
        <ele>188</ele>
        <time>2013-11-02T10:29:36Z</time>
      </trkpt>
      <trkpt lat="43.75108" lon="7.32807">
        <ele>188</ele>
        <time>2013-11-02T10:29:41Z</time>
      </trkpt>
      <trkpt lat="43.75111" lon="7.32814">
        <ele>188</ele>
        <time>2013-11-02T10:29:46Z</time>
      </trkpt>
      <trkpt lat="43.75113" lon="7.32823">
        <ele>188</ele>
        <time>2013-11-02T10:29:51Z</time>
      </trkpt>
      <trkpt lat="43.75117" lon="7.32831">
        <ele>188</ele>
        <time>2013-11-02T10:29:56Z</time>
      </trkpt>
      <trkpt lat="43.75121" lon="7.3284">
        <ele>191</ele>
        <time>2013-11-02T10:30:01Z</time>
      </trkpt>
      <trkpt lat="43.75125" lon="7.32849">
        <ele>191</ele>
        <time>2013-11-02T10:30:06Z</time>
      </trkpt>
      <trkpt lat="43.7513" lon="7.32859">
        <ele>191</ele>
        <time>2013-11-02T10:30:11Z</time>
      </trkpt>
      <trkpt lat="43.75133" lon="7.32867">
        <ele>192</ele>
        <time>2013-11-02T10:30:16Z</time>
      </trkpt>
      <trkpt lat="43.75138" lon="7.32878">
        <ele>192</ele>
        <time>2013-11-02T10:30:26Z</time>
      </trkpt>
      <trkpt lat="43.75142" lon="7.32886">
        <ele>193</ele>
        <time>2013-11-02T10:30:31Z</time>
      </trkpt>
      <trkpt lat="43.75143" lon="7.32896">
        <ele>194</ele>
        <time>2013-11-02T10:30:36Z</time>
      </trkpt>
      <trkpt lat="43.75147" lon="7.32905">
        <ele>195</ele>
        <time>2013-11-02T10:30:41Z</time>
      </trkpt>
      <trkpt lat="43.75149" lon="7.32915">
        <ele>195</ele>
        <time>2013-11-02T10:30:46Z</time>
      </trkpt>
      <trkpt lat="43.7515" lon="7.32927">
        <ele>197</ele>
        <time>2013-11-02T10:30:51Z</time>
      </trkpt>
      <trkpt lat="43.75149" lon="7.3294">
        <ele>196</ele>
        <time>2013-11-02T10:30:56Z</time>
      </trkpt>
      <trkpt lat="43.75147" lon="7.32948">
        <ele>196</ele>
        <time>2013-11-02T10:31:01Z</time>
      </trkpt>
      <trkpt lat="43.75146" lon="7.32958">
        <ele>196</ele>
        <time>2013-11-02T10:31:06Z</time>
      </trkpt>
      <trkpt lat="43.75145" lon="7.3297">
        <ele>196</ele>
        <time>2013-11-02T10:31:11Z</time>
      </trkpt>
      <trkpt lat="43.75144" lon="7.32982">
        <ele>197</ele>
        <time>2013-11-02T10:31:16Z</time>
      </trkpt>
      <trkpt lat="43.75143" lon="7.32993">
        <ele>197</ele>
        <time>2013-11-02T10:31:21Z</time>
      </trkpt>
      <trkpt lat="43.75142" lon="7.33006">
        <ele>200</ele>
        <time>2013-11-02T10:31:26Z</time>
      </trkpt>
      <trkpt lat="43.75143" lon="7.33019">
        <ele>200</ele>
        <time>2013-11-02T10:31:31Z</time>
      </trkpt>
      <trkpt lat="43.75141" lon="7.3303">
        <ele>200</ele>
        <time>2013-11-02T10:31:36Z</time>
      </trkpt>
      <trkpt lat="43.7514" lon="7.33041">
        <ele>201</ele>
        <time>2013-11-02T10:31:41Z</time>
      </trkpt>
      <trkpt lat="43.75139" lon="7.33049">
        <ele>201</ele>
        <time>2013-11-02T10:31:46Z</time>
      </trkpt>
      <trkpt lat="43.75138" lon="7.33058">
        <ele>201</ele>
        <time>2013-11-02T10:31:51Z</time>
      </trkpt>
      <trkpt lat="43.75136" lon="7.33068">
        <ele>202</ele>
        <time>2013-11-02T10:31:56Z</time>
      </trkpt>
      <trkpt lat="43.75137" lon="7.33079">
        <ele>202</ele>
        <time>2013-11-02T10:32:01Z</time>
      </trkpt>
      <trkpt lat="43.75135" lon="7.33091">
        <ele>209</ele>
        <time>2013-11-02T10:32:06Z</time>
      </trkpt>
      <trkpt lat="43.75134" lon="7.33103">
        <ele>209</ele>
        <time>2013-11-02T10:32:11Z</time>
      </trkpt>
      <trkpt lat="43.75134" lon="7.33115">
        <ele>210</ele>
        <time>2013-11-02T10:32:16Z</time>
      </trkpt>
      <trkpt lat="43.75135" lon="7.33126">
        <ele>211</ele>
        <time>2013-11-02T10:32:21Z</time>
      </trkpt>
      <trkpt lat="43.75134" lon="7.33139">
        <ele>213</ele>
        <time>2013-11-02T10:32:26Z</time>
      </trkpt>
      <trkpt lat="43.75136" lon="7.33152">
        <ele>214</ele>
        <time>2013-11-02T10:32:31Z</time>
      </trkpt>
      <trkpt lat="43.75138" lon="7.33165">
        <ele>215</ele>
        <time>2013-11-02T10:32:36Z</time>
      </trkpt>
      <trkpt lat="43.7514" lon="7.33177">
        <ele>223</ele>
        <time>2013-11-02T10:32:41Z</time>
      </trkpt>
      <trkpt lat="43.75142" lon="7.3319">
        <ele>224</ele>
        <time>2013-11-02T10:32:46Z</time>
      </trkpt>
      <trkpt lat="43.75143" lon="7.33202">
        <ele>224</ele>
        <time>2013-11-02T10:32:51Z</time>
      </trkpt>
      <trkpt lat="43.75144" lon="7.33215">
        <ele>225</ele>
        <time>2013-11-02T10:32:56Z</time>
      </trkpt>
      <trkpt lat="43.75144" lon="7.3323">
        <ele>227</ele>
        <time>2013-11-02T10:33:01Z</time>
      </trkpt>
      <trkpt lat="43.75146" lon="7.33241">
        <ele>228</ele>
        <time>2013-11-02T10:33:06Z</time>
      </trkpt>
      <trkpt lat="43.75147" lon="7.33255">
        <ele>234</ele>
        <time>2013-11-02T10:33:11Z</time>
      </trkpt>
      <trkpt lat="43.7515" lon="7.33269">
        <ele>235</ele>
        <time>2013-11-02T10:33:16Z</time>
      </trkpt>
      <trkpt lat="43.75154" lon="7.3328">
        <ele>235</ele>
        <time>2013-11-02T10:33:21Z</time>
      </trkpt>
      <trkpt lat="43.75159" lon="7.3329">
        <ele>235</ele>
        <time>2013-11-02T10:33:26Z</time>
      </trkpt>
      <trkpt lat="43.75167" lon="7.33299">
        <ele>236</ele>
        <time>2013-11-02T10:33:31Z</time>
      </trkpt>
      <trkpt lat="43.75173" lon="7.3331">
        <ele>239</ele>
        <time>2013-11-02T10:33:36Z</time>
      </trkpt>
      <trkpt lat="43.75178" lon="7.33322">
        <ele>239</ele>
        <time>2013-11-02T10:33:41Z</time>
      </trkpt>
      <trkpt lat="43.75182" lon="7.33334">
        <ele>243</ele>
        <time>2013-11-02T10:33:46Z</time>
      </trkpt>
      <trkpt lat="43.75186" lon="7.33347">
        <ele>243</ele>
        <time>2013-11-02T10:33:51Z</time>
      </trkpt>
      <trkpt lat="43.7519" lon="7.33358">
        <ele>244</ele>
        <time>2013-11-02T10:33:56Z</time>
      </trkpt>
      <trkpt lat="43.75191" lon="7.33365">
        <ele>244</ele>
        <time>2013-11-02T10:34:22Z</time>
      </trkpt>
      <trkpt lat="43.75196" lon="7.33375">
        <ele>245</ele>
        <time>2013-11-02T10:34:32Z</time>
      </trkpt>
      <trkpt lat="43.75199" lon="7.3338">
        <ele>245</ele>
        <time>2013-11-02T10:34:37Z</time>
      </trkpt>
      <trkpt lat="43.75204" lon="7.3339">
        <ele>246</ele>
        <time>2013-11-02T10:34:47Z</time>
      </trkpt>
      <trkpt lat="43.75207" lon="7.33397">
        <ele>246</ele>
        <time>2013-11-02T10:34:52Z</time>
      </trkpt>
      <trkpt lat="43.7521" lon="7.33407">
        <ele>246</ele>
        <time>2013-11-02T10:34:57Z</time>
      </trkpt>
      <trkpt lat="43.75211" lon="7.33417">
        <ele>247</ele>
        <time>2013-11-02T10:35:02Z</time>
      </trkpt>
      <trkpt lat="43.75213" lon="7.33426">
        <ele>254</ele>
        <time>2013-11-02T10:35:07Z</time>
      </trkpt>
      <trkpt lat="43.75214" lon="7.33439">
        <ele>255</ele>
        <time>2013-11-02T10:35:12Z</time>
      </trkpt>
      <trkpt lat="43.75214" lon="7.33452">
        <ele>256</ele>
        <time>2013-11-02T10:35:17Z</time>
      </trkpt>
      <trkpt lat="43.75211" lon="7.33463">
        <ele>257</ele>
        <time>2013-11-02T10:35:22Z</time>
      </trkpt>
      <trkpt lat="43.75213" lon="7.33474">
        <ele>258</ele>
        <time>2013-11-02T10:35:27Z</time>
      </trkpt>
      <trkpt lat="43.7522" lon="7.33483">
        <ele>259</ele>
        <time>2013-11-02T10:35:32Z</time>
      </trkpt>
      <trkpt lat="43.75225" lon="7.33477">
        <ele>258</ele>
        <time>2013-11-02T10:35:37Z</time>
      </trkpt>
      <trkpt lat="43.75229" lon="7.33467">
        <ele>257</ele>
        <time>2013-11-02T10:35:42Z</time>
      </trkpt>
      <trkpt lat="43.75233" lon="7.33454">
        <ele>256</ele>
        <time>2013-11-02T10:35:47Z</time>
      </trkpt>
      <trkpt lat="43.75236" lon="7.33443">
        <ele>255</ele>
        <time>2013-11-02T10:35:52Z</time>
      </trkpt>
      <trkpt lat="43.75238" lon="7.33431">
        <ele>253</ele>
        <time>2013-11-02T10:35:57Z</time>
      </trkpt>
      <trkpt lat="43.75242" lon="7.33436">
        <ele>254</ele>
        <time>2013-11-02T10:36:02Z</time>
      </trkpt>
      <trkpt lat="43.75242" lon="7.33425">
        <ele>252</ele>
        <time>2013-11-02T10:36:12Z</time>
      </trkpt>
      <trkpt lat="43.75244" lon="7.33434">
        <ele>253</ele>
        <time>2013-11-02T10:36:22Z</time>
      </trkpt>
      <trkpt lat="43.75247" lon="7.33448">
        <ele>255</ele>
        <time>2013-11-02T10:36:27Z</time>
      </trkpt>
      <trkpt lat="43.7525" lon="7.33462">
        <ele>257</ele>
        <time>2013-11-02T10:36:32Z</time>
      </trkpt>
      <trkpt lat="43.75251" lon="7.33473">
        <ele>247</ele>
        <time>2013-11-02T10:36:37Z</time>
      </trkpt>
      <trkpt lat="43.75253" lon="7.33485">
        <ele>251</ele>
        <time>2013-11-02T10:36:42Z</time>
      </trkpt>
      <trkpt lat="43.75255" lon="7.33496">
        <ele>256</ele>
        <time>2013-11-02T10:36:47Z</time>
      </trkpt>
      <trkpt lat="43.7526" lon="7.33504">
        <ele>259</ele>
        <time>2013-11-02T10:36:52Z</time>
      </trkpt>
      <trkpt lat="43.7526" lon="7.33511">
        <ele>258</ele>
        <time>2013-11-02T10:36:57Z</time>
      </trkpt>
      <trkpt lat="43.75257" lon="7.3352">
        <ele>258</ele>
        <time>2013-11-02T10:37:02Z</time>
      </trkpt>
      <trkpt lat="43.75255" lon="7.33527">
        <ele>258</ele>
        <time>2013-11-02T10:37:07Z</time>
      </trkpt>
      <trkpt lat="43.75252" lon="7.33538">
        <ele>259</ele>
        <time>2013-11-02T10:37:12Z</time>
      </trkpt>
      <trkpt lat="43.75248" lon="7.3355">
        <ele>272</ele>
        <time>2013-11-02T10:37:17Z</time>
      </trkpt>
      <trkpt lat="43.75243" lon="7.33557">
        <ele>273</ele>
        <time>2013-11-02T10:37:22Z</time>
      </trkpt>
      <trkpt lat="43.75244" lon="7.33567">
        <ele>275</ele>
        <time>2013-11-02T10:37:27Z</time>
      </trkpt>
      <trkpt lat="43.75241" lon="7.33574">
        <ele>275</ele>
        <time>2013-11-02T10:37:32Z</time>
      </trkpt>
      <trkpt lat="43.75238" lon="7.3358">
        <ele>276</ele>
        <time>2013-11-02T10:37:37Z</time>
      </trkpt>
      <trkpt lat="43.75234" lon="7.33585">
        <ele>282</ele>
        <time>2013-11-02T10:37:42Z</time>
      </trkpt>
      <trkpt lat="43.75229" lon="7.33586">
        <ele>282</ele>
        <time>2013-11-02T10:37:47Z</time>
      </trkpt>
      <trkpt lat="43.75225" lon="7.33582">
        <ele>275</ele>
        <time>2013-11-02T10:37:52Z</time>
      </trkpt>
      <trkpt lat="43.75218" lon="7.33575">
        <ele>274</ele>
        <time>2013-11-02T10:37:57Z</time>
      </trkpt>
      <trkpt lat="43.75212" lon="7.33569">
        <ele>274</ele>
        <time>2013-11-02T10:38:02Z</time>
      </trkpt>
      <trkpt lat="43.75202" lon="7.3356">
        <ele>274</ele>
        <time>2013-11-02T10:38:07Z</time>
      </trkpt>
      <trkpt lat="43.75194" lon="7.33553">
        <ele>273</ele>
        <time>2013-11-02T10:38:12Z</time>
      </trkpt>
      <trkpt lat="43.75186" lon="7.33548">
        <ele>273</ele>
        <time>2013-11-02T10:38:17Z</time>
      </trkpt>
      <trkpt lat="43.7518" lon="7.33545">
        <ele>273</ele>
        <time>2013-11-02T10:38:22Z</time>
      </trkpt>
      <trkpt lat="43.75172" lon="7.3354">
        <ele>273</ele>
        <time>2013-11-02T10:38:27Z</time>
      </trkpt>
      <trkpt lat="43.7516" lon="7.33538">
        <ele>270</ele>
        <time>2013-11-02T10:38:32Z</time>
      </trkpt>
      <trkpt lat="43.75152" lon="7.33543">
        <ele>270</ele>
        <time>2013-11-02T10:38:37Z</time>
      </trkpt>
      <trkpt lat="43.75152" lon="7.33554">
        <ele>271</ele>
        <time>2013-11-02T10:38:42Z</time>
      </trkpt>
      <trkpt lat="43.75155" lon="7.3356">
        <ele>272</ele>
        <time>2013-11-02T10:38:47Z</time>
      </trkpt>
      <trkpt lat="43.75161" lon="7.3357">
        <ele>275</ele>
        <time>2013-11-02T10:38:52Z</time>
      </trkpt>
      <trkpt lat="43.75169" lon="7.33581">
        <ele>279</ele>
        <time>2013-11-02T10:38:57Z</time>
      </trkpt>
      <trkpt lat="43.75176" lon="7.3359">
        <ele>282</ele>
        <time>2013-11-02T10:39:02Z</time>
      </trkpt>
      <trkpt lat="43.75181" lon="7.33597">
        <ele>283</ele>
        <time>2013-11-02T10:39:07Z</time>
      </trkpt>
      <trkpt lat="43.75183" lon="7.33604">
        <ele>284</ele>
        <time>2013-11-02T10:39:12Z</time>
      </trkpt>
      <trkpt lat="43.75188" lon="7.33615">
        <ele>285</ele>
        <time>2013-11-02T10:39:22Z</time>
      </trkpt>
      <trkpt lat="43.7519" lon="7.33621">
        <ele>285</ele>
        <time>2013-11-02T10:39:27Z</time>
      </trkpt>
      <trkpt lat="43.75193" lon="7.33631">
        <ele>286</ele>
        <time>2013-11-02T10:39:32Z</time>
      </trkpt>
      <trkpt lat="43.75199" lon="7.33643">
        <ele>287</ele>
        <time>2013-11-02T10:39:37Z</time>
      </trkpt>
      <trkpt lat="43.75203" lon="7.33653">
        <ele>288</ele>
        <time>2013-11-02T10:39:42Z</time>
      </trkpt>
      <trkpt lat="43.75209" lon="7.33662">
        <ele>288</ele>
        <time>2013-11-02T10:39:48Z</time>
      </trkpt>
      <trkpt lat="43.75214" lon="7.3367">
        <ele>296</ele>
        <time>2013-11-02T10:39:53Z</time>
      </trkpt>
      <trkpt lat="43.75219" lon="7.33676">
        <ele>297</ele>
        <time>2013-11-02T10:39:58Z</time>
      </trkpt>
      <trkpt lat="43.75224" lon="7.33681">
        <ele>297</ele>
        <time>2013-11-02T10:40:03Z</time>
      </trkpt>
      <trkpt lat="43.75232" lon="7.33684">
        <ele>297</ele>
        <time>2013-11-02T10:40:13Z</time>
      </trkpt>
      <trkpt lat="43.75238" lon="7.33685">
        <ele>297</ele>
        <time>2013-11-02T10:40:18Z</time>
      </trkpt>
      <trkpt lat="43.75246" lon="7.33685">
        <ele>296</ele>
        <time>2013-11-02T10:40:23Z</time>
      </trkpt>
      <trkpt lat="43.75253" lon="7.33683">
        <ele>289</ele>
        <time>2013-11-02T10:40:28Z</time>
      </trkpt>
      <trkpt lat="43.75261" lon="7.33677">
        <ele>289</ele>
        <time>2013-11-02T10:40:33Z</time>
      </trkpt>
      <trkpt lat="43.75267" lon="7.33675">
        <ele>288</ele>
        <time>2013-11-02T10:40:38Z</time>
      </trkpt>
      <trkpt lat="43.75275" lon="7.33679">
        <ele>286</ele>
        <time>2013-11-02T10:40:43Z</time>
      </trkpt>
      <trkpt lat="43.75281" lon="7.33688">
        <ele>285</ele>
        <time>2013-11-02T10:40:48Z</time>
      </trkpt>
      <trkpt lat="43.75279" lon="7.33702">
        <ele>286</ele>
        <time>2013-11-02T10:40:58Z</time>
      </trkpt>
      <trkpt lat="43.7528" lon="7.33711">
        <ele>286</ele>
        <time>2013-11-02T10:41:03Z</time>
      </trkpt>
      <trkpt lat="43.75281" lon="7.3372">
        <ele>287</ele>
        <time>2013-11-02T10:41:08Z</time>
      </trkpt>
      <trkpt lat="43.75282" lon="7.33726">
        <ele>287</ele>
        <time>2013-11-02T10:41:13Z</time>
      </trkpt>
      <trkpt lat="43.75279" lon="7.33735">
        <ele>289</ele>
        <time>2013-11-02T10:41:23Z</time>
      </trkpt>
      <trkpt lat="43.75277" lon="7.33748">
        <ele>290</ele>
        <time>2013-11-02T10:41:33Z</time>
      </trkpt>
      <trkpt lat="43.75277" lon="7.33755">
        <ele>296</ele>
        <time>2013-11-02T10:41:38Z</time>
      </trkpt>
      <trkpt lat="43.75276" lon="7.33762">
        <ele>296</ele>
        <time>2013-11-02T10:41:43Z</time>
      </trkpt>
      <trkpt lat="43.75274" lon="7.33769">
        <ele>296</ele>
        <time>2013-11-02T10:41:48Z</time>
      </trkpt>
      <trkpt lat="43.75274" lon="7.33778">
        <ele>296</ele>
        <time>2013-11-02T10:41:53Z</time>
      </trkpt>
      <trkpt lat="43.75275" lon="7.33788">
        <ele>296</ele>
        <time>2013-11-02T10:41:58Z</time>
      </trkpt>
      <trkpt lat="43.75276" lon="7.338">
        <ele>296</ele>
        <time>2013-11-02T10:42:03Z</time>
      </trkpt>
      <trkpt lat="43.75274" lon="7.33811">
        <ele>298</ele>
        <time>2013-11-02T10:42:08Z</time>
      </trkpt>
      <trkpt lat="43.75272" lon="7.33822">
        <ele>301</ele>
        <time>2013-11-02T10:42:13Z</time>
      </trkpt>
      <trkpt lat="43.75272" lon="7.33832">
        <ele>302</ele>
        <time>2013-11-02T10:42:18Z</time>
      </trkpt>
      <trkpt lat="43.7527" lon="7.33843">
        <ele>303</ele>
        <time>2013-11-02T10:42:23Z</time>
      </trkpt>
      <trkpt lat="43.75267" lon="7.33855">
        <ele>302</ele>
        <time>2013-11-02T10:42:28Z</time>
      </trkpt>
      <trkpt lat="43.75262" lon="7.33862">
        <ele>301</ele>
        <time>2013-11-02T10:42:33Z</time>
      </trkpt>
      <trkpt lat="43.75261" lon="7.33874">
        <ele>300</ele>
        <time>2013-11-02T10:42:38Z</time>
      </trkpt>
      <trkpt lat="43.75259" lon="7.33888">
        <ele>301</ele>
        <time>2013-11-02T10:42:43Z</time>
      </trkpt>
      <trkpt lat="43.75255" lon="7.339">
        <ele>304</ele>
        <time>2013-11-02T10:42:48Z</time>
      </trkpt>
      <trkpt lat="43.7525" lon="7.33911">
        <ele>310</ele>
        <time>2013-11-02T10:42:53Z</time>
      </trkpt>
      <trkpt lat="43.75245" lon="7.33922">
        <ele>313</ele>
        <time>2013-11-02T10:42:58Z</time>
      </trkpt>
      <trkpt lat="43.7524" lon="7.33933">
        <ele>311</ele>
        <time>2013-11-02T10:43:03Z</time>
      </trkpt>
      <trkpt lat="43.75236" lon="7.33947">
        <ele>310</ele>
        <time>2013-11-02T10:43:08Z</time>
      </trkpt>
      <trkpt lat="43.75231" lon="7.33959">
        <ele>308</ele>
        <time>2013-11-02T10:43:13Z</time>
      </trkpt>
      <trkpt lat="43.75224" lon="7.33971">
        <ele>308</ele>
        <time>2013-11-02T10:43:18Z</time>
      </trkpt>
      <trkpt lat="43.75214" lon="7.33981">
        <ele>307</ele>
        <time>2013-11-02T10:43:23Z</time>
      </trkpt>
      <trkpt lat="43.75205" lon="7.33989">
        <ele>308</ele>
        <time>2013-11-02T10:43:28Z</time>
      </trkpt>
      <trkpt lat="43.75196" lon="7.34">
        <ele>308</ele>
        <time>2013-11-02T10:43:33Z</time>
      </trkpt>
      <trkpt lat="43.75192" lon="7.34016">
        <ele>305</ele>
        <time>2013-11-02T10:43:38Z</time>
      </trkpt>
      <trkpt lat="43.75189" lon="7.34033">
        <ele>305</ele>
        <time>2013-11-02T10:43:43Z</time>
      </trkpt>
      <trkpt lat="43.75188" lon="7.34051">
        <ele>305</ele>
        <time>2013-11-02T10:43:48Z</time>
      </trkpt>
      <trkpt lat="43.75184" lon="7.34071">
        <ele>306</ele>
        <time>2013-11-02T10:43:53Z</time>
      </trkpt>
      <trkpt lat="43.75179" lon="7.34102">
        <ele>305</ele>
        <time>2013-11-02T10:43:58Z</time>
      </trkpt>
      <trkpt lat="43.75169" lon="7.34117">
        <ele>304</ele>
        <time>2013-11-02T10:44:03Z</time>
      </trkpt>
      <trkpt lat="43.75163" lon="7.34127">
        <ele>300</ele>
        <time>2013-11-02T10:44:08Z</time>
      </trkpt>
      <trkpt lat="43.75166" lon="7.34147">
        <ele>302</ele>
        <time>2013-11-02T10:44:13Z</time>
      </trkpt>
      <trkpt lat="43.75168" lon="7.34168">
        <ele>310</ele>
        <time>2013-11-02T10:44:18Z</time>
      </trkpt>
      <trkpt lat="43.75169" lon="7.34187">
        <ele>308</ele>
        <time>2013-11-02T10:44:23Z</time>
      </trkpt>
      <trkpt lat="43.75169" lon="7.34206">
        <ele>308</ele>
        <time>2013-11-02T10:44:28Z</time>
      </trkpt>
      <trkpt lat="43.75169" lon="7.34224">
        <ele>310</ele>
        <time>2013-11-02T10:44:33Z</time>
      </trkpt>
      <trkpt lat="43.7517" lon="7.34242">
        <ele>313</ele>
        <time>2013-11-02T10:44:38Z</time>
      </trkpt>
      <trkpt lat="43.75171" lon="7.34257">
        <ele>317</ele>
        <time>2013-11-02T10:44:43Z</time>
      </trkpt>
      <trkpt lat="43.75173" lon="7.3427">
        <ele>317</ele>
        <time>2013-11-02T10:44:48Z</time>
      </trkpt>
      <trkpt lat="43.75173" lon="7.34283">
        <ele>317</ele>
        <time>2013-11-02T10:44:53Z</time>
      </trkpt>
      <trkpt lat="43.75173" lon="7.34296">
        <ele>318</ele>
        <time>2013-11-02T10:44:58Z</time>
      </trkpt>
      <trkpt lat="43.75172" lon="7.34308">
        <ele>319</ele>
        <time>2013-11-02T10:45:03Z</time>
      </trkpt>
      <trkpt lat="43.75172" lon="7.34322">
        <ele>320</ele>
        <time>2013-11-02T10:45:08Z</time>
      </trkpt>
      <trkpt lat="43.75173" lon="7.34335">
        <ele>323</ele>
        <time>2013-11-02T10:45:13Z</time>
      </trkpt>
      <trkpt lat="43.75173" lon="7.34348">
        <ele>324</ele>
        <time>2013-11-02T10:45:18Z</time>
      </trkpt>
      <trkpt lat="43.75173" lon="7.34363">
        <ele>324</ele>
        <time>2013-11-02T10:45:23Z</time>
      </trkpt>
      <trkpt lat="43.75174" lon="7.34379">
        <ele>325</ele>
        <time>2013-11-02T10:45:28Z</time>
      </trkpt>
      <trkpt lat="43.75175" lon="7.34397">
        <ele>326</ele>
        <time>2013-11-02T10:45:33Z</time>
      </trkpt>
      <trkpt lat="43.75175" lon="7.34418">
        <ele>328</ele>
        <time>2013-11-02T10:45:38Z</time>
      </trkpt>
      <trkpt lat="43.7518" lon="7.34442">
        <ele>328</ele>
        <time>2013-11-02T10:45:43Z</time>
      </trkpt>
      <trkpt lat="43.75192" lon="7.34457">
        <ele>329</ele>
        <time>2013-11-02T10:45:48Z</time>
      </trkpt>
      <trkpt lat="43.75204" lon="7.34457">
        <ele>329</ele>
        <time>2013-11-02T10:45:53Z</time>
      </trkpt>
      <trkpt lat="43.75215" lon="7.34452">
        <ele>330</ele>
        <time>2013-11-02T10:45:58Z</time>
      </trkpt>
      <trkpt lat="43.75226" lon="7.34446">
        <ele>330</ele>
        <time>2013-11-02T10:46:03Z</time>
      </trkpt>
      <trkpt lat="43.75237" lon="7.34441">
        <ele>330</ele>
        <time>2013-11-02T10:46:08Z</time>
      </trkpt>
      <trkpt lat="43.75246" lon="7.34436">
        <ele>330</ele>
        <time>2013-11-02T10:46:13Z</time>
      </trkpt>
      <trkpt lat="43.75256" lon="7.34436">
        <ele>331</ele>
        <time>2013-11-02T10:46:18Z</time>
      </trkpt>
      <trkpt lat="43.75264" lon="7.34442">
        <ele>332</ele>
        <time>2013-11-02T10:46:23Z</time>
      </trkpt>
      <trkpt lat="43.7527" lon="7.34446">
        <ele>332</ele>
        <time>2013-11-02T10:46:28Z</time>
      </trkpt>
      <trkpt lat="43.75275" lon="7.3445">
        <ele>332</ele>
        <time>2013-11-02T10:46:33Z</time>
      </trkpt>
      <trkpt lat="43.75278" lon="7.34459">
        <ele>332</ele>
        <time>2013-11-02T10:46:44Z</time>
      </trkpt>
      <trkpt lat="43.7528" lon="7.34466">
        <ele>333</ele>
        <time>2013-11-02T10:46:49Z</time>
      </trkpt>
      <trkpt lat="43.75282" lon="7.34474">
        <ele>333</ele>
        <time>2013-11-02T10:46:54Z</time>
      </trkpt>
      <trkpt lat="43.75284" lon="7.34482">
        <ele>333</ele>
        <time>2013-11-02T10:46:59Z</time>
      </trkpt>
      <trkpt lat="43.75285" lon="7.34492">
        <ele>334</ele>
        <time>2013-11-02T10:47:04Z</time>
      </trkpt>
      <trkpt lat="43.75287" lon="7.34504">
        <ele>340</ele>
        <time>2013-11-02T10:47:09Z</time>
      </trkpt>
      <trkpt lat="43.75291" lon="7.34515">
        <ele>341</ele>
        <time>2013-11-02T10:47:14Z</time>
      </trkpt>
      <trkpt lat="43.75296" lon="7.34527">
        <ele>341</ele>
        <time>2013-11-02T10:47:19Z</time>
      </trkpt>
      <trkpt lat="43.75298" lon="7.3454">
        <ele>342</ele>
        <time>2013-11-02T10:47:24Z</time>
      </trkpt>
      <trkpt lat="43.75301" lon="7.34556">
        <ele>343</ele>
        <time>2013-11-02T10:47:29Z</time>
      </trkpt>
      <trkpt lat="43.75306" lon="7.34572">
        <ele>344</ele>
        <time>2013-11-02T10:47:34Z</time>
      </trkpt>
      <trkpt lat="43.75312" lon="7.34585">
        <ele>351</ele>
        <time>2013-11-02T10:47:39Z</time>
      </trkpt>
      <trkpt lat="43.75321" lon="7.34587">
        <ele>350</ele>
        <time>2013-11-02T10:47:44Z</time>
      </trkpt>
      <trkpt lat="43.75328" lon="7.34589">
        <ele>348</ele>
        <time>2013-11-02T10:47:49Z</time>
      </trkpt>
      <trkpt lat="43.75333" lon="7.34591">
        <ele>348</ele>
        <time>2013-11-02T10:49:07Z</time>
      </trkpt>
      <trkpt lat="43.75343" lon="7.34596">
        <ele>348</ele>
        <time>2013-11-02T10:49:29Z</time>
      </trkpt>
      <trkpt lat="43.75351" lon="7.34601">
        <ele>349</ele>
        <time>2013-11-02T10:49:34Z</time>
      </trkpt>
      <trkpt lat="43.75359" lon="7.34606">
        <ele>350</ele>
        <time>2013-11-02T10:49:39Z</time>
      </trkpt>
      <trkpt lat="43.75365" lon="7.34611">
        <ele>350</ele>
        <time>2013-11-02T10:49:44Z</time>
      </trkpt>
      <trkpt lat="43.75371" lon="7.34616">
        <ele>351</ele>
        <time>2013-11-02T10:49:49Z</time>
      </trkpt>
      <trkpt lat="43.75376" lon="7.34622">
        <ele>351</ele>
        <time>2013-11-02T10:49:54Z</time>
      </trkpt>
      <trkpt lat="43.75382" lon="7.34629">
        <ele>352</ele>
        <time>2013-11-02T10:49:59Z</time>
      </trkpt>
      <trkpt lat="43.75388" lon="7.34636">
        <ele>352</ele>
        <time>2013-11-02T10:50:04Z</time>
      </trkpt>
      <trkpt lat="43.75395" lon="7.34643">
        <ele>353</ele>
        <time>2013-11-02T10:50:09Z</time>
      </trkpt>
      <trkpt lat="43.75401" lon="7.34652">
        <ele>354</ele>
        <time>2013-11-02T10:50:14Z</time>
      </trkpt>
      <trkpt lat="43.75406" lon="7.34659">
        <ele>356</ele>
        <time>2013-11-02T10:50:19Z</time>
      </trkpt>
      <trkpt lat="43.75413" lon="7.34666">
        <ele>358</ele>
        <time>2013-11-02T10:50:24Z</time>
      </trkpt>
      <trkpt lat="43.7542" lon="7.34674">
        <ele>361</ele>
        <time>2013-11-02T10:50:29Z</time>
      </trkpt>
      <trkpt lat="43.75425" lon="7.3468">
        <ele>362</ele>
        <time>2013-11-02T10:50:34Z</time>
      </trkpt>
      <trkpt lat="43.75433" lon="7.34688">
        <ele>363</ele>
        <time>2013-11-02T10:50:39Z</time>
      </trkpt>
      <trkpt lat="43.7544" lon="7.34694">
        <ele>364</ele>
        <time>2013-11-02T10:50:44Z</time>
      </trkpt>
      <trkpt lat="43.75447" lon="7.34702">
        <ele>364</ele>
        <time>2013-11-02T10:50:49Z</time>
      </trkpt>
      <trkpt lat="43.75455" lon="7.34709">
        <ele>365</ele>
        <time>2013-11-02T10:50:54Z</time>
      </trkpt>
      <trkpt lat="43.75461" lon="7.34716">
        <ele>365</ele>
        <time>2013-11-02T10:50:59Z</time>
      </trkpt>
      <trkpt lat="43.75466" lon="7.34726">
        <ele>366</ele>
        <time>2013-11-02T10:51:04Z</time>
      </trkpt>
      <trkpt lat="43.7546" lon="7.34731">
        <ele>367</ele>
        <time>2013-11-02T10:51:09Z</time>
      </trkpt>
      <trkpt lat="43.75455" lon="7.34731">
        <ele>367</ele>
        <time>2013-11-02T10:51:15Z</time>
      </trkpt>
      <trkpt lat="43.75447" lon="7.3473">
        <ele>367</ele>
        <time>2013-11-02T10:51:20Z</time>
      </trkpt>
      <trkpt lat="43.75438" lon="7.34728">
        <ele>367</ele>
        <time>2013-11-02T10:51:25Z</time>
      </trkpt>
      <trkpt lat="43.75428" lon="7.34728">
        <ele>368</ele>
        <time>2013-11-02T10:51:30Z</time>
      </trkpt>
      <trkpt lat="43.75419" lon="7.34724">
        <ele>368</ele>
        <time>2013-11-02T10:51:35Z</time>
      </trkpt>
      <trkpt lat="43.7541" lon="7.3472">
        <ele>367</ele>
        <time>2013-11-02T10:51:40Z</time>
      </trkpt>
      <trkpt lat="43.75401" lon="7.34719">
        <ele>367</ele>
        <time>2013-11-02T10:51:45Z</time>
      </trkpt>
      <trkpt lat="43.75393" lon="7.34722">
        <ele>367</ele>
        <time>2013-11-02T10:51:50Z</time>
      </trkpt>
      <trkpt lat="43.75385" lon="7.34727">
        <ele>367</ele>
        <time>2013-11-02T10:51:55Z</time>
      </trkpt>
      <trkpt lat="43.75378" lon="7.34735">
        <ele>367</ele>
        <time>2013-11-02T10:52:00Z</time>
      </trkpt>
      <trkpt lat="43.75374" lon="7.34746">
        <ele>367</ele>
        <time>2013-11-02T10:52:05Z</time>
      </trkpt>
      <trkpt lat="43.75375" lon="7.34756">
        <ele>374</ele>
        <time>2013-11-02T10:52:10Z</time>
      </trkpt>
      <trkpt lat="43.75374" lon="7.34767">
        <ele>374</ele>
        <time>2013-11-02T10:52:15Z</time>
      </trkpt>
      <trkpt lat="43.75376" lon="7.34776">
        <ele>375</ele>
        <time>2013-11-02T10:52:20Z</time>
      </trkpt>
      <trkpt lat="43.7538" lon="7.34785">
        <ele>375</ele>
        <time>2013-11-02T10:52:25Z</time>
      </trkpt>
      <trkpt lat="43.75385" lon="7.34793">
        <ele>376</ele>
        <time>2013-11-02T10:52:30Z</time>
      </trkpt>
      <trkpt lat="43.7539" lon="7.34801">
        <ele>376</ele>
        <time>2013-11-02T10:52:35Z</time>
      </trkpt>
      <trkpt lat="43.75396" lon="7.34808">
        <ele>377</ele>
        <time>2013-11-02T10:52:40Z</time>
      </trkpt>
      <trkpt lat="43.754" lon="7.34814">
        <ele>377</ele>
        <time>2013-11-02T10:52:45Z</time>
      </trkpt>
      <trkpt lat="43.75405" lon="7.34822">
        <ele>378</ele>
        <time>2013-11-02T10:52:50Z</time>
      </trkpt>
      <trkpt lat="43.75408" lon="7.34834">
        <ele>382</ele>
        <time>2013-11-02T10:52:55Z</time>
      </trkpt>
      <trkpt lat="43.75409" lon="7.34846">
        <ele>382</ele>
        <time>2013-11-02T10:53:00Z</time>
      </trkpt>
      <trkpt lat="43.75411" lon="7.34858">
        <ele>383</ele>
        <time>2013-11-02T10:53:05Z</time>
      </trkpt>
      <trkpt lat="43.75414" lon="7.3487">
        <ele>384</ele>
        <time>2013-11-02T10:53:10Z</time>
      </trkpt>
      <trkpt lat="43.75416" lon="7.34883">
        <ele>385</ele>
        <time>2013-11-02T10:53:15Z</time>
      </trkpt>
      <trkpt lat="43.75418" lon="7.34896">
        <ele>387</ele>
        <time>2013-11-02T10:53:20Z</time>
      </trkpt>
      <trkpt lat="43.7542" lon="7.34909">
        <ele>388</ele>
        <time>2013-11-02T10:53:25Z</time>
      </trkpt>
      <trkpt lat="43.75423" lon="7.34921">
        <ele>391</ele>
        <time>2013-11-02T10:53:30Z</time>
      </trkpt>
      <trkpt lat="43.75425" lon="7.34928">
        <ele>393</ele>
        <time>2013-11-02T10:53:35Z</time>
      </trkpt>
      <trkpt lat="43.75425" lon="7.34937">
        <ele>394</ele>
        <time>2013-11-02T10:53:40Z</time>
      </trkpt>
      <trkpt lat="43.75425" lon="7.34947">
        <ele>396</ele>
        <time>2013-11-02T10:53:45Z</time>
      </trkpt>
      <trkpt lat="43.75426" lon="7.34957">
        <ele>397</ele>
        <time>2013-11-02T10:53:50Z</time>
      </trkpt>
      <trkpt lat="43.75426" lon="7.34966">
        <ele>397</ele>
        <time>2013-11-02T10:53:55Z</time>
      </trkpt>
      <trkpt lat="43.75426" lon="7.34976">
        <ele>398</ele>
        <time>2013-11-02T10:54:00Z</time>
      </trkpt>
      <trkpt lat="43.75426" lon="7.34985">
        <ele>398</ele>
        <time>2013-11-02T10:54:05Z</time>
      </trkpt>
      <trkpt lat="43.75423" lon="7.34995">
        <ele>398</ele>
        <time>2013-11-02T10:54:10Z</time>
      </trkpt>
      <trkpt lat="43.75422" lon="7.35006">
        <ele>401</ele>
        <time>2013-11-02T10:54:15Z</time>
      </trkpt>
      <trkpt lat="43.75421" lon="7.35015">
        <ele>404</ele>
        <time>2013-11-02T10:54:20Z</time>
      </trkpt>
      <trkpt lat="43.75421" lon="7.35026">
        <ele>406</ele>
        <time>2013-11-02T10:54:25Z</time>
      </trkpt>
      <trkpt lat="43.7542" lon="7.35036">
        <ele>407</ele>
        <time>2013-11-02T10:54:30Z</time>
      </trkpt>
      <trkpt lat="43.7542" lon="7.35046">
        <ele>408</ele>
        <time>2013-11-02T10:54:35Z</time>
      </trkpt>
      <trkpt lat="43.75419" lon="7.35055">
        <ele>409</ele>
        <time>2013-11-02T10:54:40Z</time>
      </trkpt>
      <trkpt lat="43.75419" lon="7.35064">
        <ele>409</ele>
        <time>2013-11-02T10:54:45Z</time>
      </trkpt>
      <trkpt lat="43.75418" lon="7.35074">
        <ele>409</ele>
        <time>2013-11-02T10:54:50Z</time>
      </trkpt>
      <trkpt lat="43.75419" lon="7.35083">
        <ele>408</ele>
        <time>2013-11-02T10:54:55Z</time>
      </trkpt>
      <trkpt lat="43.75421" lon="7.35092">
        <ele>413</ele>
        <time>2013-11-02T10:55:00Z</time>
      </trkpt>
      <trkpt lat="43.75423" lon="7.35101">
        <ele>415</ele>
        <time>2013-11-02T10:55:05Z</time>
      </trkpt>
      <trkpt lat="43.75429" lon="7.35108">
        <ele>417</ele>
        <time>2013-11-02T10:55:10Z</time>
      </trkpt>
      <trkpt lat="43.75437" lon="7.35109">
        <ele>419</ele>
        <time>2013-11-02T10:55:15Z</time>
      </trkpt>
      <trkpt lat="43.75443" lon="7.35106">
        <ele>419</ele>
        <time>2013-11-02T10:55:20Z</time>
      </trkpt>
      <trkpt lat="43.7545" lon="7.35102">
        <ele>420</ele>
        <time>2013-11-02T10:55:25Z</time>
      </trkpt>
      <trkpt lat="43.75455" lon="7.35095">
        <ele>420</ele>
        <time>2013-11-02T10:55:30Z</time>
      </trkpt>
      <trkpt lat="43.75462" lon="7.35087">
        <ele>421</ele>
        <time>2013-11-02T10:55:35Z</time>
      </trkpt>
      <trkpt lat="43.75469" lon="7.3508">
        <ele>415</ele>
        <time>2013-11-02T10:55:40Z</time>
      </trkpt>
      <trkpt lat="43.75475" lon="7.35073">
        <ele>416</ele>
        <time>2013-11-02T10:55:45Z</time>
      </trkpt>
      <trkpt lat="43.75481" lon="7.35066">
        <ele>416</ele>
        <time>2013-11-02T10:55:50Z</time>
      </trkpt>
      <trkpt lat="43.75486" lon="7.35058">
        <ele>416</ele>
        <time>2013-11-02T10:55:55Z</time>
      </trkpt>
      <trkpt lat="43.75492" lon="7.35051">
        <ele>415</ele>
        <time>2013-11-02T10:56:00Z</time>
      </trkpt>
      <trkpt lat="43.75497" lon="7.35042">
        <ele>414</ele>
        <time>2013-11-02T10:56:05Z</time>
      </trkpt>
      <trkpt lat="43.75503" lon="7.35035">
        <ele>425</ele>
        <time>2013-11-02T10:56:10Z</time>
      </trkpt>
      <trkpt lat="43.75509" lon="7.35026">
        <ele>424</ele>
        <time>2013-11-02T10:56:15Z</time>
      </trkpt>
      <trkpt lat="43.75513" lon="7.35017">
        <ele>423</ele>
        <time>2013-11-02T10:56:20Z</time>
      </trkpt>
      <trkpt lat="43.75518" lon="7.35008">
        <ele>422</ele>
        <time>2013-11-02T10:56:25Z</time>
      </trkpt>
      <trkpt lat="43.75523" lon="7.34999">
        <ele>413</ele>
        <time>2013-11-02T10:56:30Z</time>
      </trkpt>
      <trkpt lat="43.7553" lon="7.35">
        <ele>414</ele>
        <time>2013-11-02T10:56:35Z</time>
      </trkpt>
      <trkpt lat="43.75529" lon="7.35012">
        <ele>425</ele>
        <time>2013-11-02T10:56:40Z</time>
      </trkpt>
      <trkpt lat="43.75525" lon="7.35022">
        <ele>426</ele>
        <time>2013-11-02T10:56:45Z</time>
      </trkpt>
      <trkpt lat="43.75523" lon="7.35033">
        <ele>427</ele>
        <time>2013-11-02T10:56:50Z</time>
      </trkpt>
      <trkpt lat="43.7552" lon="7.35044">
        <ele>428</ele>
        <time>2013-11-02T10:56:55Z</time>
      </trkpt>
      <trkpt lat="43.75518" lon="7.35054">
        <ele>429</ele>
        <time>2013-11-02T10:57:00Z</time>
      </trkpt>
      <trkpt lat="43.75517" lon="7.35065">
        <ele>429</ele>
        <time>2013-11-02T10:57:05Z</time>
      </trkpt>
      <trkpt lat="43.75516" lon="7.35075">
        <ele>429</ele>
        <time>2013-11-02T10:57:10Z</time>
      </trkpt>
      <trkpt lat="43.75515" lon="7.35084">
        <ele>434</ele>
        <time>2013-11-02T10:57:15Z</time>
      </trkpt>
      <trkpt lat="43.75515" lon="7.35092">
        <ele>435</ele>
        <time>2013-11-02T11:03:07Z</time>
      </trkpt>
      <trkpt lat="43.75515" lon="7.35105">
        <ele>437</ele>
        <time>2013-11-02T11:03:12Z</time>
      </trkpt>
      <trkpt lat="43.75515" lon="7.35117">
        <ele>439</ele>
        <time>2013-11-02T11:03:17Z</time>
      </trkpt>
      <trkpt lat="43.75515" lon="7.3513">
        <ele>440</ele>
        <time>2013-11-02T11:03:22Z</time>
      </trkpt>
      <trkpt lat="43.75515" lon="7.35141">
        <ele>440</ele>
        <time>2013-11-02T11:03:27Z</time>
      </trkpt>
      <trkpt lat="43.75516" lon="7.35154">
        <ele>440</ele>
        <time>2013-11-02T11:03:32Z</time>
      </trkpt>
      <trkpt lat="43.75515" lon="7.35165">
        <ele>439</ele>
        <time>2013-11-02T11:03:37Z</time>
      </trkpt>
      <trkpt lat="43.75515" lon="7.35175">
        <ele>444</ele>
        <time>2013-11-02T11:03:42Z</time>
      </trkpt>
      <trkpt lat="43.75514" lon="7.35183">
        <ele>446</ele>
        <time>2013-11-02T11:03:47Z</time>
      </trkpt>
      <trkpt lat="43.75514" lon="7.35191">
        <ele>447</ele>
        <time>2013-11-02T11:03:52Z</time>
      </trkpt>
      <trkpt lat="43.75514" lon="7.352">
        <ele>449</ele>
        <time>2013-11-02T11:03:57Z</time>
      </trkpt>
      <trkpt lat="43.75512" lon="7.35208">
        <ele>450</ele>
        <time>2013-11-02T11:04:02Z</time>
      </trkpt>
      <trkpt lat="43.75513" lon="7.35214">
        <ele>450</ele>
        <time>2013-11-02T11:04:07Z</time>
      </trkpt>
      <trkpt lat="43.75513" lon="7.35226">
        <ele>450</ele>
        <time>2013-11-02T11:04:12Z</time>
      </trkpt>
      <trkpt lat="43.75513" lon="7.35235">
        <ele>450</ele>
        <time>2013-11-02T11:04:17Z</time>
      </trkpt>
      <trkpt lat="43.75512" lon="7.35244">
        <ele>449</ele>
        <time>2013-11-02T11:04:22Z</time>
      </trkpt>
      <trkpt lat="43.75512" lon="7.35252">
        <ele>453</ele>
        <time>2013-11-02T11:04:27Z</time>
      </trkpt>
      <trkpt lat="43.7551" lon="7.35261">
        <ele>455</ele>
        <time>2013-11-02T11:04:32Z</time>
      </trkpt>
      <trkpt lat="43.7551" lon="7.35269">
        <ele>457</ele>
        <time>2013-11-02T11:04:37Z</time>
      </trkpt>
      <trkpt lat="43.75509" lon="7.35279">
        <ele>459</ele>
        <time>2013-11-02T11:04:42Z</time>
      </trkpt>
      <trkpt lat="43.75508" lon="7.35286">
        <ele>460</ele>
        <time>2013-11-02T11:04:47Z</time>
      </trkpt>
      <trkpt lat="43.75506" lon="7.35295">
        <ele>461</ele>
        <time>2013-11-02T11:04:52Z</time>
      </trkpt>
      <trkpt lat="43.75503" lon="7.35305">
        <ele>462</ele>
        <time>2013-11-02T11:04:57Z</time>
      </trkpt>
      <trkpt lat="43.75501" lon="7.35312">
        <ele>462</ele>
        <time>2013-11-02T11:05:02Z</time>
      </trkpt>
      <trkpt lat="43.75499" lon="7.3532">
        <ele>454</ele>
        <time>2013-11-02T11:05:07Z</time>
      </trkpt>
      <trkpt lat="43.75495" lon="7.35333">
        <ele>457</ele>
        <time>2013-11-02T11:05:17Z</time>
      </trkpt>
      <trkpt lat="43.75494" lon="7.3534">
        <ele>459</ele>
        <time>2013-11-02T11:05:22Z</time>
      </trkpt>
      <trkpt lat="43.75494" lon="7.35347">
        <ele>459</ele>
        <time>2013-11-02T11:05:27Z</time>
      </trkpt>
      <trkpt lat="43.75492" lon="7.35356">
        <ele>458</ele>
        <time>2013-11-02T11:05:32Z</time>
      </trkpt>
      <trkpt lat="43.75491" lon="7.35365">
        <ele>459</ele>
        <time>2013-11-02T11:05:37Z</time>
      </trkpt>
      <trkpt lat="43.7549" lon="7.35375">
        <ele>459</ele>
        <time>2013-11-02T11:05:42Z</time>
      </trkpt>
      <trkpt lat="43.75489" lon="7.35386">
        <ele>460</ele>
        <time>2013-11-02T11:05:47Z</time>
      </trkpt>
      <trkpt lat="43.75488" lon="7.35396">
        <ele>461</ele>
        <time>2013-11-02T11:05:52Z</time>
      </trkpt>
      <trkpt lat="43.75487" lon="7.35402">
        <ele>463</ele>
        <time>2013-11-02T11:05:57Z</time>
      </trkpt>
      <trkpt lat="43.75486" lon="7.3541">
        <ele>463</ele>
        <time>2013-11-02T11:06:02Z</time>
      </trkpt>
      <trkpt lat="43.75486" lon="7.35419">
        <ele>467</ele>
        <time>2013-11-02T11:06:07Z</time>
      </trkpt>
      <trkpt lat="43.75485" lon="7.35429">
        <ele>467</ele>
        <time>2013-11-02T11:06:12Z</time>
      </trkpt>
      <trkpt lat="43.75487" lon="7.35438">
        <ele>467</ele>
        <time>2013-11-02T11:06:17Z</time>
      </trkpt>
      <trkpt lat="43.75487" lon="7.35447">
        <ele>466</ele>
        <time>2013-11-02T11:06:22Z</time>
      </trkpt>
      <trkpt lat="43.75488" lon="7.35457">
        <ele>467</ele>
        <time>2013-11-02T11:06:27Z</time>
      </trkpt>
      <trkpt lat="43.75491" lon="7.35467">
        <ele>468</ele>
        <time>2013-11-02T11:06:32Z</time>
      </trkpt>
      <trkpt lat="43.75491" lon="7.35477">
        <ele>469</ele>
        <time>2013-11-02T11:06:37Z</time>
      </trkpt>
      <trkpt lat="43.75494" lon="7.35487">
        <ele>470</ele>
        <time>2013-11-02T11:06:42Z</time>
      </trkpt>
      <trkpt lat="43.75495" lon="7.35495">
        <ele>472</ele>
        <time>2013-11-02T11:06:47Z</time>
      </trkpt>
      <trkpt lat="43.75499" lon="7.35502">
        <ele>475</ele>
        <time>2013-11-02T11:06:52Z</time>
      </trkpt>
      <trkpt lat="43.755" lon="7.35512">
        <ele>480</ele>
        <time>2013-11-02T11:06:57Z</time>
      </trkpt>
      <trkpt lat="43.75503" lon="7.35522">
        <ele>483</ele>
        <time>2013-11-02T11:07:02Z</time>
      </trkpt>
      <trkpt lat="43.75504" lon="7.35532">
        <ele>484</ele>
        <time>2013-11-02T11:07:07Z</time>
      </trkpt>
      <trkpt lat="43.75505" lon="7.35542">
        <ele>484</ele>
        <time>2013-11-02T11:07:12Z</time>
      </trkpt>
      <trkpt lat="43.75505" lon="7.35553">
        <ele>484</ele>
        <time>2013-11-02T11:07:17Z</time>
      </trkpt>
      <trkpt lat="43.75507" lon="7.35566">
        <ele>483</ele>
        <time>2013-11-02T11:07:22Z</time>
      </trkpt>
      <trkpt lat="43.75507" lon="7.3558">
        <ele>480</ele>
        <time>2013-11-02T11:07:27Z</time>
      </trkpt>
      <trkpt lat="43.75507" lon="7.3559">
        <ele>480</ele>
        <time>2013-11-02T11:07:32Z</time>
      </trkpt>
      <trkpt lat="43.75508" lon="7.35599">
        <ele>481</ele>
        <time>2013-11-02T11:07:37Z</time>
      </trkpt>
      <trkpt lat="43.75508" lon="7.3561">
        <ele>482</ele>
        <time>2013-11-02T11:07:42Z</time>
      </trkpt>
      <trkpt lat="43.75507" lon="7.35619">
        <ele>483</ele>
        <time>2013-11-02T11:07:47Z</time>
      </trkpt>
      <trkpt lat="43.75503" lon="7.35629">
        <ele>483</ele>
        <time>2013-11-02T11:07:52Z</time>
      </trkpt>
      <trkpt lat="43.75498" lon="7.35639">
        <ele>480</ele>
        <time>2013-11-02T11:07:57Z</time>
      </trkpt>
      <trkpt lat="43.75492" lon="7.35642">
        <ele>480</ele>
        <time>2013-11-02T11:08:02Z</time>
      </trkpt>
      <trkpt lat="43.75482" lon="7.35644">
        <ele>480</ele>
        <time>2013-11-02T11:08:07Z</time>
      </trkpt>
      <trkpt lat="43.75471" lon="7.35646">
        <ele>480</ele>
        <time>2013-11-02T11:08:12Z</time>
      </trkpt>
      <trkpt lat="43.75463" lon="7.35647">
        <ele>479</ele>
        <time>2013-11-02T11:08:17Z</time>
      </trkpt>
      <trkpt lat="43.75457" lon="7.35652">
        <ele>479</ele>
        <time>2013-11-02T11:08:22Z</time>
      </trkpt>
      <trkpt lat="43.7545" lon="7.35657">
        <ele>480</ele>
        <time>2013-11-02T11:08:27Z</time>
      </trkpt>
      <trkpt lat="43.75441" lon="7.35665">
        <ele>480</ele>
        <time>2013-11-02T11:08:32Z</time>
      </trkpt>
      <trkpt lat="43.7543" lon="7.35669">
        <ele>484</ele>
        <time>2013-11-02T11:08:37Z</time>
      </trkpt>
      <trkpt lat="43.7542" lon="7.35675">
        <ele>484</ele>
        <time>2013-11-02T11:08:42Z</time>
      </trkpt>
      <trkpt lat="43.7541" lon="7.35679">
        <ele>485</ele>
        <time>2013-11-02T11:08:47Z</time>
      </trkpt>
      <trkpt lat="43.754" lon="7.35685">
        <ele>486</ele>
        <time>2013-11-02T11:08:52Z</time>
      </trkpt>
      <trkpt lat="43.75391" lon="7.35689">
        <ele>487</ele>
        <time>2013-11-02T11:08:57Z</time>
      </trkpt>
      <trkpt lat="43.75384" lon="7.35691">
        <ele>487</ele>
        <time>2013-11-02T11:09:02Z</time>
      </trkpt>
      <trkpt lat="43.7538" lon="7.35701">
        <ele>488</ele>
        <time>2013-11-02T11:09:07Z</time>
      </trkpt>
      <trkpt lat="43.75381" lon="7.35715">
        <ele>488</ele>
        <time>2013-11-02T11:09:12Z</time>
      </trkpt>
      <trkpt lat="43.75382" lon="7.35725">
        <ele>489</ele>
        <time>2013-11-02T11:09:17Z</time>
      </trkpt>
      <trkpt lat="43.75379" lon="7.35734">
        <ele>489</ele>
        <time>2013-11-02T11:10:08Z</time>
      </trkpt>
      <trkpt lat="43.7538" lon="7.35746">
        <ele>489</ele>
        <time>2013-11-02T11:10:41Z</time>
      </trkpt>
      <trkpt lat="43.75376" lon="7.35762">
        <ele>489</ele>
        <time>2013-11-02T11:10:46Z</time>
      </trkpt>
      <trkpt lat="43.75373" lon="7.35784">
        <ele>489</ele>
        <time>2013-11-02T11:10:51Z</time>
      </trkpt>
      <trkpt lat="43.75364" lon="7.35796">
        <ele>489</ele>
        <time>2013-11-02T11:10:56Z</time>
      </trkpt>
      <trkpt lat="43.75355" lon="7.35819">
        <ele>488</ele>
        <time>2013-11-02T11:11:01Z</time>
      </trkpt>
      <trkpt lat="43.75358" lon="7.3584">
        <ele>487</ele>
        <time>2013-11-02T11:11:06Z</time>
      </trkpt>
      <trkpt lat="43.75365" lon="7.35863">
        <ele>486</ele>
        <time>2013-11-02T11:11:11Z</time>
      </trkpt>
      <trkpt lat="43.75374" lon="7.35883">
        <ele>486</ele>
        <time>2013-11-02T11:11:16Z</time>
      </trkpt>
      <trkpt lat="43.7538" lon="7.35904">
        <ele>484</ele>
        <time>2013-11-02T11:11:21Z</time>
      </trkpt>
      <trkpt lat="43.75393" lon="7.35933">
        <ele>483</ele>
        <time>2013-11-02T11:11:26Z</time>
      </trkpt>
      <trkpt lat="43.75404" lon="7.35965">
        <ele>483</ele>
        <time>2013-11-02T11:11:31Z</time>
      </trkpt>
      <trkpt lat="43.75415" lon="7.35999">
        <ele>477</ele>
        <time>2013-11-02T11:11:36Z</time>
      </trkpt>
      <trkpt lat="43.75421" lon="7.36026">
        <ele>475</ele>
        <time>2013-11-02T11:11:41Z</time>
      </trkpt>
      <trkpt lat="43.75431" lon="7.36031">
        <ele>474</ele>
        <time>2013-11-02T11:11:46Z</time>
      </trkpt>
      <trkpt lat="43.75448" lon="7.36047">
        <ele>473</ele>
        <time>2013-11-02T11:11:51Z</time>
      </trkpt>
      <trkpt lat="43.7546" lon="7.36067">
        <ele>472</ele>
        <time>2013-11-02T11:11:56Z</time>
      </trkpt>
      <trkpt lat="43.75468" lon="7.36078">
        <ele>470</ele>
        <time>2013-11-02T11:12:01Z</time>
      </trkpt>
      <trkpt lat="43.7548" lon="7.36095">
        <ele>475</ele>
        <time>2013-11-02T11:12:06Z</time>
      </trkpt>
      <trkpt lat="43.75493" lon="7.36112">
        <ele>476</ele>
        <time>2013-11-02T11:12:11Z</time>
      </trkpt>
      <trkpt lat="43.75502" lon="7.3613">
        <ele>459</ele>
        <time>2013-11-02T11:12:16Z</time>
      </trkpt>
      <trkpt lat="43.75511" lon="7.36147">
        <ele>461</ele>
        <time>2013-11-02T11:12:21Z</time>
      </trkpt>
      <trkpt lat="43.75523" lon="7.36169">
        <ele>467</ele>
        <time>2013-11-02T11:12:26Z</time>
      </trkpt>
      <trkpt lat="43.75532" lon="7.36195">
        <ele>465</ele>
        <time>2013-11-02T11:12:31Z</time>
      </trkpt>
      <trkpt lat="43.7554" lon="7.3622">
        <ele>466</ele>
        <time>2013-11-02T11:12:36Z</time>
      </trkpt>
      <trkpt lat="43.75548" lon="7.36241">
        <ele>466</ele>
        <time>2013-11-02T11:12:41Z</time>
      </trkpt>
      <trkpt lat="43.7556" lon="7.36256">
        <ele>475</ele>
        <time>2013-11-02T11:12:46Z</time>
      </trkpt>
      <trkpt lat="43.75568" lon="7.36263">
        <ele>473</ele>
        <time>2013-11-02T11:12:51Z</time>
      </trkpt>
      <trkpt lat="43.75579" lon="7.36272">
        <ele>474</ele>
        <time>2013-11-02T11:12:56Z</time>
      </trkpt>
      <trkpt lat="43.75587" lon="7.36284">
        <ele>458</ele>
        <time>2013-11-02T11:13:01Z</time>
      </trkpt>
      <trkpt lat="43.75596" lon="7.36296">
        <ele>460</ele>
        <time>2013-11-02T11:13:06Z</time>
      </trkpt>
      <trkpt lat="43.75604" lon="7.36308">
        <ele>461</ele>
        <time>2013-11-02T11:13:11Z</time>
      </trkpt>
      <trkpt lat="43.75612" lon="7.36321">
        <ele>462</ele>
        <time>2013-11-02T11:13:16Z</time>
      </trkpt>
      <trkpt lat="43.75619" lon="7.36334">
        <ele>475</ele>
        <time>2013-11-02T11:13:21Z</time>
      </trkpt>
      <trkpt lat="43.75628" lon="7.3635">
        <ele>473</ele>
        <time>2013-11-02T11:13:26Z</time>
      </trkpt>
      <trkpt lat="43.75637" lon="7.36365">
        <ele>473</ele>
        <time>2013-11-02T11:13:31Z</time>
      </trkpt>
      <trkpt lat="43.75646" lon="7.36381">
        <ele>474</ele>
        <time>2013-11-02T11:13:36Z</time>
      </trkpt>
      <trkpt lat="43.75654" lon="7.36396">
        <ele>475</ele>
        <time>2013-11-02T11:13:41Z</time>
      </trkpt>
      <trkpt lat="43.75663" lon="7.36412">
        <ele>474</ele>
        <time>2013-11-02T11:13:46Z</time>
      </trkpt>
      <trkpt lat="43.75672" lon="7.36427">
        <ele>469</ele>
        <time>2013-11-02T11:13:51Z</time>
      </trkpt>
      <trkpt lat="43.75679" lon="7.36444">
        <ele>467</ele>
        <time>2013-11-02T11:13:56Z</time>
      </trkpt>
      <trkpt lat="43.75685" lon="7.36462">
        <ele>467</ele>
        <time>2013-11-02T11:14:01Z</time>
      </trkpt>
      <trkpt lat="43.75688" lon="7.3648">
        <ele>469</ele>
        <time>2013-11-02T11:14:06Z</time>
      </trkpt>
      <trkpt lat="43.75692" lon="7.36493">
        <ele>469</ele>
        <time>2013-11-02T11:14:11Z</time>
      </trkpt>
      <trkpt lat="43.75695" lon="7.36502">
        <ele>473</ele>
        <time>2013-11-02T11:15:18Z</time>
      </trkpt>
      <trkpt lat="43.75699" lon="7.36515">
        <ele>472</ele>
        <time>2013-11-02T11:15:23Z</time>
      </trkpt>
      <trkpt lat="43.75703" lon="7.36538">
        <ele>471</ele>
        <time>2013-11-02T11:15:28Z</time>
      </trkpt>
      <trkpt lat="43.75708" lon="7.36564">
        <ele>472</ele>
        <time>2013-11-02T11:15:33Z</time>
      </trkpt>
      <trkpt lat="43.75715" lon="7.36589">
        <ele>475</ele>
        <time>2013-11-02T11:15:38Z</time>
      </trkpt>
      <trkpt lat="43.75722" lon="7.36608">
        <ele>475</ele>
        <time>2013-11-02T11:15:43Z</time>
      </trkpt>
      <trkpt lat="43.75729" lon="7.36627">
        <ele>476</ele>
        <time>2013-11-02T11:15:48Z</time>
      </trkpt>
      <trkpt lat="43.75735" lon="7.36647">
        <ele>475</ele>
        <time>2013-11-02T11:15:53Z</time>
      </trkpt>
      <trkpt lat="43.75741" lon="7.36664">
        <ele>473</ele>
        <time>2013-11-02T11:15:58Z</time>
      </trkpt>
      <trkpt lat="43.75744" lon="7.36682">
        <ele>478</ele>
        <time>2013-11-02T11:16:03Z</time>
      </trkpt>
      <trkpt lat="43.75748" lon="7.36702">
        <ele>481</ele>
        <time>2013-11-02T11:16:08Z</time>
      </trkpt>
      <trkpt lat="43.75752" lon="7.36725">
        <ele>467</ele>
        <time>2013-11-02T11:16:13Z</time>
      </trkpt>
      <trkpt lat="43.7575" lon="7.36748">
        <ele>474</ele>
        <time>2013-11-02T11:16:18Z</time>
      </trkpt>
      <trkpt lat="43.75751" lon="7.36765">
        <ele>470</ele>
        <time>2013-11-02T11:16:23Z</time>
      </trkpt>
      <trkpt lat="43.75752" lon="7.36784">
        <ele>468</ele>
        <time>2013-11-02T11:16:28Z</time>
      </trkpt>
      <trkpt lat="43.75753" lon="7.36805">
        <ele>468</ele>
        <time>2013-11-02T11:16:33Z</time>
      </trkpt>
      <trkpt lat="43.75754" lon="7.36827">
        <ele>473</ele>
        <time>2013-11-02T11:16:38Z</time>
      </trkpt>
      <trkpt lat="43.75754" lon="7.36845">
        <ele>470</ele>
        <time>2013-11-02T11:16:43Z</time>
      </trkpt>
      <trkpt lat="43.75754" lon="7.36864">
        <ele>465</ele>
        <time>2013-11-02T11:16:48Z</time>
      </trkpt>
      <trkpt lat="43.75754" lon="7.36883">
        <ele>464</ele>
        <time>2013-11-02T11:16:53Z</time>
      </trkpt>
      <trkpt lat="43.75753" lon="7.36891">
        <ele>465</ele>
        <time>2013-11-02T11:17:09Z</time>
      </trkpt>
      <trkpt lat="43.75751" lon="7.36899">
        <ele>466</ele>
        <time>2013-11-02T11:18:14Z</time>
      </trkpt>
      <trkpt lat="43.75748" lon="7.36914">
        <ele>474</ele>
        <time>2013-11-02T11:18:19Z</time>
      </trkpt>
      <trkpt lat="43.75743" lon="7.36935">
        <ele>479</ele>
        <time>2013-11-02T11:18:24Z</time>
      </trkpt>
      <trkpt lat="43.75738" lon="7.36958">
        <ele>481</ele>
        <time>2013-11-02T11:18:29Z</time>
      </trkpt>
      <trkpt lat="43.75731" lon="7.36991">
        <ele>478</ele>
        <time>2013-11-02T11:18:34Z</time>
      </trkpt>
      <trkpt lat="43.75726" lon="7.37025">
        <ele>476</ele>
        <time>2013-11-02T11:18:39Z</time>
      </trkpt>
      <trkpt lat="43.75718" lon="7.37055">
        <ele>476</ele>
        <time>2013-11-02T11:18:44Z</time>
      </trkpt>
      <trkpt lat="43.75711" lon="7.37084">
        <ele>471</ele>
        <time>2013-11-02T11:18:49Z</time>
      </trkpt>
      <trkpt lat="43.75705" lon="7.37113">
        <ele>472</ele>
        <time>2013-11-02T11:18:54Z</time>
      </trkpt>
      <trkpt lat="43.75698" lon="7.37143">
        <ele>472</ele>
        <time>2013-11-02T11:18:59Z</time>
      </trkpt>
      <trkpt lat="43.75691" lon="7.37171">
        <ele>470</ele>
        <time>2013-11-02T11:19:04Z</time>
      </trkpt>
      <trkpt lat="43.75681" lon="7.37202">
        <ele>468</ele>
        <time>2013-11-02T11:19:09Z</time>
      </trkpt>
      <trkpt lat="43.75669" lon="7.37232">
        <ele>467</ele>
        <time>2013-11-02T11:19:14Z</time>
      </trkpt>
      <trkpt lat="43.75661" lon="7.37264">
        <ele>474</ele>
        <time>2013-11-02T11:19:19Z</time>
      </trkpt>
      <trkpt lat="43.75654" lon="7.37293">
        <ele>477</ele>
        <time>2013-11-02T11:19:24Z</time>
      </trkpt>
      <trkpt lat="43.75648" lon="7.37314">
        <ele>476</ele>
        <time>2013-11-02T11:19:29Z</time>
      </trkpt>
      <trkpt lat="43.75651" lon="7.3733">
        <ele>474</ele>
        <time>2013-11-02T11:19:34Z</time>
      </trkpt>
      <trkpt lat="43.75651" lon="7.37341">
        <ele>474</ele>
        <time>2013-11-02T11:19:39Z</time>
      </trkpt>
      <trkpt lat="43.75666" lon="7.37343">
        <ele>472</ele>
        <time>2013-11-02T11:21:15Z</time>
      </trkpt>
      <trkpt lat="43.75679" lon="7.37334">
        <ele>471</ele>
        <time>2013-11-02T11:21:20Z</time>
      </trkpt>
      <trkpt lat="43.75689" lon="7.37328">
        <ele>469</ele>
        <time>2013-11-02T11:21:25Z</time>
      </trkpt>
      <trkpt lat="43.75699" lon="7.37321">
        <ele>468</ele>
        <time>2013-11-02T11:21:30Z</time>
      </trkpt>
      <trkpt lat="43.75711" lon="7.37313">
        <ele>468</ele>
        <time>2013-11-02T11:21:35Z</time>
      </trkpt>
      <trkpt lat="43.75722" lon="7.37307">
        <ele>468</ele>
        <time>2013-11-02T11:21:40Z</time>
      </trkpt>
      <trkpt lat="43.75735" lon="7.37303">
        <ele>468</ele>
        <time>2013-11-02T11:21:45Z</time>
      </trkpt>
      <trkpt lat="43.75741" lon="7.37307">
        <ele>469</ele>
        <time>2013-11-02T11:21:50Z</time>
      </trkpt>
      <trkpt lat="43.75735" lon="7.37316">
        <ele>469</ele>
        <time>2013-11-02T11:21:55Z</time>
      </trkpt>
      <trkpt lat="43.75731" lon="7.37327">
        <ele>470</ele>
        <time>2013-11-02T11:22:00Z</time>
      </trkpt>
      <trkpt lat="43.75725" lon="7.37339">
        <ele>474</ele>
        <time>2013-11-02T11:22:05Z</time>
      </trkpt>
      <trkpt lat="43.75717" lon="7.37352">
        <ele>474</ele>
        <time>2013-11-02T11:22:10Z</time>
      </trkpt>
      <trkpt lat="43.75709" lon="7.37364">
        <ele>474</ele>
        <time>2013-11-02T11:22:15Z</time>
      </trkpt>
      <trkpt lat="43.75703" lon="7.37378">
        <ele>474</ele>
        <time>2013-11-02T11:22:20Z</time>
      </trkpt>
      <trkpt lat="43.75696" lon="7.37393">
        <ele>475</ele>
        <time>2013-11-02T11:22:25Z</time>
      </trkpt>
      <trkpt lat="43.75693" lon="7.37408">
        <ele>475</ele>
        <time>2013-11-02T11:22:30Z</time>
      </trkpt>
      <trkpt lat="43.75686" lon="7.37423">
        <ele>478</ele>
        <time>2013-11-02T11:22:35Z</time>
      </trkpt>
      <trkpt lat="43.7568" lon="7.37441">
        <ele>478</ele>
        <time>2013-11-02T11:22:40Z</time>
      </trkpt>
      <trkpt lat="43.75671" lon="7.37465">
        <ele>479</ele>
        <time>2013-11-02T11:22:45Z</time>
      </trkpt>
      <trkpt lat="43.75665" lon="7.37489">
        <ele>478</ele>
        <time>2013-11-02T11:22:50Z</time>
      </trkpt>
      <trkpt lat="43.75658" lon="7.37513">
        <ele>479</ele>
        <time>2013-11-02T11:22:55Z</time>
      </trkpt>
      <trkpt lat="43.75651" lon="7.37535">
        <ele>480</ele>
        <time>2013-11-02T11:23:00Z</time>
      </trkpt>
      <trkpt lat="43.75644" lon="7.37549">
        <ele>480</ele>
        <time>2013-11-02T11:23:05Z</time>
      </trkpt>
      <trkpt lat="43.75639" lon="7.37558">
        <ele>480</ele>
        <time>2013-11-02T11:23:10Z</time>
      </trkpt>
      <trkpt lat="43.75645" lon="7.37555">
        <ele>480</ele>
        <time>2013-11-02T11:23:43Z</time>
      </trkpt>
      <trkpt lat="43.75639" lon="7.37565">
        <ele>480</ele>
        <time>2013-11-02T11:24:07Z</time>
      </trkpt>
      <trkpt lat="43.75639" lon="7.37571">
        <ele>480</ele>
        <time>2013-11-02T11:24:12Z</time>
      </trkpt>
      <trkpt lat="43.75642" lon="7.37582">
        <ele>479</ele>
        <time>2013-11-02T11:24:28Z</time>
      </trkpt>
      <trkpt lat="43.75645" lon="7.37593">
        <ele>478</ele>
        <time>2013-11-02T11:24:33Z</time>
      </trkpt>
      <trkpt lat="43.75649" lon="7.37606">
        <ele>478</ele>
        <time>2013-11-02T11:24:38Z</time>
      </trkpt>
      <trkpt lat="43.75652" lon="7.37613">
        <ele>479</ele>
        <time>2013-11-02T11:24:43Z</time>
      </trkpt>
      <trkpt lat="43.75656" lon="7.37618">
        <ele>479</ele>
        <time>2013-11-02T11:24:48Z</time>
      </trkpt>
      <trkpt lat="43.7566" lon="7.37629">
        <ele>479</ele>
        <time>2013-11-02T11:25:00Z</time>
      </trkpt>
      <trkpt lat="43.75667" lon="7.37635">
        <ele>484</ele>
        <time>2013-11-02T11:25:05Z</time>
      </trkpt>
      <trkpt lat="43.7567" lon="7.37644">
        <ele>484</ele>
        <time>2013-11-02T11:25:10Z</time>
      </trkpt>
      <trkpt lat="43.75668" lon="7.37653">
        <ele>484</ele>
        <time>2013-11-02T11:25:15Z</time>
      </trkpt>
      <trkpt lat="43.75662" lon="7.37661">
        <ele>482</ele>
        <time>2013-11-02T11:25:20Z</time>
      </trkpt>
      <trkpt lat="43.75655" lon="7.37667">
        <ele>481</ele>
        <time>2013-11-02T11:25:25Z</time>
      </trkpt>
      <trkpt lat="43.75652" lon="7.37673">
        <ele>480</ele>
        <time>2013-11-02T11:25:32Z</time>
      </trkpt>
      <trkpt lat="43.75649" lon="7.37682">
        <ele>479</ele>
        <time>2013-11-02T11:25:37Z</time>
      </trkpt>
      <trkpt lat="43.75649" lon="7.37693">
        <ele>478</ele>
        <time>2013-11-02T11:25:42Z</time>
      </trkpt>
      <trkpt lat="43.75649" lon="7.37707">
        <ele>478</ele>
        <time>2013-11-02T11:25:47Z</time>
      </trkpt>
      <trkpt lat="43.75649" lon="7.37719">
        <ele>478</ele>
        <time>2013-11-02T11:25:52Z</time>
      </trkpt>
      <trkpt lat="43.75651" lon="7.37728">
        <ele>478</ele>
        <time>2013-11-02T11:25:57Z</time>
      </trkpt>
      <trkpt lat="43.7565" lon="7.37734">
        <ele>478</ele>
        <time>2013-11-02T11:26:02Z</time>
      </trkpt>
      <trkpt lat="43.75658" lon="7.37732">
        <ele>479</ele>
        <time>2013-11-02T11:26:17Z</time>
      </trkpt>
      <trkpt lat="43.75665" lon="7.37738">
        <ele>481</ele>
        <time>2013-11-02T11:26:22Z</time>
      </trkpt>
      <trkpt lat="43.75672" lon="7.37745">
        <ele>485</ele>
        <time>2013-11-02T11:26:27Z</time>
      </trkpt>
      <trkpt lat="43.7568" lon="7.37751">
        <ele>484</ele>
        <time>2013-11-02T11:26:32Z</time>
      </trkpt>
      <trkpt lat="43.75689" lon="7.37755">
        <ele>484</ele>
        <time>2013-11-02T11:26:37Z</time>
      </trkpt>
      <trkpt lat="43.75697" lon="7.37761">
        <ele>484</ele>
        <time>2013-11-02T11:26:42Z</time>
      </trkpt>
      <trkpt lat="43.757" lon="7.37773">
        <ele>484</ele>
        <time>2013-11-02T11:26:47Z</time>
      </trkpt>
      <trkpt lat="43.75706" lon="7.37785">
        <ele>484</ele>
        <time>2013-11-02T11:26:52Z</time>
      </trkpt>
      <trkpt lat="43.75713" lon="7.37792">
        <ele>483</ele>
        <time>2013-11-02T11:26:57Z</time>
      </trkpt>
      <trkpt lat="43.75723" lon="7.37797">
        <ele>484</ele>
        <time>2013-11-02T11:27:02Z</time>
      </trkpt>
      <trkpt lat="43.75734" lon="7.37797">
        <ele>484</ele>
        <time>2013-11-02T11:27:07Z</time>
      </trkpt>
      <trkpt lat="43.75743" lon="7.37794">
        <ele>484</ele>
        <time>2013-11-02T11:27:12Z</time>
      </trkpt>
      <trkpt lat="43.7575" lon="7.37792">
        <ele>485</ele>
        <time>2013-11-02T11:27:17Z</time>
      </trkpt>
      <trkpt lat="43.75757" lon="7.37786">
        <ele>490</ele>
        <time>2013-11-02T11:27:22Z</time>
      </trkpt>
      <trkpt lat="43.75763" lon="7.37786">
        <ele>490</ele>
        <time>2013-11-02T11:27:27Z</time>
      </trkpt>
      <trkpt lat="43.75769" lon="7.37785">
        <ele>490</ele>
        <time>2013-11-02T11:27:32Z</time>
      </trkpt>
      <trkpt lat="43.75775" lon="7.37783">
        <ele>491</ele>
        <time>2013-11-02T11:27:37Z</time>
      </trkpt>
      <trkpt lat="43.75781" lon="7.37784">
        <ele>491</ele>
        <time>2013-11-02T11:27:42Z</time>
      </trkpt>
      <trkpt lat="43.75789" lon="7.37784">
        <ele>491</ele>
        <time>2013-11-02T11:27:47Z</time>
      </trkpt>
      <trkpt lat="43.75795" lon="7.37787">
        <ele>491</ele>
        <time>2013-11-02T11:27:52Z</time>
      </trkpt>
      <trkpt lat="43.75801" lon="7.37784">
        <ele>492</ele>
        <time>2013-11-02T11:28:14Z</time>
      </trkpt>
      <trkpt lat="43.75812" lon="7.37782">
        <ele>493</ele>
        <time>2013-11-02T11:28:36Z</time>
      </trkpt>
      <trkpt lat="43.75821" lon="7.37785">
        <ele>493</ele>
        <time>2013-11-02T11:28:41Z</time>
      </trkpt>
      <trkpt lat="43.75828" lon="7.37775">
        <ele>494</ele>
        <time>2013-11-02T11:28:46Z</time>
      </trkpt>
      <trkpt lat="43.75834" lon="7.37766">
        <ele>500</ele>
        <time>2013-11-02T11:28:51Z</time>
      </trkpt>
      <trkpt lat="43.75843" lon="7.37768">
        <ele>500</ele>
        <time>2013-11-02T11:28:56Z</time>
      </trkpt>
      <trkpt lat="43.75853" lon="7.37771">
        <ele>500</ele>
        <time>2013-11-02T11:29:01Z</time>
      </trkpt>
      <trkpt lat="43.75864" lon="7.37774">
        <ele>500</ele>
        <time>2013-11-02T11:29:06Z</time>
      </trkpt>
      <trkpt lat="43.75874" lon="7.37782">
        <ele>500</ele>
        <time>2013-11-02T11:29:11Z</time>
      </trkpt>
      <trkpt lat="43.75882" lon="7.3779">
        <ele>500</ele>
        <time>2013-11-02T11:29:16Z</time>
      </trkpt>
      <trkpt lat="43.75892" lon="7.37801">
        <ele>500</ele>
        <time>2013-11-02T11:29:21Z</time>
      </trkpt>
      <trkpt lat="43.75903" lon="7.37808">
        <ele>500</ele>
        <time>2013-11-02T11:29:26Z</time>
      </trkpt>
      <trkpt lat="43.75914" lon="7.37818">
        <ele>499</ele>
        <time>2013-11-02T11:29:31Z</time>
      </trkpt>
      <trkpt lat="43.75927" lon="7.37825">
        <ele>502</ele>
        <time>2013-11-02T11:29:36Z</time>
      </trkpt>
      <trkpt lat="43.75939" lon="7.37829">
        <ele>503</ele>
        <time>2013-11-02T11:29:41Z</time>
      </trkpt>
      <trkpt lat="43.75951" lon="7.37835">
        <ele>498</ele>
        <time>2013-11-02T11:29:46Z</time>
      </trkpt>
      <trkpt lat="43.75962" lon="7.37841">
        <ele>499</ele>
        <time>2013-11-02T11:29:51Z</time>
      </trkpt>
      <trkpt lat="43.75969" lon="7.37844">
        <ele>499</ele>
        <time>2013-11-02T11:29:56Z</time>
      </trkpt>
      <trkpt lat="43.75973" lon="7.37834">
        <ele>500</ele>
        <time>2013-11-02T11:30:20Z</time>
      </trkpt>
      <trkpt lat="43.75979" lon="7.37823">
        <ele>506</ele>
        <time>2013-11-02T11:30:25Z</time>
      </trkpt>
      <trkpt lat="43.75986" lon="7.37819">
        <ele>506</ele>
        <time>2013-11-02T11:30:34Z</time>
      </trkpt>
      <trkpt lat="43.75979" lon="7.37826">
        <ele>506</ele>
        <time>2013-11-02T11:30:48Z</time>
      </trkpt>
      <trkpt lat="43.75975" lon="7.37837">
        <ele>500</ele>
        <time>2013-11-02T11:30:53Z</time>
      </trkpt>
      <trkpt lat="43.75972" lon="7.37845">
        <ele>500</ele>
        <time>2013-11-02T11:32:05Z</time>
      </trkpt>
      <trkpt lat="43.75974" lon="7.37853">
        <ele>499</ele>
        <time>2013-11-02T11:32:45Z</time>
      </trkpt>
      <trkpt lat="43.75978" lon="7.37864">
        <ele>499</ele>
        <time>2013-11-02T11:32:50Z</time>
      </trkpt>
      <trkpt lat="43.75982" lon="7.37875">
        <ele>498</ele>
        <time>2013-11-02T11:32:55Z</time>
      </trkpt>
      <trkpt lat="43.75988" lon="7.37888">
        <ele>498</ele>
        <time>2013-11-02T11:33:00Z</time>
      </trkpt>
      <trkpt lat="43.75991" lon="7.37903">
        <ele>499</ele>
        <time>2013-11-02T11:33:05Z</time>
      </trkpt>
      <trkpt lat="43.7599" lon="7.37914">
        <ele>500</ele>
        <time>2013-11-02T11:34:00Z</time>
      </trkpt>
      <trkpt lat="43.75987" lon="7.37901">
        <ele>498</ele>
        <time>2013-11-02T11:34:28Z</time>
      </trkpt>
      <trkpt lat="43.75983" lon="7.37887">
        <ele>498</ele>
        <time>2013-11-02T11:34:33Z</time>
      </trkpt>
      <trkpt lat="43.7598" lon="7.37873">
        <ele>498</ele>
        <time>2013-11-02T11:34:38Z</time>
      </trkpt>
      <trkpt lat="43.75975" lon="7.37861">
        <ele>499</ele>
        <time>2013-11-02T11:34:43Z</time>
      </trkpt>
      <trkpt lat="43.75972" lon="7.37851">
        <ele>499</ele>
        <time>2013-11-02T11:34:48Z</time>
      </trkpt>
      <trkpt lat="43.75973" lon="7.37843">
        <ele>500</ele>
        <time>2013-11-02T11:34:53Z</time>
      </trkpt>
      <trkpt lat="43.75974" lon="7.37835">
        <ele>500</ele>
        <time>2013-11-02T11:34:58Z</time>
      </trkpt>
      <trkpt lat="43.7598" lon="7.37825">
        <ele>506</ele>
        <time>2013-11-02T11:35:03Z</time>
      </trkpt>
      <trkpt lat="43.75984" lon="7.37818">
        <ele>506</ele>
        <time>2013-11-02T11:35:08Z</time>
      </trkpt>
      <trkpt lat="43.75989" lon="7.37802">
        <ele>506</ele>
        <time>2013-11-02T11:35:13Z</time>
      </trkpt>
      <trkpt lat="43.75993" lon="7.37781">
        <ele>505</ele>
        <time>2013-11-02T11:35:18Z</time>
      </trkpt>
      <trkpt lat="43.75996" lon="7.37774">
        <ele>505</ele>
        <time>2013-11-02T11:35:23Z</time>
      </trkpt>
      <trkpt lat="43.76002" lon="7.37782">
        <ele>507</ele>
        <time>2013-11-02T11:36:01Z</time>
      </trkpt>
      <trkpt lat="43.76005" lon="7.37792">
        <ele>508</ele>
        <time>2013-11-02T11:36:06Z</time>
      </trkpt>
      <trkpt lat="43.76011" lon="7.37801">
        <ele>508</ele>
        <time>2013-11-02T11:36:11Z</time>
      </trkpt>
      <trkpt lat="43.76018" lon="7.37808">
        <ele>508</ele>
        <time>2013-11-02T11:36:16Z</time>
      </trkpt>
      <trkpt lat="43.76022" lon="7.37818">
        <ele>508</ele>
        <time>2013-11-02T11:36:21Z</time>
      </trkpt>
      <trkpt lat="43.76022" lon="7.37828">
        <ele>508</ele>
        <time>2013-11-02T11:36:26Z</time>
      </trkpt>
      <trkpt lat="43.76019" lon="7.37838">
        <ele>510</ele>
        <time>2013-11-02T11:36:31Z</time>
      </trkpt>
      <trkpt lat="43.76018" lon="7.3785">
        <ele>511</ele>
        <time>2013-11-02T11:36:36Z</time>
      </trkpt>
      <trkpt lat="43.76021" lon="7.3786">
        <ele>511</ele>
        <time>2013-11-02T11:36:41Z</time>
      </trkpt>
      <trkpt lat="43.76025" lon="7.37866">
        <ele>512</ele>
        <time>2013-11-02T11:36:49Z</time>
      </trkpt>
      <trkpt lat="43.76032" lon="7.37872">
        <ele>512</ele>
        <time>2013-11-02T11:37:09Z</time>
      </trkpt>
      <trkpt lat="43.76039" lon="7.37874">
        <ele>513</ele>
        <time>2013-11-02T11:37:31Z</time>
      </trkpt>
      <trkpt lat="43.76044" lon="7.37879">
        <ele>514</ele>
        <time>2013-11-02T11:37:42Z</time>
      </trkpt>
      <trkpt lat="43.76046" lon="7.37887">
        <ele>514</ele>
        <time>2013-11-02T11:37:47Z</time>
      </trkpt>
      <trkpt lat="43.76048" lon="7.379">
        <ele>515</ele>
        <time>2013-11-02T11:37:52Z</time>
      </trkpt>
      <trkpt lat="43.76049" lon="7.37914">
        <ele>515</ele>
        <time>2013-11-02T11:37:57Z</time>
      </trkpt>
      <trkpt lat="43.7605" lon="7.37925">
        <ele>517</ele>
        <time>2013-11-02T11:38:02Z</time>
      </trkpt>
      <trkpt lat="43.76053" lon="7.37937">
        <ele>517</ele>
        <time>2013-11-02T11:38:07Z</time>
      </trkpt>
      <trkpt lat="43.76054" lon="7.37949">
        <ele>517</ele>
        <time>2013-11-02T11:38:12Z</time>
      </trkpt>
      <trkpt lat="43.76056" lon="7.37962">
        <ele>518</ele>
        <time>2013-11-02T11:38:17Z</time>
      </trkpt>
      <trkpt lat="43.76057" lon="7.37974">
        <ele>518</ele>
        <time>2013-11-02T11:38:22Z</time>
      </trkpt>
      <trkpt lat="43.76057" lon="7.37986">
        <ele>519</ele>
        <time>2013-11-02T11:38:27Z</time>
      </trkpt>
      <trkpt lat="43.76058" lon="7.37997">
        <ele>520</ele>
        <time>2013-11-02T11:38:32Z</time>
      </trkpt>
      <trkpt lat="43.76059" lon="7.3801">
        <ele>520</ele>
        <time>2013-11-02T11:38:37Z</time>
      </trkpt>
      <trkpt lat="43.7606" lon="7.38022">
        <ele>519</ele>
        <time>2013-11-02T11:38:42Z</time>
      </trkpt>
      <trkpt lat="43.76061" lon="7.38033">
        <ele>518</ele>
        <time>2013-11-02T11:38:47Z</time>
      </trkpt>
      <trkpt lat="43.76061" lon="7.38045">
        <ele>518</ele>
        <time>2013-11-02T11:38:52Z</time>
      </trkpt>
      <trkpt lat="43.76062" lon="7.38057">
        <ele>519</ele>
        <time>2013-11-02T11:38:57Z</time>
      </trkpt>
      <trkpt lat="43.76065" lon="7.38065">
        <ele>520</ele>
        <time>2013-11-02T11:39:02Z</time>
      </trkpt>
      <trkpt lat="43.76073" lon="7.38079">
        <ele>525</ele>
        <time>2013-11-02T11:39:07Z</time>
      </trkpt>
      <trkpt lat="43.76076" lon="7.38094">
        <ele>523</ele>
        <time>2013-11-02T11:39:12Z</time>
      </trkpt>
      <trkpt lat="43.76078" lon="7.38113">
        <ele>517</ele>
        <time>2013-11-02T11:39:17Z</time>
      </trkpt>
      <trkpt lat="43.76081" lon="7.3813">
        <ele>516</ele>
        <time>2013-11-02T11:39:22Z</time>
      </trkpt>
      <trkpt lat="43.76087" lon="7.38145">
        <ele>537</ele>
        <time>2013-11-02T11:39:27Z</time>
      </trkpt>
      <trkpt lat="43.76092" lon="7.38158">
        <ele>534</ele>
        <time>2013-11-02T11:39:32Z</time>
      </trkpt>
      <trkpt lat="43.76095" lon="7.38171">
        <ele>533</ele>
        <time>2013-11-02T11:39:37Z</time>
      </trkpt>
      <trkpt lat="43.76099" lon="7.38184">
        <ele>535</ele>
        <time>2013-11-02T11:39:42Z</time>
      </trkpt>
      <trkpt lat="43.76103" lon="7.38196">
        <ele>537</ele>
        <time>2013-11-02T11:39:47Z</time>
      </trkpt>
      <trkpt lat="43.76107" lon="7.38207">
        <ele>537</ele>
        <time>2013-11-02T11:39:52Z</time>
      </trkpt>
      <trkpt lat="43.7611" lon="7.38223">
        <ele>536</ele>
        <time>2013-11-02T11:39:57Z</time>
      </trkpt>
      <trkpt lat="43.76114" lon="7.38236">
        <ele>536</ele>
        <time>2013-11-02T11:40:02Z</time>
      </trkpt>
      <trkpt lat="43.76117" lon="7.38247">
        <ele>537</ele>
        <time>2013-11-02T11:40:07Z</time>
      </trkpt>
      <trkpt lat="43.7612" lon="7.38259">
        <ele>535</ele>
        <time>2013-11-02T11:40:12Z</time>
      </trkpt>
      <trkpt lat="43.76123" lon="7.38271">
        <ele>536</ele>
        <time>2013-11-02T11:40:17Z</time>
      </trkpt>
      <trkpt lat="43.76125" lon="7.38285">
        <ele>536</ele>
        <time>2013-11-02T11:40:22Z</time>
      </trkpt>
      <trkpt lat="43.76126" lon="7.38299">
        <ele>537</ele>
        <time>2013-11-02T11:40:27Z</time>
      </trkpt>
      <trkpt lat="43.76127" lon="7.38312">
        <ele>537</ele>
        <time>2013-11-02T11:40:32Z</time>
      </trkpt>
      <trkpt lat="43.76129" lon="7.38325">
        <ele>538</ele>
        <time>2013-11-02T11:40:37Z</time>
      </trkpt>
      <trkpt lat="43.76132" lon="7.38336">
        <ele>536</ele>
        <time>2013-11-02T11:40:42Z</time>
      </trkpt>
      <trkpt lat="43.76136" lon="7.38346">
        <ele>537</ele>
        <time>2013-11-02T11:40:47Z</time>
      </trkpt>
      <trkpt lat="43.7614" lon="7.38357">
        <ele>537</ele>
        <time>2013-11-02T11:40:52Z</time>
      </trkpt>
      <trkpt lat="43.76143" lon="7.3837">
        <ele>536</ele>
        <time>2013-11-02T11:40:57Z</time>
      </trkpt>
      <trkpt lat="43.76145" lon="7.38383">
        <ele>536</ele>
        <time>2013-11-02T11:41:02Z</time>
      </trkpt>
      <trkpt lat="43.76148" lon="7.38395">
        <ele>538</ele>
        <time>2013-11-02T11:41:07Z</time>
      </trkpt>
      <trkpt lat="43.76153" lon="7.38407">
        <ele>542</ele>
        <time>2013-11-02T11:41:12Z</time>
      </trkpt>
      <trkpt lat="43.76157" lon="7.3842">
        <ele>541</ele>
        <time>2013-11-02T11:41:17Z</time>
      </trkpt>
      <trkpt lat="43.76159" lon="7.38432">
        <ele>537</ele>
        <time>2013-11-02T11:41:22Z</time>
      </trkpt>
      <trkpt lat="43.76165" lon="7.38442">
        <ele>533</ele>
        <time>2013-11-02T11:41:27Z</time>
      </trkpt>
      <trkpt lat="43.76169" lon="7.38452">
        <ele>558</ele>
        <time>2013-11-02T11:41:32Z</time>
      </trkpt>
      <trkpt lat="43.76173" lon="7.38462">
        <ele>557</ele>
        <time>2013-11-02T11:41:37Z</time>
      </trkpt>
      <trkpt lat="43.76177" lon="7.38473">
        <ele>555</ele>
        <time>2013-11-02T11:41:42Z</time>
      </trkpt>
      <trkpt lat="43.76181" lon="7.38482">
        <ele>554</ele>
        <time>2013-11-02T11:41:47Z</time>
      </trkpt>
      <trkpt lat="43.76184" lon="7.38493">
        <ele>552</ele>
        <time>2013-11-02T11:41:52Z</time>
      </trkpt>
      <trkpt lat="43.76188" lon="7.38505">
        <ele>546</ele>
        <time>2013-11-02T11:41:57Z</time>
      </trkpt>
      <trkpt lat="43.76192" lon="7.38516">
        <ele>548</ele>
        <time>2013-11-02T11:42:02Z</time>
      </trkpt>
      <trkpt lat="43.76197" lon="7.38525">
        <ele>548</ele>
        <time>2013-11-02T11:42:07Z</time>
      </trkpt>
      <trkpt lat="43.76202" lon="7.38537">
        <ele>549</ele>
        <time>2013-11-02T11:42:12Z</time>
      </trkpt>
      <trkpt lat="43.76206" lon="7.38546">
        <ele>549</ele>
        <time>2013-11-02T11:42:17Z</time>
      </trkpt>
      <trkpt lat="43.7621" lon="7.38554">
        <ele>549</ele>
        <time>2013-11-02T11:42:22Z</time>
      </trkpt>
      <trkpt lat="43.76216" lon="7.38565">
        <ele>550</ele>
        <time>2013-11-02T11:42:27Z</time>
      </trkpt>
      <trkpt lat="43.76221" lon="7.38575">
        <ele>551</ele>
        <time>2013-11-02T11:42:32Z</time>
      </trkpt>
      <trkpt lat="43.76226" lon="7.38585">
        <ele>544</ele>
        <time>2013-11-02T11:42:37Z</time>
      </trkpt>
      <trkpt lat="43.76231" lon="7.386">
        <ele>544</ele>
        <time>2013-11-02T11:42:42Z</time>
      </trkpt>
      <trkpt lat="43.76236" lon="7.38611">
        <ele>542</ele>
        <time>2013-11-02T11:42:47Z</time>
      </trkpt>
      <trkpt lat="43.76242" lon="7.38619">
        <ele>542</ele>
        <time>2013-11-02T11:42:52Z</time>
      </trkpt>
      <trkpt lat="43.76248" lon="7.3863">
        <ele>541</ele>
        <time>2013-11-02T11:42:57Z</time>
      </trkpt>
      <trkpt lat="43.76255" lon="7.38639">
        <ele>555</ele>
        <time>2013-11-02T11:43:02Z</time>
      </trkpt>
      <trkpt lat="43.76263" lon="7.38646">
        <ele>554</ele>
        <time>2013-11-02T11:43:07Z</time>
      </trkpt>
      <trkpt lat="43.7627" lon="7.38653">
        <ele>554</ele>
        <time>2013-11-02T11:43:12Z</time>
      </trkpt>
      <trkpt lat="43.7628" lon="7.38666">
        <ele>555</ele>
        <time>2013-11-02T11:43:17Z</time>
      </trkpt>
      <trkpt lat="43.76286" lon="7.38687">
        <ele>548</ele>
        <time>2013-11-02T11:43:22Z</time>
      </trkpt>
      <trkpt lat="43.76288" lon="7.3871">
        <ele>547</ele>
        <time>2013-11-02T11:43:27Z</time>
      </trkpt>
      <trkpt lat="43.76289" lon="7.38721">
        <ele>546</ele>
        <time>2013-11-02T11:43:32Z</time>
      </trkpt>
      <trkpt lat="43.76291" lon="7.38734">
        <ele>546</ele>
        <time>2013-11-02T11:43:37Z</time>
      </trkpt>
      <trkpt lat="43.76292" lon="7.3875">
        <ele>539</ele>
        <time>2013-11-02T11:43:42Z</time>
      </trkpt>
      <trkpt lat="43.76295" lon="7.3876">
        <ele>539</ele>
        <time>2013-11-02T11:43:47Z</time>
      </trkpt>
      <trkpt lat="43.76301" lon="7.38766">
        <ele>540</ele>
        <time>2013-11-02T11:43:52Z</time>
      </trkpt>
      <trkpt lat="43.76295" lon="7.38761">
        <ele>539</ele>
        <time>2013-11-02T11:44:02Z</time>
      </trkpt>
      <trkpt lat="43.76292" lon="7.38753">
        <ele>539</ele>
        <time>2013-11-02T11:44:07Z</time>
      </trkpt>
      <trkpt lat="43.76292" lon="7.38743">
        <ele>545</ele>
        <time>2013-11-02T11:44:12Z</time>
      </trkpt>
      <trkpt lat="43.76288" lon="7.38738">
        <ele>545</ele>
        <time>2013-11-02T11:44:17Z</time>
      </trkpt>
      <trkpt lat="43.76292" lon="7.38749">
        <ele>545</ele>
        <time>2013-11-02T11:44:27Z</time>
      </trkpt>
      <trkpt lat="43.76299" lon="7.3876">
        <ele>540</ele>
        <time>2013-11-02T11:44:37Z</time>
      </trkpt>
      <trkpt lat="43.76306" lon="7.3876">
        <ele>541</ele>
        <time>2013-11-02T11:44:42Z</time>
      </trkpt>
      <trkpt lat="43.76317" lon="7.38754">
        <ele>544</ele>
        <time>2013-11-02T11:44:47Z</time>
      </trkpt>
      <trkpt lat="43.76339" lon="7.38749">
        <ele>552</ele>
        <time>2013-11-02T11:44:52Z</time>
      </trkpt>
      <trkpt lat="43.76361" lon="7.38761">
        <ele>550</ele>
        <time>2013-11-02T11:44:57Z</time>
      </trkpt>
      <trkpt lat="43.7637" lon="7.38789">
        <ele>550</ele>
        <time>2013-11-02T11:45:02Z</time>
      </trkpt>
      <trkpt lat="43.76373" lon="7.3882">
        <ele>549</ele>
        <time>2013-11-02T11:45:07Z</time>
      </trkpt>
      <trkpt lat="43.76377" lon="7.38855">
        <ele>543</ele>
        <time>2013-11-02T11:45:12Z</time>
      </trkpt>
      <trkpt lat="43.76393" lon="7.38891">
        <ele>543</ele>
        <time>2013-11-02T11:45:17Z</time>
      </trkpt>
      <trkpt lat="43.76397" lon="7.38928">
        <ele>538</ele>
        <time>2013-11-02T11:45:22Z</time>
      </trkpt>
      <trkpt lat="43.76408" lon="7.38948">
        <ele>536</ele>
        <time>2013-11-02T11:45:27Z</time>
      </trkpt>
      <trkpt lat="43.76429" lon="7.38956">
        <ele>545</ele>
        <time>2013-11-02T11:45:32Z</time>
      </trkpt>
      <trkpt lat="43.76449" lon="7.38964">
        <ele>546</ele>
        <time>2013-11-02T11:45:37Z</time>
      </trkpt>
      <trkpt lat="43.76467" lon="7.38981">
        <ele>548</ele>
        <time>2013-11-02T11:45:42Z</time>
      </trkpt>
      <trkpt lat="43.7648" lon="7.39004">
        <ele>544</ele>
        <time>2013-11-02T11:45:47Z</time>
      </trkpt>
      <trkpt lat="43.76488" lon="7.39038">
        <ele>539</ele>
        <time>2013-11-02T11:45:52Z</time>
      </trkpt>
      <trkpt lat="43.76494" lon="7.3907">
        <ele>537</ele>
        <time>2013-11-02T11:45:57Z</time>
      </trkpt>
      <trkpt lat="43.76508" lon="7.39106">
        <ele>544</ele>
        <time>2013-11-02T11:46:02Z</time>
      </trkpt>
      <trkpt lat="43.7652" lon="7.39152">
        <ele>543</ele>
        <time>2013-11-02T11:46:07Z</time>
      </trkpt>
      <trkpt lat="43.76526" lon="7.39188">
        <ele>540</ele>
        <time>2013-11-02T11:46:12Z</time>
      </trkpt>
      <trkpt lat="43.76531" lon="7.39224">
        <ele>540</ele>
        <time>2013-11-02T11:46:17Z</time>
      </trkpt>
      <trkpt lat="43.76548" lon="7.3925">
        <ele>541</ele>
        <time>2013-11-02T11:46:22Z</time>
      </trkpt>
      <trkpt lat="43.76566" lon="7.39272">
        <ele>536</ele>
        <time>2013-11-02T11:46:27Z</time>
      </trkpt>
      <trkpt lat="43.76585" lon="7.39288">
        <ele>541</ele>
        <time>2013-11-02T11:46:32Z</time>
      </trkpt>
      <trkpt lat="43.76605" lon="7.39294">
        <ele>541</ele>
        <time>2013-11-02T11:46:37Z</time>
      </trkpt>
      <trkpt lat="43.76618" lon="7.39318">
        <ele>540</ele>
        <time>2013-11-02T11:46:42Z</time>
      </trkpt>
      <trkpt lat="43.76624" lon="7.39349">
        <ele>536</ele>
        <time>2013-11-02T11:46:47Z</time>
      </trkpt>
      <trkpt lat="43.76624" lon="7.39376">
        <ele>535</ele>
        <time>2013-11-02T11:46:52Z</time>
      </trkpt>
      <trkpt lat="43.76628" lon="7.39408">
        <ele>534</ele>
        <time>2013-11-02T11:46:57Z</time>
      </trkpt>
      <trkpt lat="43.76641" lon="7.39441">
        <ele>533</ele>
        <time>2013-11-02T11:47:02Z</time>
      </trkpt>
      <trkpt lat="43.76652" lon="7.39465">
        <ele>533</ele>
        <time>2013-11-02T11:47:07Z</time>
      </trkpt>
      <trkpt lat="43.76654" lon="7.39491">
        <ele>536</ele>
        <time>2013-11-02T11:47:12Z</time>
      </trkpt>
      <trkpt lat="43.76656" lon="7.39514">
        <ele>536</ele>
        <time>2013-11-02T11:47:17Z</time>
      </trkpt>
      <trkpt lat="43.7666" lon="7.39532">
        <ele>535</ele>
        <time>2013-11-02T11:47:22Z</time>
      </trkpt>
      <trkpt lat="43.76662" lon="7.39551">
        <ele>536</ele>
        <time>2013-11-02T11:47:27Z</time>
      </trkpt>
      <trkpt lat="43.76661" lon="7.3957">
        <ele>539</ele>
        <time>2013-11-02T11:47:32Z</time>
      </trkpt>
      <trkpt lat="43.76668" lon="7.39569">
        <ele>546</ele>
        <time>2013-11-02T11:47:37Z</time>
      </trkpt>
      <trkpt lat="43.76677" lon="7.39561">
        <ele>547</ele>
        <time>2013-11-02T11:47:42Z</time>
      </trkpt>
      <trkpt lat="43.76691" lon="7.39559">
        <ele>548</ele>
        <time>2013-11-02T11:47:47Z</time>
      </trkpt>
      <trkpt lat="43.76707" lon="7.39553">
        <ele>549</ele>
        <time>2013-11-02T11:47:52Z</time>
      </trkpt>
      <trkpt lat="43.76723" lon="7.39547">
        <ele>549</ele>
        <time>2013-11-02T11:47:57Z</time>
      </trkpt>
      <trkpt lat="43.76739" lon="7.39541">
        <ele>550</ele>
        <time>2013-11-02T11:48:02Z</time>
      </trkpt>
      <trkpt lat="43.76756" lon="7.39537">
        <ele>554</ele>
        <time>2013-11-02T11:48:07Z</time>
      </trkpt>
      <trkpt lat="43.76772" lon="7.39537">
        <ele>555</ele>
        <time>2013-11-02T11:48:12Z</time>
      </trkpt>
      <trkpt lat="43.76788" lon="7.39538">
        <ele>555</ele>
        <time>2013-11-02T11:48:17Z</time>
      </trkpt>
      <trkpt lat="43.76799" lon="7.3954">
        <ele>555</ele>
        <time>2013-11-02T11:48:22Z</time>
      </trkpt>
      <trkpt lat="43.76808" lon="7.39541">
        <ele>556</ele>
        <time>2013-11-02T11:48:27Z</time>
      </trkpt>
      <trkpt lat="43.76818" lon="7.39543">
        <ele>556</ele>
        <time>2013-11-02T11:48:32Z</time>
      </trkpt>
      <trkpt lat="43.76824" lon="7.39546">
        <ele>556</ele>
        <time>2013-11-02T11:48:37Z</time>
      </trkpt>
      <trkpt lat="43.76828" lon="7.3955">
        <ele>556</ele>
        <time>2013-11-02T11:48:42Z</time>
      </trkpt>
      <trkpt lat="43.76838" lon="7.39553">
        <ele>558</ele>
        <time>2013-11-02T11:48:47Z</time>
      </trkpt>
      <trkpt lat="43.76849" lon="7.39558">
        <ele>558</ele>
        <time>2013-11-02T11:48:52Z</time>
      </trkpt>
      <trkpt lat="43.7686" lon="7.3956">
        <ele>558</ele>
        <time>2013-11-02T11:48:57Z</time>
      </trkpt>
      <trkpt lat="43.76872" lon="7.39558">
        <ele>557</ele>
        <time>2013-11-02T11:49:02Z</time>
      </trkpt>
      <trkpt lat="43.76881" lon="7.39556">
        <ele>557</ele>
        <time>2013-11-02T11:49:07Z</time>
      </trkpt>
      <trkpt lat="43.76893" lon="7.39561">
        <ele>558</ele>
        <time>2013-11-02T11:49:12Z</time>
      </trkpt>
      <trkpt lat="43.76903" lon="7.39572">
        <ele>558</ele>
        <time>2013-11-02T11:49:17Z</time>
      </trkpt>
      <trkpt lat="43.76912" lon="7.39585">
        <ele>560</ele>
        <time>2013-11-02T11:49:22Z</time>
      </trkpt>
      <trkpt lat="43.76926" lon="7.39594">
        <ele>561</ele>
        <time>2013-11-02T11:49:27Z</time>
      </trkpt>
      <trkpt lat="43.7694" lon="7.39596">
        <ele>562</ele>
        <time>2013-11-02T11:49:32Z</time>
      </trkpt>
      <trkpt lat="43.76952" lon="7.39593">
        <ele>563</ele>
        <time>2013-11-02T11:49:37Z</time>
      </trkpt>
      <trkpt lat="43.76961" lon="7.39591">
        <ele>563</ele>
        <time>2013-11-02T11:49:42Z</time>
      </trkpt>
      <trkpt lat="43.76974" lon="7.3959">
        <ele>563</ele>
        <time>2013-11-02T11:49:47Z</time>
      </trkpt>
      <trkpt lat="43.76986" lon="7.39594">
        <ele>563</ele>
        <time>2013-11-02T11:49:52Z</time>
      </trkpt>
      <trkpt lat="43.77" lon="7.39602">
        <ele>563</ele>
        <time>2013-11-02T11:49:57Z</time>
      </trkpt>
      <trkpt lat="43.77015" lon="7.39606">
        <ele>565</ele>
        <time>2013-11-02T11:50:02Z</time>
      </trkpt>
      <trkpt lat="43.77033" lon="7.39612">
        <ele>566</ele>
        <time>2013-11-02T11:50:07Z</time>
      </trkpt>
      <trkpt lat="43.77049" lon="7.39616">
        <ele>567</ele>
        <time>2013-11-02T11:50:12Z</time>
      </trkpt>
      <trkpt lat="43.77066" lon="7.39621">
        <ele>567</ele>
        <time>2013-11-02T11:50:17Z</time>
      </trkpt>
      <trkpt lat="43.77083" lon="7.39626">
        <ele>567</ele>
        <time>2013-11-02T11:50:22Z</time>
      </trkpt>
      <trkpt lat="43.771" lon="7.3963">
        <ele>569</ele>
        <time>2013-11-02T11:50:27Z</time>
      </trkpt>
      <trkpt lat="43.77116" lon="7.39638">
        <ele>570</ele>
        <time>2013-11-02T11:50:32Z</time>
      </trkpt>
      <trkpt lat="43.77124" lon="7.39658">
        <ele>571</ele>
        <time>2013-11-02T11:50:37Z</time>
      </trkpt>
      <trkpt lat="43.77131" lon="7.39677">
        <ele>578</ele>
        <time>2013-11-02T11:50:42Z</time>
      </trkpt>
      <trkpt lat="43.77148" lon="7.39681">
        <ele>578</ele>
        <time>2013-11-02T11:50:47Z</time>
      </trkpt>
      <trkpt lat="43.77167" lon="7.39681">
        <ele>579</ele>
        <time>2013-11-02T11:50:52Z</time>
      </trkpt>
      <trkpt lat="43.77185" lon="7.39669">
        <ele>580</ele>
        <time>2013-11-02T11:50:57Z</time>
      </trkpt>
      <trkpt lat="43.77202" lon="7.39666">
        <ele>572</ele>
        <time>2013-11-02T11:51:02Z</time>
      </trkpt>
      <trkpt lat="43.77219" lon="7.3968">
        <ele>582</ele>
        <time>2013-11-02T11:51:07Z</time>
      </trkpt>
      <trkpt lat="43.77234" lon="7.3969">
        <ele>582</ele>
        <time>2013-11-02T11:51:12Z</time>
      </trkpt>
      <trkpt lat="43.77252" lon="7.39688">
        <ele>585</ele>
        <time>2013-11-02T11:51:17Z</time>
      </trkpt>
      <trkpt lat="43.77266" lon="7.39678">
        <ele>585</ele>
        <time>2013-11-02T11:51:22Z</time>
      </trkpt>
      <trkpt lat="43.77281" lon="7.39667">
        <ele>587</ele>
        <time>2013-11-02T11:51:27Z</time>
      </trkpt>
      <trkpt lat="43.77297" lon="7.39659">
        <ele>578</ele>
        <time>2013-11-02T11:51:32Z</time>
      </trkpt>
      <trkpt lat="43.77315" lon="7.39652">
        <ele>580</ele>
        <time>2013-11-02T11:51:37Z</time>
      </trkpt>
      <trkpt lat="43.77333" lon="7.39651">
        <ele>582</ele>
        <time>2013-11-02T11:51:42Z</time>
      </trkpt>
      <trkpt lat="43.77352" lon="7.3965">
        <ele>584</ele>
        <time>2013-11-02T11:51:47Z</time>
      </trkpt>
      <trkpt lat="43.77371" lon="7.39654">
        <ele>584</ele>
        <time>2013-11-02T11:51:52Z</time>
      </trkpt>
      <trkpt lat="43.7739" lon="7.3966">
        <ele>584</ele>
        <time>2013-11-02T11:51:57Z</time>
      </trkpt>
      <trkpt lat="43.77408" lon="7.39667">
        <ele>591</ele>
        <time>2013-11-02T11:52:02Z</time>
      </trkpt>
      <trkpt lat="43.77424" lon="7.39665">
        <ele>588</ele>
        <time>2013-11-02T11:52:07Z</time>
      </trkpt>
      <trkpt lat="43.77431" lon="7.39659">
        <ele>588</ele>
        <time>2013-11-02T11:52:12Z</time>
      </trkpt>
      <trkpt lat="43.77438" lon="7.39654">
        <ele>589</ele>
        <time>2013-11-02T11:52:17Z</time>
      </trkpt>
      <trkpt lat="43.77447" lon="7.3965">
        <ele>589</ele>
        <time>2013-11-02T11:52:22Z</time>
      </trkpt>
      <trkpt lat="43.77452" lon="7.39645">
        <ele>589</ele>
        <time>2013-11-02T11:52:27Z</time>
      </trkpt>
      <trkpt lat="43.77462" lon="7.39641">
        <ele>590</ele>
        <time>2013-11-02T11:52:37Z</time>
      </trkpt>
      <trkpt lat="43.77467" lon="7.39639">
        <ele>590</ele>
        <time>2013-11-02T11:52:42Z</time>
      </trkpt>
      <trkpt lat="43.77473" lon="7.39637">
        <ele>590</ele>
        <time>2013-11-02T11:52:47Z</time>
      </trkpt>
      <trkpt lat="43.7748" lon="7.39636">
        <ele>591</ele>
        <time>2013-11-02T11:52:52Z</time>
      </trkpt>
      <trkpt lat="43.77487" lon="7.39635">
        <ele>591</ele>
        <time>2013-11-02T11:52:57Z</time>
      </trkpt>
      <trkpt lat="43.77495" lon="7.39634">
        <ele>591</ele>
        <time>2013-11-02T11:53:02Z</time>
      </trkpt>
      <trkpt lat="43.77502" lon="7.39636">
        <ele>596</ele>
        <time>2013-11-02T11:53:07Z</time>
      </trkpt>
      <trkpt lat="43.77509" lon="7.39635">
        <ele>596</ele>
        <time>2013-11-02T11:53:12Z</time>
      </trkpt>
      <trkpt lat="43.77516" lon="7.39632">
        <ele>596</ele>
        <time>2013-11-02T11:53:17Z</time>
      </trkpt>
      <trkpt lat="43.77523" lon="7.3963">
        <ele>596</ele>
        <time>2013-11-02T11:53:22Z</time>
      </trkpt>
      <trkpt lat="43.77531" lon="7.3963">
        <ele>596</ele>
        <time>2013-11-02T11:53:27Z</time>
      </trkpt>
      <trkpt lat="43.77539" lon="7.3963">
        <ele>596</ele>
        <time>2013-11-02T11:53:32Z</time>
      </trkpt>
      <trkpt lat="43.77548" lon="7.39635">
        <ele>597</ele>
        <time>2013-11-02T11:53:37Z</time>
      </trkpt>
      <trkpt lat="43.77556" lon="7.3964">
        <ele>597</ele>
        <time>2013-11-02T11:53:42Z</time>
      </trkpt>
      <trkpt lat="43.77567" lon="7.39644">
        <ele>598</ele>
        <time>2013-11-02T11:53:47Z</time>
      </trkpt>
      <trkpt lat="43.7758" lon="7.39646">
        <ele>599</ele>
        <time>2013-11-02T11:53:52Z</time>
      </trkpt>
      <trkpt lat="43.77593" lon="7.39651">
        <ele>599</ele>
        <time>2013-11-02T11:53:57Z</time>
      </trkpt>
      <trkpt lat="43.77607" lon="7.39655">
        <ele>599</ele>
        <time>2013-11-02T11:54:02Z</time>
      </trkpt>
      <trkpt lat="43.77621" lon="7.3966">
        <ele>598</ele>
        <time>2013-11-02T11:54:07Z</time>
      </trkpt>
      <trkpt lat="43.77635" lon="7.39664">
        <ele>598</ele>
        <time>2013-11-02T11:54:12Z</time>
      </trkpt>
      <trkpt lat="43.77648" lon="7.39667">
        <ele>604</ele>
        <time>2013-11-02T11:54:17Z</time>
      </trkpt>
      <trkpt lat="43.77663" lon="7.3967">
        <ele>601</ele>
        <time>2013-11-02T11:54:22Z</time>
      </trkpt>
      <trkpt lat="43.77676" lon="7.39674">
        <ele>602</ele>
        <time>2013-11-02T11:54:27Z</time>
      </trkpt>
      <trkpt lat="43.77687" lon="7.3968">
        <ele>604</ele>
        <time>2013-11-02T11:54:32Z</time>
      </trkpt>
      <trkpt lat="43.777" lon="7.39683">
        <ele>605</ele>
        <time>2013-11-02T11:54:37Z</time>
      </trkpt>
      <trkpt lat="43.77714" lon="7.39681">
        <ele>605</ele>
        <time>2013-11-02T11:54:42Z</time>
      </trkpt>
      <trkpt lat="43.77728" lon="7.39673">
        <ele>603</ele>
        <time>2013-11-02T11:54:47Z</time>
      </trkpt>
      <trkpt lat="43.77742" lon="7.39673">
        <ele>602</ele>
        <time>2013-11-02T11:54:52Z</time>
      </trkpt>
      <trkpt lat="43.77753" lon="7.39676">
        <ele>601</ele>
        <time>2013-11-02T11:54:57Z</time>
      </trkpt>
      <trkpt lat="43.77762" lon="7.39679">
        <ele>602</ele>
        <time>2013-11-02T11:55:02Z</time>
      </trkpt>
      <trkpt lat="43.7777" lon="7.39685">
        <ele>603</ele>
        <time>2013-11-02T11:55:07Z</time>
      </trkpt>
      <trkpt lat="43.77778" lon="7.3969">
        <ele>604</ele>
        <time>2013-11-02T11:55:12Z</time>
      </trkpt>
      <trkpt lat="43.77791" lon="7.39691">
        <ele>604</ele>
        <time>2013-11-02T11:55:17Z</time>
      </trkpt>
      <trkpt lat="43.77805" lon="7.39687">
        <ele>603</ele>
        <time>2013-11-02T11:55:22Z</time>
      </trkpt>
      <trkpt lat="43.7782" lon="7.39683">
        <ele>602</ele>
        <time>2013-11-02T11:55:27Z</time>
      </trkpt>
      <trkpt lat="43.77836" lon="7.39682">
        <ele>600</ele>
        <time>2013-11-02T11:55:32Z</time>
      </trkpt>
      <trkpt lat="43.77851" lon="7.39683">
        <ele>601</ele>
        <time>2013-11-02T11:55:37Z</time>
      </trkpt>
      <trkpt lat="43.77866" lon="7.39686">
        <ele>602</ele>
        <time>2013-11-02T11:55:42Z</time>
      </trkpt>
      <trkpt lat="43.77881" lon="7.39691">
        <ele>602</ele>
        <time>2013-11-02T11:55:47Z</time>
      </trkpt>
      <trkpt lat="43.77894" lon="7.397">
        <ele>602</ele>
        <time>2013-11-02T11:55:52Z</time>
      </trkpt>
      <trkpt lat="43.77907" lon="7.39711">
        <ele>603</ele>
        <time>2013-11-02T11:55:57Z</time>
      </trkpt>
      <trkpt lat="43.77921" lon="7.39723">
        <ele>602</ele>
        <time>2013-11-02T11:56:02Z</time>
      </trkpt>
      <trkpt lat="43.77932" lon="7.39734">
        <ele>603</ele>
        <time>2013-11-02T11:56:07Z</time>
      </trkpt>
      <trkpt lat="43.77943" lon="7.39746">
        <ele>603</ele>
        <time>2013-11-02T11:56:12Z</time>
      </trkpt>
      <trkpt lat="43.77953" lon="7.39759">
        <ele>607</ele>
        <time>2013-11-02T11:56:17Z</time>
      </trkpt>
      <trkpt lat="43.77968" lon="7.39772">
        <ele>607</ele>
        <time>2013-11-02T11:56:22Z</time>
      </trkpt>
      <trkpt lat="43.77983" lon="7.39779">
        <ele>607</ele>
        <time>2013-11-02T11:56:27Z</time>
      </trkpt>
      <trkpt lat="43.77994" lon="7.39782">
        <ele>607</ele>
        <time>2013-11-02T11:56:32Z</time>
      </trkpt>
      <trkpt lat="43.77999" lon="7.39783">
        <ele>607</ele>
        <time>2013-11-02T11:56:37Z</time>
      </trkpt>
      <trkpt lat="43.78007" lon="7.39788">
        <ele>606</ele>
        <time>2013-11-02T11:56:42Z</time>
      </trkpt>
      <trkpt lat="43.78021" lon="7.39793">
        <ele>606</ele>
        <time>2013-11-02T11:56:47Z</time>
      </trkpt>
      <trkpt lat="43.78035" lon="7.39801">
        <ele>607</ele>
        <time>2013-11-02T11:56:52Z</time>
      </trkpt>
      <trkpt lat="43.78049" lon="7.398">
        <ele>607</ele>
        <time>2013-11-02T11:56:57Z</time>
      </trkpt>
      <trkpt lat="43.78065" lon="7.39794">
        <ele>607</ele>
        <time>2013-11-02T11:57:02Z</time>
      </trkpt>
      <trkpt lat="43.78077" lon="7.39789">
        <ele>607</ele>
        <time>2013-11-02T11:57:07Z</time>
      </trkpt>
      <trkpt lat="43.7809" lon="7.39785">
        <ele>607</ele>
        <time>2013-11-02T11:57:12Z</time>
      </trkpt>
      <trkpt lat="43.78103" lon="7.39778">
        <ele>606</ele>
        <time>2013-11-02T11:57:17Z</time>
      </trkpt>
      <trkpt lat="43.78117" lon="7.3977">
        <ele>606</ele>
        <time>2013-11-02T11:57:22Z</time>
      </trkpt>
      <trkpt lat="43.78134" lon="7.39767">
        <ele>606</ele>
        <time>2013-11-02T11:57:27Z</time>
      </trkpt>
      <trkpt lat="43.78151" lon="7.39767">
        <ele>606</ele>
        <time>2013-11-02T11:57:32Z</time>
      </trkpt>
      <trkpt lat="43.78167" lon="7.39772">
        <ele>604</ele>
        <time>2013-11-02T11:57:37Z</time>
      </trkpt>
      <trkpt lat="43.78184" lon="7.39776">
        <ele>604</ele>
        <time>2013-11-02T11:57:42Z</time>
      </trkpt>
      <trkpt lat="43.782" lon="7.39777">
        <ele>603</ele>
        <time>2013-11-02T11:57:47Z</time>
      </trkpt>
      <trkpt lat="43.78212" lon="7.3978">
        <ele>603</ele>
        <time>2013-11-02T11:57:52Z</time>
      </trkpt>
      <trkpt lat="43.78221" lon="7.3978">
        <ele>602</ele>
        <time>2013-11-02T11:57:57Z</time>
      </trkpt>
      <trkpt lat="43.78227" lon="7.39782">
        <ele>602</ele>
        <time>2013-11-02T11:58:02Z</time>
      </trkpt>
      <trkpt lat="43.78236" lon="7.39778">
        <ele>601</ele>
        <time>2013-11-02T11:58:37Z</time>
      </trkpt>
      <trkpt lat="43.7825" lon="7.39781">
        <ele>601</ele>
        <time>2013-11-02T11:58:42Z</time>
      </trkpt>
      <trkpt lat="43.78267" lon="7.39789">
        <ele>590</ele>
        <time>2013-11-02T11:58:47Z</time>
      </trkpt>
      <trkpt lat="43.78282" lon="7.39799">
        <ele>589</ele>
        <time>2013-11-02T11:58:52Z</time>
      </trkpt>
      <trkpt lat="43.78296" lon="7.3981">
        <ele>588</ele>
        <time>2013-11-02T11:58:57Z</time>
      </trkpt>
      <trkpt lat="43.78311" lon="7.39825">
        <ele>588</ele>
        <time>2013-11-02T11:59:02Z</time>
      </trkpt>
      <trkpt lat="43.78327" lon="7.39834">
        <ele>593</ele>
        <time>2013-11-02T11:59:07Z</time>
      </trkpt>
      <trkpt lat="43.78347" lon="7.39843">
        <ele>588</ele>
        <time>2013-11-02T11:59:12Z</time>
      </trkpt>
      <trkpt lat="43.78366" lon="7.39846">
        <ele>586</ele>
        <time>2013-11-02T11:59:17Z</time>
      </trkpt>
      <trkpt lat="43.78386" lon="7.39852">
        <ele>583</ele>
        <time>2013-11-02T11:59:22Z</time>
      </trkpt>
      <trkpt lat="43.78406" lon="7.39861">
        <ele>581</ele>
        <time>2013-11-02T11:59:27Z</time>
      </trkpt>
      <trkpt lat="43.78411" lon="7.39878">
        <ele>584</ele>
        <time>2013-11-02T11:59:32Z</time>
      </trkpt>
      <trkpt lat="43.78416" lon="7.399">
        <ele>585</ele>
        <time>2013-11-02T11:59:37Z</time>
      </trkpt>
      <trkpt lat="43.78425" lon="7.3992">
        <ele>582</ele>
        <time>2013-11-02T11:59:42Z</time>
      </trkpt>
      <trkpt lat="43.78431" lon="7.39938">
        <ele>581</ele>
        <time>2013-11-02T11:59:47Z</time>
      </trkpt>
      <trkpt lat="43.78434" lon="7.39957">
        <ele>580</ele>
        <time>2013-11-02T11:59:52Z</time>
      </trkpt>
      <trkpt lat="43.78434" lon="7.39974">
        <ele>580</ele>
        <time>2013-11-02T11:59:57Z</time>
      </trkpt>
      <trkpt lat="43.78442" lon="7.39953">
        <ele>580</ele>
        <time>2013-11-02T12:00:07Z</time>
      </trkpt>
      <trkpt lat="43.78443" lon="7.39938">
        <ele>580</ele>
        <time>2013-11-02T12:00:12Z</time>
      </trkpt>
      <trkpt lat="43.78443" lon="7.39924">
        <ele>580</ele>
        <time>2013-11-02T12:00:17Z</time>
      </trkpt>
      <trkpt lat="43.78446" lon="7.39932">
        <ele>580</ele>
        <time>2013-11-02T12:00:22Z</time>
      </trkpt>
      <trkpt lat="43.78448" lon="7.39926">
        <ele>580</ele>
        <time>2013-11-02T12:00:41Z</time>
      </trkpt>
      <trkpt lat="43.78447" lon="7.39912">
        <ele>578</ele>
        <time>2013-11-02T12:01:51Z</time>
      </trkpt>
      <trkpt lat="43.78445" lon="7.39898">
        <ele>578</ele>
        <time>2013-11-02T12:01:56Z</time>
      </trkpt>
      <trkpt lat="43.78442" lon="7.39887">
        <ele>577</ele>
        <time>2013-11-02T12:02:01Z</time>
      </trkpt>
      <trkpt lat="43.78442" lon="7.39869">
        <ele>576</ele>
        <time>2013-11-02T12:02:08Z</time>
      </trkpt>
      <trkpt lat="43.78445" lon="7.39857">
        <ele>575</ele>
        <time>2013-11-02T12:02:21Z</time>
      </trkpt>
      <trkpt lat="43.78447" lon="7.39847">
        <ele>574</ele>
        <time>2013-11-02T12:02:26Z</time>
      </trkpt>
      <trkpt lat="43.78447" lon="7.3983">
        <ele>571</ele>
        <time>2013-11-02T12:02:31Z</time>
      </trkpt>
      <trkpt lat="43.78442" lon="7.39813">
        <ele>571</ele>
        <time>2013-11-02T12:02:36Z</time>
      </trkpt>
      <trkpt lat="43.78435" lon="7.3979">
        <ele>569</ele>
        <time>2013-11-02T12:02:41Z</time>
      </trkpt>
      <trkpt lat="43.7843" lon="7.39772">
        <ele>566</ele>
        <time>2013-11-02T12:02:46Z</time>
      </trkpt>
      <trkpt lat="43.78424" lon="7.39759">
        <ele>560</ele>
        <time>2013-11-02T12:02:51Z</time>
      </trkpt>
      <trkpt lat="43.78409" lon="7.39755">
        <ele>556</ele>
        <time>2013-11-02T12:02:56Z</time>
      </trkpt>
      <trkpt lat="43.78388" lon="7.39748">
        <ele>555</ele>
        <time>2013-11-02T12:03:01Z</time>
      </trkpt>
      <trkpt lat="43.78375" lon="7.39742">
        <ele>556</ele>
        <time>2013-11-02T12:03:06Z</time>
      </trkpt>
      <trkpt lat="43.78366" lon="7.39742">
        <ele>556</ele>
        <time>2013-11-02T12:03:11Z</time>
      </trkpt>
      <trkpt lat="43.78356" lon="7.39737">
        <ele>556</ele>
        <time>2013-11-02T12:03:16Z</time>
      </trkpt>
      <trkpt lat="43.78344" lon="7.39725">
        <ele>555</ele>
        <time>2013-11-02T12:03:21Z</time>
      </trkpt>
      <trkpt lat="43.78334" lon="7.39711">
        <ele>554</ele>
        <time>2013-11-02T12:03:26Z</time>
      </trkpt>
      <trkpt lat="43.78331" lon="7.39705">
        <ele>559</ele>
        <time>2013-11-02T12:03:33Z</time>
      </trkpt>
      <trkpt lat="43.78327" lon="7.39695">
        <ele>557</ele>
        <time>2013-11-02T12:03:51Z</time>
      </trkpt>
      <trkpt lat="43.78322" lon="7.39683">
        <ele>554</ele>
        <time>2013-11-02T12:03:56Z</time>
      </trkpt>
      <trkpt lat="43.7832" lon="7.39669">
        <ele>552</ele>
        <time>2013-11-02T12:04:01Z</time>
      </trkpt>
      <trkpt lat="43.78316" lon="7.39651">
        <ele>548</ele>
        <time>2013-11-02T12:04:06Z</time>
      </trkpt>
      <trkpt lat="43.78316" lon="7.39635">
        <ele>549</ele>
        <time>2013-11-02T12:04:11Z</time>
      </trkpt>
      <trkpt lat="43.78314" lon="7.39617">
        <ele>549</ele>
        <time>2013-11-02T12:04:16Z</time>
      </trkpt>
      <trkpt lat="43.7831" lon="7.39606">
        <ele>549</ele>
        <time>2013-11-02T12:04:21Z</time>
      </trkpt>
      <trkpt lat="43.78303" lon="7.39597">
        <ele>549</ele>
        <time>2013-11-02T12:04:26Z</time>
      </trkpt>
      <trkpt lat="43.78294" lon="7.39592">
        <ele>549</ele>
        <time>2013-11-02T12:04:32Z</time>
      </trkpt>
      <trkpt lat="43.78301" lon="7.39592">
        <ele>549</ele>
        <time>2013-11-02T12:05:01Z</time>
      </trkpt>
      <trkpt lat="43.78308" lon="7.39593">
        <ele>548</ele>
        <time>2013-11-02T12:05:06Z</time>
      </trkpt>
      <trkpt lat="43.78302" lon="7.39577">
        <ele>545</ele>
        <time>2013-11-02T12:05:16Z</time>
      </trkpt>
      <trkpt lat="43.78287" lon="7.39571">
        <ele>544</ele>
        <time>2013-11-02T12:05:21Z</time>
      </trkpt>
      <trkpt lat="43.78276" lon="7.39562">
        <ele>543</ele>
        <time>2013-11-02T12:05:26Z</time>
      </trkpt>
      <trkpt lat="43.78264" lon="7.39552">
        <ele>542</ele>
        <time>2013-11-02T12:05:31Z</time>
      </trkpt>
      <trkpt lat="43.78255" lon="7.39539">
        <ele>540</ele>
        <time>2013-11-02T12:05:36Z</time>
      </trkpt>
      <trkpt lat="43.78246" lon="7.39517">
        <ele>533</ele>
        <time>2013-11-02T12:05:41Z</time>
      </trkpt>
      <trkpt lat="43.78242" lon="7.39493">
        <ele>525</ele>
        <time>2013-11-02T12:05:46Z</time>
      </trkpt>
      <trkpt lat="43.78224" lon="7.39471">
        <ele>527</ele>
        <time>2013-11-02T12:05:51Z</time>
      </trkpt>
      <trkpt lat="43.78206" lon="7.39456">
        <ele>526</ele>
        <time>2013-11-02T12:05:56Z</time>
      </trkpt>
      <trkpt lat="43.78203" lon="7.39448">
        <ele>525</ele>
        <time>2013-11-02T12:07:29Z</time>
      </trkpt>
      <trkpt lat="43.78196" lon="7.3944">
        <ele>524</ele>
        <time>2013-11-02T12:07:34Z</time>
      </trkpt>
      <trkpt lat="43.78188" lon="7.39428">
        <ele>521</ele>
        <time>2013-11-02T12:07:39Z</time>
      </trkpt>
      <trkpt lat="43.78176" lon="7.39416">
        <ele>517</ele>
        <time>2013-11-02T12:07:44Z</time>
      </trkpt>
      <trkpt lat="43.78162" lon="7.39403">
        <ele>515</ele>
        <time>2013-11-02T12:07:49Z</time>
      </trkpt>
      <trkpt lat="43.78157" lon="7.39387">
        <ele>517</ele>
        <time>2013-11-02T12:07:54Z</time>
      </trkpt>
      <trkpt lat="43.78157" lon="7.39374">
        <ele>517</ele>
        <time>2013-11-02T12:07:59Z</time>
      </trkpt>
      <trkpt lat="43.78154" lon="7.39363">
        <ele>517</ele>
        <time>2013-11-02T12:08:04Z</time>
      </trkpt>
      <trkpt lat="43.78148" lon="7.39347">
        <ele>517</ele>
        <time>2013-11-02T12:08:09Z</time>
      </trkpt>
      <trkpt lat="43.78145" lon="7.39331">
        <ele>515</ele>
        <time>2013-11-02T12:08:14Z</time>
      </trkpt>
      <trkpt lat="43.78139" lon="7.39318">
        <ele>515</ele>
        <time>2013-11-02T12:08:19Z</time>
      </trkpt>
      <trkpt lat="43.78134" lon="7.39302">
        <ele>515</ele>
        <time>2013-11-02T12:08:24Z</time>
      </trkpt>
      <trkpt lat="43.78128" lon="7.3928">
        <ele>514</ele>
        <time>2013-11-02T12:08:29Z</time>
      </trkpt>
      <trkpt lat="43.78121" lon="7.3926">
        <ele>513</ele>
        <time>2013-11-02T12:08:34Z</time>
      </trkpt>
      <trkpt lat="43.78118" lon="7.39248">
        <ele>520</ele>
        <time>2013-11-02T12:08:40Z</time>
      </trkpt>
      <trkpt lat="43.78117" lon="7.39241">
        <ele>520</ele>
        <time>2013-11-02T12:08:45Z</time>
      </trkpt>
      <trkpt lat="43.78115" lon="7.39233">
        <ele>520</ele>
        <time>2013-11-02T12:08:50Z</time>
      </trkpt>
      <trkpt lat="43.78111" lon="7.39217">
        <ele>521</ele>
        <time>2013-11-02T12:09:08Z</time>
      </trkpt>
      <trkpt lat="43.781" lon="7.39198">
        <ele>519</ele>
        <time>2013-11-02T12:09:13Z</time>
      </trkpt>
      <trkpt lat="43.78085" lon="7.39177">
        <ele>505</ele>
        <time>2013-11-02T12:09:18Z</time>
      </trkpt>
      <trkpt lat="43.7807" lon="7.39163">
        <ele>492</ele>
        <time>2013-11-02T12:09:23Z</time>
      </trkpt>
      <trkpt lat="43.7806" lon="7.39155">
        <ele>490</ele>
        <time>2013-11-02T12:09:28Z</time>
      </trkpt>
      <trkpt lat="43.78051" lon="7.39146">
        <ele>489</ele>
        <time>2013-11-02T12:09:33Z</time>
      </trkpt>
      <trkpt lat="43.78045" lon="7.3914">
        <ele>489</ele>
        <time>2013-11-02T12:09:38Z</time>
      </trkpt>
      <trkpt lat="43.7804" lon="7.39128">
        <ele>488</ele>
        <time>2013-11-02T12:09:43Z</time>
      </trkpt>
      <trkpt lat="43.78035" lon="7.39112">
        <ele>486</ele>
        <time>2013-11-02T12:09:48Z</time>
      </trkpt>
      <trkpt lat="43.7803" lon="7.39093">
        <ele>484</ele>
        <time>2013-11-02T12:09:53Z</time>
      </trkpt>
      <trkpt lat="43.7803" lon="7.39073">
        <ele>477</ele>
        <time>2013-11-02T12:09:58Z</time>
      </trkpt>
      <trkpt lat="43.7803" lon="7.39055">
        <ele>477</ele>
        <time>2013-11-02T12:10:03Z</time>
      </trkpt>
      <trkpt lat="43.78035" lon="7.39031">
        <ele>476</ele>
        <time>2013-11-02T12:10:08Z</time>
      </trkpt>
      <trkpt lat="43.78041" lon="7.39007">
        <ele>475</ele>
        <time>2013-11-02T12:10:13Z</time>
      </trkpt>
      <trkpt lat="43.78046" lon="7.3899">
        <ele>469</ele>
        <time>2013-11-02T12:10:18Z</time>
      </trkpt>
      <trkpt lat="43.78052" lon="7.38973">
        <ele>469</ele>
        <time>2013-11-02T12:10:23Z</time>
      </trkpt>
      <trkpt lat="43.78058" lon="7.38961">
        <ele>469</ele>
        <time>2013-11-02T12:10:28Z</time>
      </trkpt>
      <trkpt lat="43.78064" lon="7.38957">
        <ele>469</ele>
        <time>2013-11-02T12:11:07Z</time>
      </trkpt>
      <trkpt lat="43.78064" lon="7.38951">
        <ele>468</ele>
        <time>2013-11-02T12:11:35Z</time>
      </trkpt>
      <trkpt lat="43.7807" lon="7.3894">
        <ele>467</ele>
        <time>2013-11-02T12:11:40Z</time>
      </trkpt>
      <trkpt lat="43.78079" lon="7.3892">
        <ele>465</ele>
        <time>2013-11-02T12:11:45Z</time>
      </trkpt>
      <trkpt lat="43.78079" lon="7.38905">
        <ele>461</ele>
        <time>2013-11-02T12:11:50Z</time>
      </trkpt>
      <trkpt lat="43.78082" lon="7.38887">
        <ele>459</ele>
        <time>2013-11-02T12:11:55Z</time>
      </trkpt>
      <trkpt lat="43.78081" lon="7.38867">
        <ele>457</ele>
        <time>2013-11-02T12:12:00Z</time>
      </trkpt>
      <trkpt lat="43.78075" lon="7.38851">
        <ele>456</ele>
        <time>2013-11-02T12:12:05Z</time>
      </trkpt>
      <trkpt lat="43.78071" lon="7.3884">
        <ele>456</ele>
        <time>2013-11-02T12:12:10Z</time>
      </trkpt>
      <trkpt lat="43.78068" lon="7.3882">
        <ele>449</ele>
        <time>2013-11-02T12:12:15Z</time>
      </trkpt>
      <trkpt lat="43.78065" lon="7.38802">
        <ele>447</ele>
        <time>2013-11-02T12:12:20Z</time>
      </trkpt>
      <trkpt lat="43.78063" lon="7.38792">
        <ele>446</ele>
        <time>2013-11-02T12:12:34Z</time>
      </trkpt>
      <trkpt lat="43.78058" lon="7.38783">
        <ele>445</ele>
        <time>2013-11-02T12:12:44Z</time>
      </trkpt>
      <trkpt lat="43.78057" lon="7.38764">
        <ele>445</ele>
        <time>2013-11-02T12:12:49Z</time>
      </trkpt>
      <trkpt lat="43.78056" lon="7.38739">
        <ele>440</ele>
        <time>2013-11-02T12:12:54Z</time>
      </trkpt>
      <trkpt lat="43.78058" lon="7.38717">
        <ele>439</ele>
        <time>2013-11-02T12:12:59Z</time>
      </trkpt>
      <trkpt lat="43.78057" lon="7.3869">
        <ele>439</ele>
        <time>2013-11-02T12:13:04Z</time>
      </trkpt>
      <trkpt lat="43.78057" lon="7.38669">
        <ele>440</ele>
        <time>2013-11-02T12:13:09Z</time>
      </trkpt>
      <trkpt lat="43.78056" lon="7.38642">
        <ele>439</ele>
        <time>2013-11-02T12:13:14Z</time>
      </trkpt>
      <trkpt lat="43.78055" lon="7.38631">
        <ele>439</ele>
        <time>2013-11-02T12:13:19Z</time>
      </trkpt>
      <trkpt lat="43.7805" lon="7.38615">
        <ele>438</ele>
        <time>2013-11-02T12:13:24Z</time>
      </trkpt>
      <trkpt lat="43.78041" lon="7.38595">
        <ele>436</ele>
        <time>2013-11-02T12:13:29Z</time>
      </trkpt>
      <trkpt lat="43.78029" lon="7.38567">
        <ele>434</ele>
        <time>2013-11-02T12:13:34Z</time>
      </trkpt>
      <trkpt lat="43.78024" lon="7.38548">
        <ele>435</ele>
        <time>2013-11-02T12:13:39Z</time>
      </trkpt>
      <trkpt lat="43.78017" lon="7.38533">
        <ele>433</ele>
        <time>2013-11-02T12:13:44Z</time>
      </trkpt>
      <trkpt lat="43.78006" lon="7.38509">
        <ele>426</ele>
        <time>2013-11-02T12:13:49Z</time>
      </trkpt>
      <trkpt lat="43.77998" lon="7.38486">
        <ele>408</ele>
        <time>2013-11-02T12:13:54Z</time>
      </trkpt>
      <trkpt lat="43.77992" lon="7.38466">
        <ele>401</ele>
        <time>2013-11-02T12:13:59Z</time>
      </trkpt>
      <trkpt lat="43.77987" lon="7.3845">
        <ele>400</ele>
        <time>2013-11-02T12:14:04Z</time>
      </trkpt>
      <trkpt lat="43.77982" lon="7.38431">
        <ele>401</ele>
        <time>2013-11-02T12:14:09Z</time>
      </trkpt>
      <trkpt lat="43.7798" lon="7.38423">
        <ele>402</ele>
        <time>2013-11-02T12:14:14Z</time>
      </trkpt>
      <trkpt lat="43.77978" lon="7.38438">
        <ele>399</ele>
        <time>2013-11-02T12:14:19Z</time>
      </trkpt>
      <trkpt lat="43.77976" lon="7.38452">
        <ele>397</ele>
        <time>2013-11-02T12:14:24Z</time>
      </trkpt>
      <trkpt lat="43.77971" lon="7.38445">
        <ele>396</ele>
        <time>2013-11-02T12:15:06Z</time>
      </trkpt>
      <trkpt lat="43.77965" lon="7.38417">
        <ele>394</ele>
        <time>2013-11-02T12:15:11Z</time>
      </trkpt>
      <trkpt lat="43.77961" lon="7.38385">
        <ele>393</ele>
        <time>2013-11-02T12:15:16Z</time>
      </trkpt>
      <trkpt lat="43.77957" lon="7.38357">
        <ele>392</ele>
        <time>2013-11-02T12:15:21Z</time>
      </trkpt>
      <trkpt lat="43.77961" lon="7.3833">
        <ele>397</ele>
        <time>2013-11-02T12:15:26Z</time>
      </trkpt>
      <trkpt lat="43.77965" lon="7.3832">
        <ele>399</ele>
        <time>2013-11-02T12:15:31Z</time>
      </trkpt>
      <trkpt lat="43.77964" lon="7.38311">
        <ele>398</ele>
        <time>2013-11-02T12:15:36Z</time>
      </trkpt>
      <trkpt lat="43.77962" lon="7.38299">
        <ele>398</ele>
        <time>2013-11-02T12:15:46Z</time>
      </trkpt>
      <trkpt lat="43.77965" lon="7.38293">
        <ele>399</ele>
        <time>2013-11-02T12:15:51Z</time>
      </trkpt>
      <trkpt lat="43.7797" lon="7.38284">
        <ele>400</ele>
        <time>2013-11-02T12:15:56Z</time>
      </trkpt>
      <trkpt lat="43.77975" lon="7.3828">
        <ele>401</ele>
        <time>2013-11-02T12:16:01Z</time>
      </trkpt>
      <trkpt lat="43.77981" lon="7.38278">
        <ele>403</ele>
        <time>2013-11-02T12:16:22Z</time>
      </trkpt>
      <trkpt lat="43.77987" lon="7.38277">
        <ele>404</ele>
        <time>2013-11-02T12:16:27Z</time>
      </trkpt>
      <trkpt lat="43.77992" lon="7.38264">
        <ele>407</ele>
        <time>2013-11-02T12:16:41Z</time>
      </trkpt>
      <trkpt lat="43.77994" lon="7.38257">
        <ele>410</ele>
        <time>2013-11-02T12:17:00Z</time>
      </trkpt>
      <trkpt lat="43.7799" lon="7.38249">
        <ele>410</ele>
        <time>2013-11-02T12:17:11Z</time>
      </trkpt>
      <trkpt lat="43.77983" lon="7.38242">
        <ele>408</ele>
        <time>2013-11-02T12:17:23Z</time>
      </trkpt>
      <trkpt lat="43.77978" lon="7.38237">
        <ele>406</ele>
        <time>2013-11-02T12:17:39Z</time>
      </trkpt>
      <trkpt lat="43.77973" lon="7.38236">
        <ele>405</ele>
        <time>2013-11-02T12:17:44Z</time>
      </trkpt>
      <trkpt lat="43.77977" lon="7.38229">
        <ele>405</ele>
        <time>2013-11-02T12:17:56Z</time>
      </trkpt>
      <trkpt lat="43.7798" lon="7.38223">
        <ele>406</ele>
        <time>2013-11-02T12:18:06Z</time>
      </trkpt>
      <trkpt lat="43.7798" lon="7.3821">
        <ele>406</ele>
        <time>2013-11-02T12:19:14Z</time>
      </trkpt>
      <trkpt lat="43.77984" lon="7.38195">
        <ele>407</ele>
        <time>2013-11-02T12:19:19Z</time>
      </trkpt>
      <trkpt lat="43.7799" lon="7.38173">
        <ele>414</ele>
        <time>2013-11-02T12:19:24Z</time>
      </trkpt>
      <trkpt lat="43.77993" lon="7.38152">
        <ele>413</ele>
        <time>2013-11-02T12:19:29Z</time>
      </trkpt>
      <trkpt lat="43.77994" lon="7.38138">
        <ele>410</ele>
        <time>2013-11-02T12:19:34Z</time>
      </trkpt>
      <trkpt lat="43.77997" lon="7.38123">
        <ele>410</ele>
        <time>2013-11-02T12:19:39Z</time>
      </trkpt>
      <trkpt lat="43.77995" lon="7.38106">
        <ele>412</ele>
        <time>2013-11-02T12:19:44Z</time>
      </trkpt>
      <trkpt lat="43.77993" lon="7.38088">
        <ele>418</ele>
        <time>2013-11-02T12:19:49Z</time>
      </trkpt>
      <trkpt lat="43.77991" lon="7.38068">
        <ele>415</ele>
        <time>2013-11-02T12:19:54Z</time>
      </trkpt>
      <trkpt lat="43.77989" lon="7.38045">
        <ele>413</ele>
        <time>2013-11-02T12:19:59Z</time>
      </trkpt>
      <trkpt lat="43.77989" lon="7.38026">
        <ele>416</ele>
        <time>2013-11-02T12:20:04Z</time>
      </trkpt>
      <trkpt lat="43.77988" lon="7.38008">
        <ele>421</ele>
        <time>2013-11-02T12:20:09Z</time>
      </trkpt>
      <trkpt lat="43.7799" lon="7.37991">
        <ele>426</ele>
        <time>2013-11-02T12:20:14Z</time>
      </trkpt>
      <trkpt lat="43.77991" lon="7.37971">
        <ele>422</ele>
        <time>2013-11-02T12:20:19Z</time>
      </trkpt>
      <trkpt lat="43.77989" lon="7.3795">
        <ele>423</ele>
        <time>2013-11-02T12:20:24Z</time>
      </trkpt>
      <trkpt lat="43.77986" lon="7.3793">
        <ele>426</ele>
        <time>2013-11-02T12:20:29Z</time>
      </trkpt>
      <trkpt lat="43.77981" lon="7.37913">
        <ele>428</ele>
        <time>2013-11-02T12:20:34Z</time>
      </trkpt>
      <trkpt lat="43.77975" lon="7.379">
        <ele>425</ele>
        <time>2013-11-02T12:20:39Z</time>
      </trkpt>
      <trkpt lat="43.77974" lon="7.37889">
        <ele>424</ele>
        <time>2013-11-02T12:20:44Z</time>
      </trkpt>
      <trkpt lat="43.7797" lon="7.3788">
        <ele>423</ele>
        <time>2013-11-02T12:20:49Z</time>
      </trkpt>
      <trkpt lat="43.77966" lon="7.37875">
        <ele>423</ele>
        <time>2013-11-02T12:20:54Z</time>
      </trkpt>
      <trkpt lat="43.77966" lon="7.37866">
        <ele>423</ele>
        <time>2013-11-02T12:21:49Z</time>
      </trkpt>
      <trkpt lat="43.77961" lon="7.37862">
        <ele>423</ele>
        <time>2013-11-02T12:21:54Z</time>
      </trkpt>
      <trkpt lat="43.77956" lon="7.37858">
        <ele>423</ele>
        <time>2013-11-02T12:22:00Z</time>
      </trkpt>
      <trkpt lat="43.77951" lon="7.37847">
        <ele>423</ele>
        <time>2013-11-02T12:22:08Z</time>
      </trkpt>
      <trkpt lat="43.77943" lon="7.3784">
        <ele>424</ele>
        <time>2013-11-02T12:22:21Z</time>
      </trkpt>
      <trkpt lat="43.77937" lon="7.37836">
        <ele>425</ele>
        <time>2013-11-02T12:22:31Z</time>
      </trkpt>
      <trkpt lat="43.77932" lon="7.37833">
        <ele>423</ele>
        <time>2013-11-02T12:22:36Z</time>
      </trkpt>
      <trkpt lat="43.77923" lon="7.37832">
        <ele>426</ele>
        <time>2013-11-02T12:22:46Z</time>
      </trkpt>
      <trkpt lat="43.77917" lon="7.37826">
        <ele>426</ele>
        <time>2013-11-02T12:23:01Z</time>
      </trkpt>
      <trkpt lat="43.77915" lon="7.37818">
        <ele>425</ele>
        <time>2013-11-02T12:23:14Z</time>
      </trkpt>
      <trkpt lat="43.77908" lon="7.37811">
        <ele>423</ele>
        <time>2013-11-02T12:23:26Z</time>
      </trkpt>
      <trkpt lat="43.77901" lon="7.37807">
        <ele>422</ele>
        <time>2013-11-02T12:23:31Z</time>
      </trkpt>
      <trkpt lat="43.77897" lon="7.37799">
        <ele>421</ele>
        <time>2013-11-02T12:23:37Z</time>
      </trkpt>
      <trkpt lat="43.77894" lon="7.37787">
        <ele>421</ele>
        <time>2013-11-02T12:23:42Z</time>
      </trkpt>
      <trkpt lat="43.7789" lon="7.37779">
        <ele>421</ele>
        <time>2013-11-02T12:23:47Z</time>
      </trkpt>
      <trkpt lat="43.77883" lon="7.37769">
        <ele>421</ele>
        <time>2013-11-02T12:23:52Z</time>
      </trkpt>
      <trkpt lat="43.77881" lon="7.37762">
        <ele>421</ele>
        <time>2013-11-02T12:24:08Z</time>
      </trkpt>
      <trkpt lat="43.77882" lon="7.37755">
        <ele>421</ele>
        <time>2013-11-02T12:24:25Z</time>
      </trkpt>
      <trkpt lat="43.77884" lon="7.37749">
        <ele>417</ele>
        <time>2013-11-02T12:25:42Z</time>
      </trkpt>
      <trkpt lat="43.77883" lon="7.37756">
        <ele>421</ele>
        <time>2013-11-02T12:26:34Z</time>
      </trkpt>
      <trkpt lat="43.7788" lon="7.37763">
        <ele>421</ele>
        <time>2013-11-02T12:26:50Z</time>
      </trkpt>
      <trkpt lat="43.77885" lon="7.37767">
        <ele>421</ele>
        <time>2013-11-02T12:27:08Z</time>
      </trkpt>
      <trkpt lat="43.77889" lon="7.37772">
        <ele>421</ele>
        <time>2013-11-02T12:27:54Z</time>
      </trkpt>
      <trkpt lat="43.77884" lon="7.37773">
        <ele>421</ele>
        <time>2013-11-02T12:49:31Z</time>
      </trkpt>
      <trkpt lat="43.77881" lon="7.37767">
        <ele>421</ele>
        <time>2013-11-02T12:50:05Z</time>
      </trkpt>
      <trkpt lat="43.77886" lon="7.37773">
        <ele>421</ele>
        <time>2013-11-02T12:50:50Z</time>
      </trkpt>
      <trkpt lat="43.77889" lon="7.3778">
        <ele>421</ele>
        <time>2013-11-02T12:50:55Z</time>
      </trkpt>
      <trkpt lat="43.77893" lon="7.37789">
        <ele>421</ele>
        <time>2013-11-02T12:51:00Z</time>
      </trkpt>
      <trkpt lat="43.77897" lon="7.37797">
        <ele>421</ele>
        <time>2013-11-02T12:51:05Z</time>
      </trkpt>
      <trkpt lat="43.77902" lon="7.37804">
        <ele>422</ele>
        <time>2013-11-02T12:51:10Z</time>
      </trkpt>
      <trkpt lat="43.77908" lon="7.3781">
        <ele>423</ele>
        <time>2013-11-02T12:51:17Z</time>
      </trkpt>
      <trkpt lat="43.77912" lon="7.37813">
        <ele>424</ele>
        <time>2013-11-02T12:51:22Z</time>
      </trkpt>
      <trkpt lat="43.77918" lon="7.3782">
        <ele>423</ele>
        <time>2013-11-02T12:51:27Z</time>
      </trkpt>
      <trkpt lat="43.77919" lon="7.37827">
        <ele>426</ele>
        <time>2013-11-02T12:51:44Z</time>
      </trkpt>
      <trkpt lat="43.77927" lon="7.37833">
        <ele>425</ele>
        <time>2013-11-02T12:51:59Z</time>
      </trkpt>
      <trkpt lat="43.77935" lon="7.37836">
        <ele>425</ele>
        <time>2013-11-02T12:52:04Z</time>
      </trkpt>
      <trkpt lat="43.77939" lon="7.37838">
        <ele>425</ele>
        <time>2013-11-02T12:52:09Z</time>
      </trkpt>
      <trkpt lat="43.7795" lon="7.3785">
        <ele>423</ele>
        <time>2013-11-02T12:52:14Z</time>
      </trkpt>
      <trkpt lat="43.7796" lon="7.37862">
        <ele>423</ele>
        <time>2013-11-02T12:52:19Z</time>
      </trkpt>
      <trkpt lat="43.77971" lon="7.3788">
        <ele>423</ele>
        <time>2013-11-02T12:52:24Z</time>
      </trkpt>
      <trkpt lat="43.77978" lon="7.37872">
        <ele>423</ele>
        <time>2013-11-02T12:53:31Z</time>
      </trkpt>
      <trkpt lat="43.77981" lon="7.37866">
        <ele>423</ele>
        <time>2013-11-02T12:53:36Z</time>
      </trkpt>
      <trkpt lat="43.77989" lon="7.37863">
        <ele>422</ele>
        <time>2013-11-02T12:53:41Z</time>
      </trkpt>
      <trkpt lat="43.77998" lon="7.37855">
        <ele>421</ele>
        <time>2013-11-02T12:53:46Z</time>
      </trkpt>
      <trkpt lat="43.78018" lon="7.37848">
        <ele>420</ele>
        <time>2013-11-02T12:53:51Z</time>
      </trkpt>
      <trkpt lat="43.78038" lon="7.37856">
        <ele>421</ele>
        <time>2013-11-02T12:53:56Z</time>
      </trkpt>
      <trkpt lat="43.78054" lon="7.37865">
        <ele>422</ele>
        <time>2013-11-02T12:54:01Z</time>
      </trkpt>
      <trkpt lat="43.78063" lon="7.37868">
        <ele>422</ele>
        <time>2013-11-02T12:54:06Z</time>
      </trkpt>
      <trkpt lat="43.78076" lon="7.37868">
        <ele>421</ele>
        <time>2013-11-02T12:54:11Z</time>
      </trkpt>
      <trkpt lat="43.78097" lon="7.37864">
        <ele>411</ele>
        <time>2013-11-02T12:54:16Z</time>
      </trkpt>
      <trkpt lat="43.78125" lon="7.37866">
        <ele>409</ele>
        <time>2013-11-02T12:54:21Z</time>
      </trkpt>
      <trkpt lat="43.78157" lon="7.3788">
        <ele>409</ele>
        <time>2013-11-02T12:54:26Z</time>
      </trkpt>
      <trkpt lat="43.78185" lon="7.37914">
        <ele>398</ele>
        <time>2013-11-02T12:54:31Z</time>
      </trkpt>
      <trkpt lat="43.7821" lon="7.37945">
        <ele>413</ele>
        <time>2013-11-02T12:54:36Z</time>
      </trkpt>
      <trkpt lat="43.78234" lon="7.37943">
        <ele>406</ele>
        <time>2013-11-02T12:54:41Z</time>
      </trkpt>
      <trkpt lat="43.78254" lon="7.37937">
        <ele>392</ele>
        <time>2013-11-02T12:54:46Z</time>
      </trkpt>
      <trkpt lat="43.78283" lon="7.37935">
        <ele>395</ele>
        <time>2013-11-02T12:54:51Z</time>
      </trkpt>
      <trkpt lat="43.78307" lon="7.37935">
        <ele>393</ele>
        <time>2013-11-02T12:54:56Z</time>
      </trkpt>
      <trkpt lat="43.7833" lon="7.37913">
        <ele>375</ele>
        <time>2013-11-02T12:55:01Z</time>
      </trkpt>
      <trkpt lat="43.78364" lon="7.37908">
        <ele>360</ele>
        <time>2013-11-02T12:55:06Z</time>
      </trkpt>
      <trkpt lat="43.784" lon="7.37912">
        <ele>359</ele>
        <time>2013-11-02T12:55:11Z</time>
      </trkpt>
      <trkpt lat="43.78427" lon="7.37913">
        <ele>356</ele>
        <time>2013-11-02T12:55:16Z</time>
      </trkpt>
      <trkpt lat="43.7844" lon="7.37911">
        <ele>350</ele>
        <time>2013-11-02T12:55:21Z</time>
      </trkpt>
      <trkpt lat="43.78446" lon="7.379">
        <ele>346</ele>
        <time>2013-11-02T12:55:26Z</time>
      </trkpt>
      <trkpt lat="43.78452" lon="7.37901">
        <ele>345</ele>
        <time>2013-11-02T12:55:31Z</time>
      </trkpt>
      <trkpt lat="43.78462" lon="7.37902">
        <ele>344</ele>
        <time>2013-11-02T12:55:36Z</time>
      </trkpt>
      <trkpt lat="43.78479" lon="7.37912">
        <ele>345</ele>
        <time>2013-11-02T12:55:41Z</time>
      </trkpt>
      <trkpt lat="43.78505" lon="7.3791">
        <ele>342</ele>
        <time>2013-11-02T12:55:46Z</time>
      </trkpt>
      <trkpt lat="43.78535" lon="7.37931">
        <ele>347</ele>
        <time>2013-11-02T12:55:51Z</time>
      </trkpt>
      <trkpt lat="43.7855" lon="7.37957">
        <ele>347</ele>
        <time>2013-11-02T12:55:56Z</time>
      </trkpt>
      <trkpt lat="43.78556" lon="7.3796">
        <ele>347</ele>
        <time>2013-11-02T12:56:01Z</time>
      </trkpt>
      <trkpt lat="43.78557" lon="7.37946">
        <ele>344</ele>
        <time>2013-11-02T12:56:07Z</time>
      </trkpt>
      <trkpt lat="43.78571" lon="7.37933">
        <ele>337</ele>
        <time>2013-11-02T12:56:12Z</time>
      </trkpt>
      <trkpt lat="43.78584" lon="7.37923">
        <ele>323</ele>
        <time>2013-11-02T12:56:17Z</time>
      </trkpt>
      <trkpt lat="43.78576" lon="7.37919">
        <ele>330</ele>
        <time>2013-11-02T12:56:22Z</time>
      </trkpt>
      <trkpt lat="43.78581" lon="7.37907">
        <ele>322</ele>
        <time>2013-11-02T12:56:27Z</time>
      </trkpt>
      <trkpt lat="43.78598" lon="7.37889">
        <ele>309</ele>
        <time>2013-11-02T12:56:32Z</time>
      </trkpt>
      <trkpt lat="43.78616" lon="7.37875">
        <ele>305</ele>
        <time>2013-11-02T12:56:37Z</time>
      </trkpt>
      <trkpt lat="43.78628" lon="7.37845">
        <ele>300</ele>
        <time>2013-11-02T12:56:42Z</time>
      </trkpt>
      <trkpt lat="43.7863" lon="7.3783">
        <ele>286</ele>
        <time>2013-11-02T12:56:47Z</time>
      </trkpt>
      <trkpt lat="43.78619" lon="7.37819">
        <ele>286</ele>
        <time>2013-11-02T12:56:52Z</time>
      </trkpt>
      <trkpt lat="43.78631" lon="7.37809">
        <ele>284</ele>
        <time>2013-11-02T12:56:57Z</time>
      </trkpt>
      <trkpt lat="43.78634" lon="7.37801">
        <ele>283</ele>
        <time>2013-11-02T12:57:02Z</time>
      </trkpt>
      <trkpt lat="43.78627" lon="7.37778">
        <ele>280</ele>
        <time>2013-11-02T12:57:07Z</time>
      </trkpt>
      <trkpt lat="43.78633" lon="7.37767">
        <ele>278</ele>
        <time>2013-11-02T12:57:12Z</time>
      </trkpt>
      <trkpt lat="43.78627" lon="7.37762">
        <ele>278</ele>
        <time>2013-11-02T12:57:17Z</time>
      </trkpt>
      <trkpt lat="43.78636" lon="7.37753">
        <ele>277</ele>
        <time>2013-11-02T12:57:22Z</time>
      </trkpt>
      <trkpt lat="43.78636" lon="7.37746">
        <ele>261</ele>
        <time>2013-11-02T12:57:27Z</time>
      </trkpt>
      <trkpt lat="43.78642" lon="7.37743">
        <ele>261</ele>
        <time>2013-11-02T12:57:32Z</time>
      </trkpt>
      <trkpt lat="43.78639" lon="7.3773">
        <ele>260</ele>
        <time>2013-11-02T12:57:37Z</time>
      </trkpt>
      <trkpt lat="43.78644" lon="7.37716">
        <ele>258</ele>
        <time>2013-11-02T12:57:42Z</time>
      </trkpt>
      <trkpt lat="43.7864" lon="7.37697">
        <ele>254</ele>
        <time>2013-11-02T12:57:47Z</time>
      </trkpt>
      <trkpt lat="43.78635" lon="7.37676">
        <ele>252</ele>
        <time>2013-11-02T12:57:52Z</time>
      </trkpt>
      <trkpt lat="43.78641" lon="7.37667">
        <ele>251</ele>
        <time>2013-11-02T12:57:57Z</time>
      </trkpt>
      <trkpt lat="43.78651" lon="7.37651">
        <ele>238</ele>
        <time>2013-11-02T12:58:02Z</time>
      </trkpt>
      <trkpt lat="43.78668" lon="7.37652">
        <ele>240</ele>
        <time>2013-11-02T12:58:07Z</time>
      </trkpt>
      <trkpt lat="43.7867" lon="7.37642">
        <ele>237</ele>
        <time>2013-11-02T12:58:12Z</time>
      </trkpt>
      <trkpt lat="43.7868" lon="7.37639">
        <ele>236</ele>
        <time>2013-11-02T12:58:17Z</time>
      </trkpt>
      <trkpt lat="43.7868" lon="7.37632">
        <ele>235</ele>
        <time>2013-11-02T12:58:22Z</time>
      </trkpt>
      <trkpt lat="43.78679" lon="7.37608">
        <ele>231</ele>
        <time>2013-11-02T12:58:27Z</time>
      </trkpt>
      <trkpt lat="43.78676" lon="7.37585">
        <ele>227</ele>
        <time>2013-11-02T12:58:32Z</time>
      </trkpt>
      <trkpt lat="43.78668" lon="7.37572">
        <ele>220</ele>
        <time>2013-11-02T12:58:37Z</time>
      </trkpt>
      <trkpt lat="43.78675" lon="7.37569">
        <ele>218</ele>
        <time>2013-11-02T12:58:42Z</time>
      </trkpt>
      <trkpt lat="43.78688" lon="7.37568">
        <ele>216</ele>
        <time>2013-11-02T12:58:47Z</time>
      </trkpt>
      <trkpt lat="43.78702" lon="7.37565">
        <ele>214</ele>
        <time>2013-11-02T12:58:52Z</time>
      </trkpt>
      <trkpt lat="43.78715" lon="7.37578">
        <ele>215</ele>
        <time>2013-11-02T12:58:57Z</time>
      </trkpt>
      <trkpt lat="43.78726" lon="7.37581">
        <ele>215</ele>
        <time>2013-11-02T12:59:43Z</time>
      </trkpt>
      <trkpt lat="43.78735" lon="7.37575">
        <ele>216</ele>
        <time>2013-11-02T12:59:48Z</time>
      </trkpt>
      <trkpt lat="43.78739" lon="7.37563">
        <ele>214</ele>
        <time>2013-11-02T12:59:53Z</time>
      </trkpt>
      <trkpt lat="43.78752" lon="7.37556">
        <ele>210</ele>
        <time>2013-11-02T12:59:58Z</time>
      </trkpt>
      <trkpt lat="43.78766" lon="7.3755">
        <ele>208</ele>
        <time>2013-11-02T13:00:03Z</time>
      </trkpt>
      <trkpt lat="43.78782" lon="7.3756">
        <ele>208</ele>
        <time>2013-11-02T13:00:08Z</time>
      </trkpt>
      <trkpt lat="43.78787" lon="7.37574">
        <ele>209</ele>
        <time>2013-11-02T13:00:13Z</time>
      </trkpt>
      <trkpt lat="43.78797" lon="7.37571">
        <ele>208</ele>
        <time>2013-11-02T13:00:18Z</time>
      </trkpt>
      <trkpt lat="43.78796" lon="7.3755">
        <ele>206</ele>
        <time>2013-11-02T13:00:23Z</time>
      </trkpt>
      <trkpt lat="43.78773" lon="7.37521">
        <ele>204</ele>
        <time>2013-11-02T13:00:28Z</time>
      </trkpt>
      <trkpt lat="43.78751" lon="7.3751">
        <ele>201</ele>
        <time>2013-11-02T13:00:33Z</time>
      </trkpt>
      <trkpt lat="43.78761" lon="7.37506">
        <ele>202</ele>
        <time>2013-11-02T13:00:38Z</time>
      </trkpt>
      <trkpt lat="43.7877" lon="7.37503">
        <ele>202</ele>
        <time>2013-11-02T13:00:50Z</time>
      </trkpt>
      <trkpt lat="43.78776" lon="7.37498">
        <ele>197</ele>
        <time>2013-11-02T13:01:01Z</time>
      </trkpt>
      <trkpt lat="43.78779" lon="7.37492">
        <ele>197</ele>
        <time>2013-11-02T13:01:30Z</time>
      </trkpt>
      <trkpt lat="43.78783" lon="7.37484">
        <ele>196</ele>
        <time>2013-11-02T13:01:35Z</time>
      </trkpt>
      <trkpt lat="43.78791" lon="7.37475">
        <ele>196</ele>
        <time>2013-11-02T13:01:40Z</time>
      </trkpt>
      <trkpt lat="43.78794" lon="7.3746">
        <ele>196</ele>
        <time>2013-11-02T13:01:45Z</time>
      </trkpt>
      <trkpt lat="43.78797" lon="7.37447">
        <ele>195</ele>
        <time>2013-11-02T13:01:50Z</time>
      </trkpt>
      <trkpt lat="43.78799" lon="7.37432">
        <ele>195</ele>
        <time>2013-11-02T13:01:55Z</time>
      </trkpt>
      <trkpt lat="43.78803" lon="7.37424">
        <ele>195</ele>
        <time>2013-11-02T13:02:00Z</time>
      </trkpt>
      <trkpt lat="43.78808" lon="7.37416">
        <ele>195</ele>
        <time>2013-11-02T13:02:05Z</time>
      </trkpt>
      <trkpt lat="43.78814" lon="7.3741">
        <ele>195</ele>
        <time>2013-11-02T13:02:10Z</time>
      </trkpt>
      <trkpt lat="43.78821" lon="7.37403">
        <ele>195</ele>
        <time>2013-11-02T13:02:15Z</time>
      </trkpt>
      <trkpt lat="43.78829" lon="7.37405">
        <ele>195</ele>
        <time>2013-11-02T13:02:20Z</time>
      </trkpt>
      <trkpt lat="43.78839" lon="7.37408">
        <ele>197</ele>
        <time>2013-11-02T13:02:25Z</time>
      </trkpt>
      <trkpt lat="43.78849" lon="7.37412">
        <ele>197</ele>
        <time>2013-11-02T13:02:30Z</time>
      </trkpt>
      <trkpt lat="43.78859" lon="7.37415">
        <ele>198</ele>
        <time>2013-11-02T13:02:35Z</time>
      </trkpt>
      <trkpt lat="43.78871" lon="7.3742">
        <ele>196</ele>
        <time>2013-11-02T13:02:40Z</time>
      </trkpt>
      <trkpt lat="43.78883" lon="7.37425">
        <ele>196</ele>
        <time>2013-11-02T13:02:45Z</time>
      </trkpt>
      <trkpt lat="43.78896" lon="7.3743">
        <ele>197</ele>
        <time>2013-11-02T13:02:50Z</time>
      </trkpt>
      <trkpt lat="43.78907" lon="7.37435">
        <ele>197</ele>
        <time>2013-11-02T13:02:55Z</time>
      </trkpt>
      <trkpt lat="43.78915" lon="7.37439">
        <ele>197</ele>
        <time>2013-11-02T13:03:00Z</time>
      </trkpt>
      <trkpt lat="43.78921" lon="7.37442">
        <ele>197</ele>
        <time>2013-11-02T13:03:05Z</time>
      </trkpt>
      <trkpt lat="43.78929" lon="7.37444">
        <ele>197</ele>
        <time>2013-11-02T13:03:10Z</time>
      </trkpt>
      <trkpt lat="43.78941" lon="7.37447">
        <ele>197</ele>
        <time>2013-11-02T13:03:15Z</time>
      </trkpt>
      <trkpt lat="43.78953" lon="7.37454">
        <ele>197</ele>
        <time>2013-11-02T13:03:20Z</time>
      </trkpt>
      <trkpt lat="43.78964" lon="7.37459">
        <ele>197</ele>
        <time>2013-11-02T13:03:25Z</time>
      </trkpt>
      <trkpt lat="43.78974" lon="7.37465">
        <ele>196</ele>
        <time>2013-11-02T13:03:30Z</time>
      </trkpt>
      <trkpt lat="43.78986" lon="7.37469">
        <ele>196</ele>
        <time>2013-11-02T13:03:35Z</time>
      </trkpt>
      <trkpt lat="43.78999" lon="7.37475">
        <ele>196</ele>
        <time>2013-11-02T13:03:40Z</time>
      </trkpt>
      <trkpt lat="43.79013" lon="7.37481">
        <ele>196</ele>
        <time>2013-11-02T13:03:45Z</time>
      </trkpt>
      <trkpt lat="43.79024" lon="7.37488">
        <ele>197</ele>
        <time>2013-11-02T13:03:50Z</time>
      </trkpt>
      <trkpt lat="43.79037" lon="7.37494">
        <ele>197</ele>
        <time>2013-11-02T13:03:55Z</time>
      </trkpt>
      <trkpt lat="43.79049" lon="7.37501">
        <ele>195</ele>
        <time>2013-11-02T13:04:00Z</time>
      </trkpt>
      <trkpt lat="43.79065" lon="7.37511">
        <ele>195</ele>
        <time>2013-11-02T13:04:05Z</time>
      </trkpt>
      <trkpt lat="43.79078" lon="7.37522">
        <ele>195</ele>
        <time>2013-11-02T13:04:10Z</time>
      </trkpt>
      <trkpt lat="43.79084" lon="7.3753">
        <ele>196</ele>
        <time>2013-11-02T13:04:15Z</time>
      </trkpt>
      <trkpt lat="43.7909" lon="7.37534">
        <ele>196</ele>
        <time>2013-11-02T13:04:20Z</time>
      </trkpt>
      <trkpt lat="43.79097" lon="7.37536">
        <ele>196</ele>
        <time>2013-11-02T13:04:25Z</time>
      </trkpt>
      <trkpt lat="43.79103" lon="7.37527">
        <ele>196</ele>
        <time>2013-11-02T13:04:30Z</time>
      </trkpt>
      <trkpt lat="43.79114" lon="7.37505">
        <ele>197</ele>
        <time>2013-11-02T13:04:35Z</time>
      </trkpt>
      <trkpt lat="43.79126" lon="7.37482">
        <ele>199</ele>
        <time>2013-11-02T13:04:40Z</time>
      </trkpt>
      <trkpt lat="43.79137" lon="7.37459">
        <ele>200</ele>
        <time>2013-11-02T13:04:45Z</time>
      </trkpt>
      <trkpt lat="43.79147" lon="7.37441">
        <ele>201</ele>
        <time>2013-11-02T13:04:50Z</time>
      </trkpt>
      <trkpt lat="43.79154" lon="7.37428">
        <ele>201</ele>
        <time>2013-11-02T13:04:55Z</time>
      </trkpt>
      <trkpt lat="43.79157" lon="7.37417">
        <ele>202</ele>
        <time>2013-11-02T13:05:00Z</time>
      </trkpt>
      <trkpt lat="43.79157" lon="7.37404">
        <ele>206</ele>
        <time>2013-11-02T13:05:05Z</time>
      </trkpt>
      <trkpt lat="43.79157" lon="7.37394">
        <ele>207</ele>
        <time>2013-11-02T13:05:10Z</time>
      </trkpt>
      <trkpt lat="43.79155" lon="7.37384">
        <ele>208</ele>
        <time>2013-11-02T13:05:15Z</time>
      </trkpt>
      <trkpt lat="43.79149" lon="7.37377">
        <ele>209</ele>
        <time>2013-11-02T13:05:20Z</time>
      </trkpt>
      <trkpt lat="43.79141" lon="7.37372">
        <ele>210</ele>
        <time>2013-11-02T13:05:25Z</time>
      </trkpt>
      <trkpt lat="43.79134" lon="7.37367">
        <ele>210</ele>
        <time>2013-11-02T13:05:30Z</time>
      </trkpt>
      <trkpt lat="43.7913" lon="7.37364">
        <ele>211</ele>
        <time>2013-11-02T13:05:35Z</time>
      </trkpt>
      <trkpt lat="43.79125" lon="7.37359">
        <ele>211</ele>
        <time>2013-11-02T13:05:40Z</time>
      </trkpt>
      <trkpt lat="43.79119" lon="7.37356">
        <ele>211</ele>
        <time>2013-11-02T13:05:45Z</time>
      </trkpt>
      <trkpt lat="43.79113" lon="7.37351">
        <ele>212</ele>
        <time>2013-11-02T13:05:50Z</time>
      </trkpt>
      <trkpt lat="43.79106" lon="7.37348">
        <ele>213</ele>
        <time>2013-11-02T13:05:55Z</time>
      </trkpt>
      <trkpt lat="43.79099" lon="7.37346">
        <ele>214</ele>
        <time>2013-11-02T13:06:00Z</time>
      </trkpt>
      <trkpt lat="43.79093" lon="7.37342">
        <ele>215</ele>
        <time>2013-11-02T13:06:05Z</time>
      </trkpt>
      <trkpt lat="43.79085" lon="7.37338">
        <ele>217</ele>
        <time>2013-11-02T13:06:10Z</time>
      </trkpt>
      <trkpt lat="43.79082" lon="7.37334">
        <ele>218</ele>
        <time>2013-11-02T13:06:15Z</time>
      </trkpt>
      <trkpt lat="43.79077" lon="7.37332">
        <ele>220</ele>
        <time>2013-11-02T13:06:20Z</time>
      </trkpt>
      <trkpt lat="43.79073" lon="7.3733">
        <ele>220</ele>
        <time>2013-11-02T13:06:25Z</time>
      </trkpt>
      <trkpt lat="43.79067" lon="7.37327">
        <ele>221</ele>
        <time>2013-11-02T13:06:30Z</time>
      </trkpt>
      <trkpt lat="43.7906" lon="7.37321">
        <ele>221</ele>
        <time>2013-11-02T13:06:35Z</time>
      </trkpt>
      <trkpt lat="43.79055" lon="7.37317">
        <ele>222</ele>
        <time>2013-11-02T13:06:40Z</time>
      </trkpt>
      <trkpt lat="43.79047" lon="7.37313">
        <ele>222</ele>
        <time>2013-11-02T13:06:45Z</time>
      </trkpt>
      <trkpt lat="43.7904" lon="7.37309">
        <ele>222</ele>
        <time>2013-11-02T13:06:50Z</time>
      </trkpt>
      <trkpt lat="43.79033" lon="7.37305">
        <ele>222</ele>
        <time>2013-11-02T13:06:55Z</time>
      </trkpt>
      <trkpt lat="43.79026" lon="7.37301">
        <ele>222</ele>
        <time>2013-11-02T13:07:00Z</time>
      </trkpt>
      <trkpt lat="43.79018" lon="7.37298">
        <ele>222</ele>
        <time>2013-11-02T13:07:05Z</time>
      </trkpt>
      <trkpt lat="43.79011" lon="7.37292">
        <ele>223</ele>
        <time>2013-11-02T13:07:10Z</time>
      </trkpt>
      <trkpt lat="43.79004" lon="7.37285">
        <ele>224</ele>
        <time>2013-11-02T13:07:15Z</time>
      </trkpt>
      <trkpt lat="43.78997" lon="7.37279">
        <ele>220</ele>
        <time>2013-11-02T13:07:20Z</time>
      </trkpt>
      <trkpt lat="43.78991" lon="7.37272">
        <ele>221</ele>
        <time>2013-11-02T13:07:25Z</time>
      </trkpt>
      <trkpt lat="43.78986" lon="7.37263">
        <ele>222</ele>
        <time>2013-11-02T13:07:30Z</time>
      </trkpt>
      <trkpt lat="43.78979" lon="7.37255">
        <ele>222</ele>
        <time>2013-11-02T13:07:35Z</time>
      </trkpt>
      <trkpt lat="43.78974" lon="7.37247">
        <ele>228</ele>
        <time>2013-11-02T13:07:40Z</time>
      </trkpt>
      <trkpt lat="43.78968" lon="7.37237">
        <ele>227</ele>
        <time>2013-11-02T13:07:45Z</time>
      </trkpt>
      <trkpt lat="43.78965" lon="7.37226">
        <ele>227</ele>
        <time>2013-11-02T13:07:50Z</time>
      </trkpt>
      <trkpt lat="43.78961" lon="7.37216">
        <ele>227</ele>
        <time>2013-11-02T13:07:55Z</time>
      </trkpt>
      <trkpt lat="43.78958" lon="7.37205">
        <ele>228</ele>
        <time>2013-11-02T13:08:00Z</time>
      </trkpt>
      <trkpt lat="43.78956" lon="7.37193">
        <ele>229</ele>
        <time>2013-11-02T13:08:05Z</time>
      </trkpt>
      <trkpt lat="43.78956" lon="7.37181">
        <ele>229</ele>
        <time>2013-11-02T13:08:10Z</time>
      </trkpt>
      <trkpt lat="43.78956" lon="7.37171">
        <ele>230</ele>
        <time>2013-11-02T13:08:15Z</time>
      </trkpt>
      <trkpt lat="43.78957" lon="7.37159">
        <ele>241</ele>
        <time>2013-11-02T13:08:20Z</time>
      </trkpt>
      <trkpt lat="43.78956" lon="7.37147">
        <ele>241</ele>
        <time>2013-11-02T13:08:25Z</time>
      </trkpt>
      <trkpt lat="43.78952" lon="7.37136">
        <ele>243</ele>
        <time>2013-11-02T13:08:30Z</time>
      </trkpt>
      <trkpt lat="43.78945" lon="7.3713">
        <ele>243</ele>
        <time>2013-11-02T13:08:35Z</time>
      </trkpt>
      <trkpt lat="43.78939" lon="7.37127">
        <ele>244</ele>
        <time>2013-11-02T13:08:40Z</time>
      </trkpt>
      <trkpt lat="43.78932" lon="7.37126">
        <ele>244</ele>
        <time>2013-11-02T13:08:45Z</time>
      </trkpt>
      <trkpt lat="43.78924" lon="7.37126">
        <ele>244</ele>
        <time>2013-11-02T13:08:50Z</time>
      </trkpt>
      <trkpt lat="43.78916" lon="7.37126">
        <ele>246</ele>
        <time>2013-11-02T13:08:55Z</time>
      </trkpt>
      <trkpt lat="43.7891" lon="7.37119">
        <ele>248</ele>
        <time>2013-11-02T13:09:00Z</time>
      </trkpt>
      <trkpt lat="43.78914" lon="7.37111">
        <ele>250</ele>
        <time>2013-11-02T13:09:05Z</time>
      </trkpt>
      <trkpt lat="43.78922" lon="7.37107">
        <ele>248</ele>
        <time>2013-11-02T13:09:10Z</time>
      </trkpt>
      <trkpt lat="43.78931" lon="7.37105">
        <ele>248</ele>
        <time>2013-11-02T13:09:15Z</time>
      </trkpt>
      <trkpt lat="43.78939" lon="7.37103">
        <ele>248</ele>
        <time>2013-11-02T13:09:20Z</time>
      </trkpt>
      <trkpt lat="43.78946" lon="7.371">
        <ele>247</ele>
        <time>2013-11-02T13:09:25Z</time>
      </trkpt>
      <trkpt lat="43.78954" lon="7.37098">
        <ele>247</ele>
        <time>2013-11-02T13:09:30Z</time>
      </trkpt>
      <trkpt lat="43.78962" lon="7.37097">
        <ele>247</ele>
        <time>2013-11-02T13:09:35Z</time>
      </trkpt>
      <trkpt lat="43.7897" lon="7.37098">
        <ele>247</ele>
        <time>2013-11-02T13:09:40Z</time>
      </trkpt>
      <trkpt lat="43.7898" lon="7.37099">
        <ele>247</ele>
        <time>2013-11-02T13:09:45Z</time>
      </trkpt>
      <trkpt lat="43.78989" lon="7.37101">
        <ele>247</ele>
        <time>2013-11-02T13:09:50Z</time>
      </trkpt>
      <trkpt lat="43.78997" lon="7.37103">
        <ele>247</ele>
        <time>2013-11-02T13:09:55Z</time>
      </trkpt>
      <trkpt lat="43.79005" lon="7.37104">
        <ele>247</ele>
        <time>2013-11-02T13:10:00Z</time>
      </trkpt>
      <trkpt lat="43.79015" lon="7.37104">
        <ele>247</ele>
        <time>2013-11-02T13:10:05Z</time>
      </trkpt>
      <trkpt lat="43.79024" lon="7.37105">
        <ele>247</ele>
        <time>2013-11-02T13:10:10Z</time>
      </trkpt>
      <trkpt lat="43.79033" lon="7.37107">
        <ele>247</ele>
        <time>2013-11-02T13:10:15Z</time>
      </trkpt>
      <trkpt lat="43.79041" lon="7.37108">
        <ele>247</ele>
        <time>2013-11-02T13:10:20Z</time>
      </trkpt>
      <trkpt lat="43.79051" lon="7.37107">
        <ele>247</ele>
        <time>2013-11-02T13:10:25Z</time>
      </trkpt>
      <trkpt lat="43.7906" lon="7.37107">
        <ele>247</ele>
        <time>2013-11-02T13:10:30Z</time>
      </trkpt>
      <trkpt lat="43.79069" lon="7.37106">
        <ele>248</ele>
        <time>2013-11-02T13:10:35Z</time>
      </trkpt>
      <trkpt lat="43.7908" lon="7.37101">
        <ele>250</ele>
        <time>2013-11-02T13:10:40Z</time>
      </trkpt>
      <trkpt lat="43.79089" lon="7.37099">
        <ele>251</ele>
        <time>2013-11-02T13:10:45Z</time>
      </trkpt>
      <trkpt lat="43.79098" lon="7.37094">
        <ele>251</ele>
        <time>2013-11-02T13:10:50Z</time>
      </trkpt>
      <trkpt lat="43.79107" lon="7.37088">
        <ele>250</ele>
        <time>2013-11-02T13:10:55Z</time>
      </trkpt>
      <trkpt lat="43.79116" lon="7.37082">
        <ele>262</ele>
        <time>2013-11-02T13:11:00Z</time>
      </trkpt>
      <trkpt lat="43.79126" lon="7.37076">
        <ele>262</ele>
        <time>2013-11-02T13:11:05Z</time>
      </trkpt>
      <trkpt lat="43.79133" lon="7.37068">
        <ele>263</ele>
        <time>2013-11-02T13:11:10Z</time>
      </trkpt>
      <trkpt lat="43.7913" lon="7.37058">
        <ele>264</ele>
        <time>2013-11-02T13:11:15Z</time>
      </trkpt>
      <trkpt lat="43.79119" lon="7.37057">
        <ele>264</ele>
        <time>2013-11-02T13:11:20Z</time>
      </trkpt>
      <trkpt lat="43.79109" lon="7.37061">
        <ele>264</ele>
        <time>2013-11-02T13:11:25Z</time>
      </trkpt>
      <trkpt lat="43.79099" lon="7.37065">
        <ele>263</ele>
        <time>2013-11-02T13:11:30Z</time>
      </trkpt>
      <trkpt lat="43.79089" lon="7.37065">
        <ele>262</ele>
        <time>2013-11-02T13:11:35Z</time>
      </trkpt>
      <trkpt lat="43.7908" lon="7.37062">
        <ele>264</ele>
        <time>2013-11-02T13:11:40Z</time>
      </trkpt>
      <trkpt lat="43.79071" lon="7.37059">
        <ele>265</ele>
        <time>2013-11-02T13:11:45Z</time>
      </trkpt>
      <trkpt lat="43.79062" lon="7.37054">
        <ele>267</ele>
        <time>2013-11-02T13:11:50Z</time>
      </trkpt>
      <trkpt lat="43.79053" lon="7.37051">
        <ele>268</ele>
        <time>2013-11-02T13:11:55Z</time>
      </trkpt>
      <trkpt lat="43.79043" lon="7.37048">
        <ele>268</ele>
        <time>2013-11-02T13:12:00Z</time>
      </trkpt>
      <trkpt lat="43.79034" lon="7.37044">
        <ele>269</ele>
        <time>2013-11-02T13:12:05Z</time>
      </trkpt>
      <trkpt lat="43.79025" lon="7.3704">
        <ele>269</ele>
        <time>2013-11-02T13:12:10Z</time>
      </trkpt>
      <trkpt lat="43.79016" lon="7.37037">
        <ele>270</ele>
        <time>2013-11-02T13:12:15Z</time>
      </trkpt>
      <trkpt lat="43.79005" lon="7.37033">
        <ele>271</ele>
        <time>2013-11-02T13:12:20Z</time>
      </trkpt>
      <trkpt lat="43.78996" lon="7.37029">
        <ele>271</ele>
        <time>2013-11-02T13:12:25Z</time>
      </trkpt>
      <trkpt lat="43.78986" lon="7.37025">
        <ele>272</ele>
        <time>2013-11-02T13:12:30Z</time>
      </trkpt>
      <trkpt lat="43.78976" lon="7.37023">
        <ele>271</ele>
        <time>2013-11-02T13:12:35Z</time>
      </trkpt>
      <trkpt lat="43.78966" lon="7.37022">
        <ele>271</ele>
        <time>2013-11-02T13:12:40Z</time>
      </trkpt>
      <trkpt lat="43.78956" lon="7.3702">
        <ele>271</ele>
        <time>2013-11-02T13:12:45Z</time>
      </trkpt>
      <trkpt lat="43.78946" lon="7.37017">
        <ele>271</ele>
        <time>2013-11-02T13:12:50Z</time>
      </trkpt>
      <trkpt lat="43.78941" lon="7.37004">
        <ele>273</ele>
        <time>2013-11-02T13:12:55Z</time>
      </trkpt>
      <trkpt lat="43.78942" lon="7.36989">
        <ele>289</ele>
        <time>2013-11-02T13:13:00Z</time>
      </trkpt>
      <trkpt lat="43.78939" lon="7.36968">
        <ele>293</ele>
        <time>2013-11-02T13:13:05Z</time>
      </trkpt>
      <trkpt lat="43.78932" lon="7.36942">
        <ele>298</ele>
        <time>2013-11-02T13:13:10Z</time>
      </trkpt>
      <trkpt lat="43.78946" lon="7.36935">
        <ele>299</ele>
        <time>2013-11-02T13:13:15Z</time>
      </trkpt>
      <trkpt lat="43.78961" lon="7.3693">
        <ele>300</ele>
        <time>2013-11-02T13:13:20Z</time>
      </trkpt>
      <trkpt lat="43.78976" lon="7.36931">
        <ele>302</ele>
        <time>2013-11-02T13:13:25Z</time>
      </trkpt>
      <trkpt lat="43.78991" lon="7.36935">
        <ele>304</ele>
        <time>2013-11-02T13:13:30Z</time>
      </trkpt>
      <trkpt lat="43.79005" lon="7.36937">
        <ele>307</ele>
        <time>2013-11-02T13:13:35Z</time>
      </trkpt>
      <trkpt lat="43.79021" lon="7.36938">
        <ele>305</ele>
        <time>2013-11-02T13:13:40Z</time>
      </trkpt>
      <trkpt lat="43.79038" lon="7.36939">
        <ele>304</ele>
        <time>2013-11-02T13:13:45Z</time>
      </trkpt>
      <trkpt lat="43.79054" lon="7.36939">
        <ele>304</ele>
        <time>2013-11-02T13:13:50Z</time>
      </trkpt>
      <trkpt lat="43.79071" lon="7.36938">
        <ele>305</ele>
        <time>2013-11-02T13:13:55Z</time>
      </trkpt>
      <trkpt lat="43.79088" lon="7.36937">
        <ele>301</ele>
        <time>2013-11-02T13:14:00Z</time>
      </trkpt>
      <trkpt lat="43.79104" lon="7.36935">
        <ele>299</ele>
        <time>2013-11-02T13:14:05Z</time>
      </trkpt>
      <trkpt lat="43.79122" lon="7.36932">
        <ele>296</ele>
        <time>2013-11-02T13:14:10Z</time>
      </trkpt>
      <trkpt lat="43.7914" lon="7.36926">
        <ele>294</ele>
        <time>2013-11-02T13:14:15Z</time>
      </trkpt>
      <trkpt lat="43.79156" lon="7.36918">
        <ele>295</ele>
        <time>2013-11-02T13:14:20Z</time>
      </trkpt>
      <trkpt lat="43.79172" lon="7.3691">
        <ele>296</ele>
        <time>2013-11-02T13:14:25Z</time>
      </trkpt>
      <trkpt lat="43.79194" lon="7.36902">
        <ele>296</ele>
        <time>2013-11-02T13:14:30Z</time>
      </trkpt>
      <trkpt lat="43.79213" lon="7.36902">
        <ele>296</ele>
        <time>2013-11-02T13:14:35Z</time>
      </trkpt>
      <trkpt lat="43.79221" lon="7.36903">
        <ele>295</ele>
        <time>2013-11-02T13:14:40Z</time>
      </trkpt>
      <trkpt lat="43.79228" lon="7.36901">
        <ele>295</ele>
        <time>2013-11-02T13:14:45Z</time>
      </trkpt>
      <trkpt lat="43.79234" lon="7.36904">
        <ele>294</ele>
        <time>2013-11-02T13:14:50Z</time>
      </trkpt>
      <trkpt lat="43.7924" lon="7.36907">
        <ele>293</ele>
        <time>2013-11-02T13:14:55Z</time>
      </trkpt>
      <trkpt lat="43.79245" lon="7.3691">
        <ele>292</ele>
        <time>2013-11-02T13:15:00Z</time>
      </trkpt>
      <trkpt lat="43.79241" lon="7.36914">
        <ele>292</ele>
        <time>2013-11-02T13:15:05Z</time>
      </trkpt>
      <trkpt lat="43.79236" lon="7.36905">
        <ele>294</ele>
        <time>2013-11-02T13:15:10Z</time>
      </trkpt>
      <trkpt lat="43.79229" lon="7.36897">
        <ele>295</ele>
        <time>2013-11-02T13:15:15Z</time>
      </trkpt>
      <trkpt lat="43.7922" lon="7.36891">
        <ele>296</ele>
        <time>2013-11-02T13:15:20Z</time>
      </trkpt>
      <trkpt lat="43.79211" lon="7.36888">
        <ele>296</ele>
        <time>2013-11-02T13:15:25Z</time>
      </trkpt>
      <trkpt lat="43.79201" lon="7.36885">
        <ele>297</ele>
        <time>2013-11-02T13:15:30Z</time>
      </trkpt>
      <trkpt lat="43.79192" lon="7.36883">
        <ele>297</ele>
        <time>2013-11-02T13:15:35Z</time>
      </trkpt>
      <trkpt lat="43.79185" lon="7.36878">
        <ele>298</ele>
        <time>2013-11-02T13:15:40Z</time>
      </trkpt>
      <trkpt lat="43.79184" lon="7.36869">
        <ele>298</ele>
        <time>2013-11-02T13:15:45Z</time>
      </trkpt>
      <trkpt lat="43.79184" lon="7.36879">
        <ele>298</ele>
        <time>2013-11-02T13:15:55Z</time>
      </trkpt>
      <trkpt lat="43.79184" lon="7.36869">
        <ele>298</ele>
        <time>2013-11-02T13:16:05Z</time>
      </trkpt>
      <trkpt lat="43.79184" lon="7.3688">
        <ele>298</ele>
        <time>2013-11-02T13:16:15Z</time>
      </trkpt>
      <trkpt lat="43.79189" lon="7.36887">
        <ele>297</ele>
        <time>2013-11-02T13:16:20Z</time>
      </trkpt>
      <trkpt lat="43.79194" lon="7.369">
        <ele>296</ele>
        <time>2013-11-02T13:16:25Z</time>
      </trkpt>
      <trkpt lat="43.792" lon="7.36897">
        <ele>296</ele>
        <time>2013-11-02T13:16:30Z</time>
      </trkpt>
      <trkpt lat="43.79206" lon="7.36897">
        <ele>296</ele>
        <time>2013-11-02T13:16:35Z</time>
      </trkpt>
      <trkpt lat="43.7921" lon="7.36903">
        <ele>296</ele>
        <time>2013-11-02T13:16:40Z</time>
      </trkpt>
      <trkpt lat="43.79216" lon="7.36896">
        <ele>296</ele>
        <time>2013-11-02T13:16:45Z</time>
      </trkpt>
      <trkpt lat="43.79221" lon="7.36888">
        <ele>296</ele>
        <time>2013-11-02T13:16:50Z</time>
      </trkpt>
      <trkpt lat="43.7922" lon="7.36882">
        <ele>296</ele>
        <time>2013-11-02T13:16:55Z</time>
      </trkpt>
      <trkpt lat="43.79213" lon="7.36882">
        <ele>296</ele>
        <time>2013-11-02T13:17:00Z</time>
      </trkpt>
      <trkpt lat="43.79207" lon="7.36879">
        <ele>297</ele>
        <time>2013-11-02T13:17:05Z</time>
      </trkpt>
      <trkpt lat="43.79201" lon="7.36882">
        <ele>297</ele>
        <time>2013-11-02T13:17:10Z</time>
      </trkpt>
      <trkpt lat="43.79197" lon="7.36883">
        <ele>297</ele>
        <time>2013-11-02T13:17:15Z</time>
      </trkpt>
      <trkpt lat="43.79191" lon="7.36883">
        <ele>297</ele>
        <time>2013-11-02T13:17:20Z</time>
      </trkpt>
      <trkpt lat="43.79187" lon="7.36876">
        <ele>298</ele>
        <time>2013-11-02T13:17:25Z</time>
      </trkpt>
      <trkpt lat="43.79185" lon="7.36867">
        <ele>298</ele>
        <time>2013-11-02T13:17:30Z</time>
      </trkpt>
      <trkpt lat="43.79183" lon="7.36858">
        <ele>299</ele>
        <time>2013-11-02T13:17:35Z</time>
      </trkpt>
      <trkpt lat="43.79182" lon="7.36849">
        <ele>300</ele>
        <time>2013-11-02T13:17:40Z</time>
      </trkpt>
      <trkpt lat="43.79181" lon="7.36838">
        <ele>301</ele>
        <time>2013-11-02T13:17:45Z</time>
      </trkpt>
      <trkpt lat="43.79181" lon="7.36828">
        <ele>303</ele>
        <time>2013-11-02T13:17:50Z</time>
      </trkpt>
      <trkpt lat="43.7918" lon="7.36817">
        <ele>302</ele>
        <time>2013-11-02T13:17:55Z</time>
      </trkpt>
      <trkpt lat="43.79179" lon="7.36806">
        <ele>302</ele>
        <time>2013-11-02T13:18:00Z</time>
      </trkpt>
      <trkpt lat="43.79177" lon="7.36797">
        <ele>302</ele>
        <time>2013-11-02T13:18:05Z</time>
      </trkpt>
      <trkpt lat="43.79174" lon="7.36787">
        <ele>302</ele>
        <time>2013-11-02T13:18:10Z</time>
      </trkpt>
      <trkpt lat="43.79169" lon="7.36778">
        <ele>302</ele>
        <time>2013-11-02T13:18:15Z</time>
      </trkpt>
      <trkpt lat="43.79162" lon="7.36772">
        <ele>307</ele>
        <time>2013-11-02T13:18:20Z</time>
      </trkpt>
      <trkpt lat="43.79153" lon="7.3677">
        <ele>307</ele>
        <time>2013-11-02T13:18:25Z</time>
      </trkpt>
      <trkpt lat="43.79145" lon="7.36771">
        <ele>308</ele>
        <time>2013-11-02T13:18:30Z</time>
      </trkpt>
      <trkpt lat="43.79136" lon="7.36772">
        <ele>308</ele>
        <time>2013-11-02T13:18:35Z</time>
      </trkpt>
      <trkpt lat="43.79126" lon="7.36775">
        <ele>309</ele>
        <time>2013-11-02T13:18:40Z</time>
      </trkpt>
      <trkpt lat="43.79117" lon="7.36777">
        <ele>309</ele>
        <time>2013-11-02T13:18:45Z</time>
      </trkpt>
      <trkpt lat="43.79107" lon="7.36778">
        <ele>310</ele>
        <time>2013-11-02T13:18:50Z</time>
      </trkpt>
      <trkpt lat="43.79099" lon="7.36779">
        <ele>310</ele>
        <time>2013-11-02T13:18:55Z</time>
      </trkpt>
      <trkpt lat="43.79089" lon="7.36779">
        <ele>310</ele>
        <time>2013-11-02T13:19:00Z</time>
      </trkpt>
      <trkpt lat="43.79081" lon="7.36778">
        <ele>316</ele>
        <time>2013-11-02T13:19:05Z</time>
      </trkpt>
      <trkpt lat="43.7907" lon="7.36776">
        <ele>316</ele>
        <time>2013-11-02T13:19:10Z</time>
      </trkpt>
      <trkpt lat="43.7906" lon="7.36773">
        <ele>316</ele>
        <time>2013-11-02T13:19:15Z</time>
      </trkpt>
      <trkpt lat="43.79051" lon="7.36771">
        <ele>317</ele>
        <time>2013-11-02T13:19:20Z</time>
      </trkpt>
      <trkpt lat="43.7904" lon="7.3677">
        <ele>317</ele>
        <time>2013-11-02T13:19:25Z</time>
      </trkpt>
      <trkpt lat="43.79031" lon="7.3677">
        <ele>318</ele>
        <time>2013-11-02T13:19:30Z</time>
      </trkpt>
      <trkpt lat="43.79021" lon="7.36771">
        <ele>318</ele>
        <time>2013-11-02T13:19:35Z</time>
      </trkpt>
      <trkpt lat="43.79011" lon="7.36769">
        <ele>318</ele>
        <time>2013-11-02T13:19:40Z</time>
      </trkpt>
      <trkpt lat="43.79001" lon="7.3677">
        <ele>318</ele>
        <time>2013-11-02T13:19:45Z</time>
      </trkpt>
      <trkpt lat="43.78992" lon="7.3677">
        <ele>319</ele>
        <time>2013-11-02T13:19:50Z</time>
      </trkpt>
      <trkpt lat="43.78982" lon="7.3677">
        <ele>319</ele>
        <time>2013-11-02T13:19:55Z</time>
      </trkpt>
      <trkpt lat="43.78973" lon="7.3677">
        <ele>319</ele>
        <time>2013-11-02T13:20:00Z</time>
      </trkpt>
      <trkpt lat="43.78963" lon="7.3677">
        <ele>319</ele>
        <time>2013-11-02T13:20:05Z</time>
      </trkpt>
      <trkpt lat="43.78953" lon="7.36769">
        <ele>319</ele>
        <time>2013-11-02T13:20:10Z</time>
      </trkpt>
      <trkpt lat="43.78944" lon="7.3677">
        <ele>318</ele>
        <time>2013-11-02T13:20:15Z</time>
      </trkpt>
      <trkpt lat="43.78934" lon="7.36768">
        <ele>318</ele>
        <time>2013-11-02T13:20:20Z</time>
      </trkpt>
      <trkpt lat="43.78926" lon="7.36769">
        <ele>318</ele>
        <time>2013-11-02T13:20:25Z</time>
      </trkpt>
      <trkpt lat="43.7893" lon="7.36778">
        <ele>318</ele>
        <time>2013-11-02T13:20:30Z</time>
      </trkpt>
      <trkpt lat="43.78932" lon="7.36789">
        <ele>318</ele>
        <time>2013-11-02T13:20:35Z</time>
      </trkpt>
      <trkpt lat="43.78934" lon="7.36798">
        <ele>318</ele>
        <time>2013-11-02T13:20:40Z</time>
      </trkpt>
      <trkpt lat="43.78937" lon="7.36807">
        <ele>318</ele>
        <time>2013-11-02T13:20:45Z</time>
      </trkpt>
      <trkpt lat="43.78941" lon="7.36815">
        <ele>318</ele>
        <time>2013-11-02T13:20:50Z</time>
      </trkpt>
      <trkpt lat="43.78947" lon="7.36821">
        <ele>319</ele>
        <time>2013-11-02T13:20:55Z</time>
      </trkpt>
      <trkpt lat="43.78952" lon="7.36824">
        <ele>319</ele>
        <time>2013-11-02T13:21:00Z</time>
      </trkpt>
      <trkpt lat="43.78953" lon="7.36811">
        <ele>319</ele>
        <time>2013-11-02T13:21:05Z</time>
      </trkpt>
      <trkpt lat="43.78954" lon="7.36794">
        <ele>319</ele>
        <time>2013-11-02T13:21:10Z</time>
      </trkpt>
      <trkpt lat="43.78953" lon="7.36774">
        <ele>319</ele>
        <time>2013-11-02T13:21:15Z</time>
      </trkpt>
      <trkpt lat="43.78947" lon="7.36768">
        <ele>318</ele>
        <time>2013-11-02T13:21:20Z</time>
      </trkpt>
      <trkpt lat="43.78941" lon="7.36769">
        <ele>318</ele>
        <time>2013-11-02T13:21:25Z</time>
      </trkpt>
      <trkpt lat="43.78933" lon="7.36767">
        <ele>318</ele>
        <time>2013-11-02T13:21:30Z</time>
      </trkpt>
      <trkpt lat="43.78925" lon="7.36765">
        <ele>318</ele>
        <time>2013-11-02T13:21:35Z</time>
      </trkpt>
      <trkpt lat="43.78918" lon="7.36762">
        <ele>318</ele>
        <time>2013-11-02T13:21:40Z</time>
      </trkpt>
      <trkpt lat="43.78913" lon="7.36756">
        <ele>316</ele>
        <time>2013-11-02T13:21:45Z</time>
      </trkpt>
      <trkpt lat="43.7891" lon="7.36747">
        <ele>316</ele>
        <time>2013-11-02T13:22:42Z</time>
      </trkpt>
      <trkpt lat="43.78907" lon="7.36733">
        <ele>314</ele>
        <time>2013-11-02T13:22:47Z</time>
      </trkpt>
      <trkpt lat="43.789" lon="7.36729">
        <ele>314</ele>
        <time>2013-11-02T13:22:52Z</time>
      </trkpt>
      <trkpt lat="43.78892" lon="7.36741">
        <ele>314</ele>
        <time>2013-11-02T13:22:57Z</time>
      </trkpt>
      <trkpt lat="43.78883" lon="7.36747">
        <ele>314</ele>
        <time>2013-11-02T13:23:02Z</time>
      </trkpt>
      <trkpt lat="43.78871" lon="7.36743">
        <ele>313</ele>
        <time>2013-11-02T13:23:07Z</time>
      </trkpt>
      <trkpt lat="43.78857" lon="7.36735">
        <ele>313</ele>
        <time>2013-11-02T13:23:12Z</time>
      </trkpt>
      <trkpt lat="43.78847" lon="7.36737">
        <ele>313</ele>
        <time>2013-11-02T13:23:17Z</time>
      </trkpt>
      <trkpt lat="43.78836" lon="7.3674">
        <ele>314</ele>
        <time>2013-11-02T13:23:22Z</time>
      </trkpt>
      <trkpt lat="43.7883" lon="7.36741">
        <ele>313</ele>
        <time>2013-11-02T13:23:27Z</time>
      </trkpt>
      <trkpt lat="43.78823" lon="7.36745">
        <ele>313</ele>
        <time>2013-11-02T13:23:32Z</time>
      </trkpt>
      <trkpt lat="43.78817" lon="7.36751">
        <ele>314</ele>
        <time>2013-11-02T13:23:37Z</time>
      </trkpt>
      <trkpt lat="43.78811" lon="7.36759">
        <ele>313</ele>
        <time>2013-11-02T13:23:42Z</time>
      </trkpt>
      <trkpt lat="43.78805" lon="7.36759">
        <ele>313</ele>
        <time>2013-11-02T13:24:03Z</time>
      </trkpt>
      <trkpt lat="43.78797" lon="7.36756">
        <ele>313</ele>
        <time>2013-11-02T13:24:11Z</time>
      </trkpt>
      <trkpt lat="43.78779" lon="7.36757">
        <ele>314</ele>
        <time>2013-11-02T13:24:16Z</time>
      </trkpt>
      <trkpt lat="43.78759" lon="7.36756">
        <ele>315</ele>
        <time>2013-11-02T13:24:21Z</time>
      </trkpt>
      <trkpt lat="43.78741" lon="7.36753">
        <ele>317</ele>
        <time>2013-11-02T13:24:26Z</time>
      </trkpt>
      <trkpt lat="43.78728" lon="7.36755">
        <ele>318</ele>
        <time>2013-11-02T13:24:31Z</time>
      </trkpt>
      <trkpt lat="43.78719" lon="7.36761">
        <ele>318</ele>
        <time>2013-11-02T13:24:36Z</time>
      </trkpt>
      <trkpt lat="43.78706" lon="7.36762">
        <ele>318</ele>
        <time>2013-11-02T13:24:41Z</time>
      </trkpt>
      <trkpt lat="43.78698" lon="7.3677">
        <ele>318</ele>
        <time>2013-11-02T13:24:46Z</time>
      </trkpt>
      <trkpt lat="43.78692" lon="7.36778">
        <ele>319</ele>
        <time>2013-11-02T13:24:51Z</time>
      </trkpt>
      <trkpt lat="43.78682" lon="7.36783">
        <ele>319</ele>
        <time>2013-11-02T13:24:56Z</time>
      </trkpt>
      <trkpt lat="43.78674" lon="7.36778">
        <ele>319</ele>
        <time>2013-11-02T13:25:01Z</time>
      </trkpt>
      <trkpt lat="43.78665" lon="7.36773">
        <ele>320</ele>
        <time>2013-11-02T13:25:06Z</time>
      </trkpt>
      <trkpt lat="43.78658" lon="7.36776">
        <ele>320</ele>
        <time>2013-11-02T13:25:11Z</time>
      </trkpt>
      <trkpt lat="43.78646" lon="7.36781">
        <ele>321</ele>
        <time>2013-11-02T13:25:16Z</time>
      </trkpt>
      <trkpt lat="43.78639" lon="7.36792">
        <ele>321</ele>
        <time>2013-11-02T13:25:21Z</time>
      </trkpt>
      <trkpt lat="43.78633" lon="7.36799">
        <ele>321</ele>
        <time>2013-11-02T13:25:26Z</time>
      </trkpt>
      <trkpt lat="43.78631" lon="7.3681">
        <ele>322</ele>
        <time>2013-11-02T13:25:38Z</time>
      </trkpt>
      <trkpt lat="43.78627" lon="7.36815">
        <ele>322</ele>
        <time>2013-11-02T13:25:47Z</time>
      </trkpt>
      <trkpt lat="43.78622" lon="7.36823">
        <ele>322</ele>
        <time>2013-11-02T13:25:52Z</time>
      </trkpt>
      <trkpt lat="43.78619" lon="7.36833">
        <ele>322</ele>
        <time>2013-11-02T13:25:57Z</time>
      </trkpt>
      <trkpt lat="43.78616" lon="7.3684">
        <ele>323</ele>
        <time>2013-11-02T13:26:02Z</time>
      </trkpt>
      <trkpt lat="43.7861" lon="7.36849">
        <ele>323</ele>
        <time>2013-11-02T13:26:11Z</time>
      </trkpt>
      <trkpt lat="43.78606" lon="7.36852">
        <ele>323</ele>
        <time>2013-11-02T13:26:16Z</time>
      </trkpt>
      <trkpt lat="43.78599" lon="7.36858">
        <ele>323</ele>
        <time>2013-11-02T13:26:21Z</time>
      </trkpt>
      <trkpt lat="43.78591" lon="7.36854">
        <ele>323</ele>
        <time>2013-11-02T13:26:26Z</time>
      </trkpt>
      <trkpt lat="43.78584" lon="7.36851">
        <ele>323</ele>
        <time>2013-11-02T13:26:31Z</time>
      </trkpt>
      <trkpt lat="43.78578" lon="7.36853">
        <ele>319</ele>
        <time>2013-11-02T13:26:36Z</time>
      </trkpt>
      <trkpt lat="43.78573" lon="7.36859">
        <ele>318</ele>
        <time>2013-11-02T13:26:41Z</time>
      </trkpt>
      <trkpt lat="43.78567" lon="7.36867">
        <ele>317</ele>
        <time>2013-11-02T13:26:46Z</time>
      </trkpt>
      <trkpt lat="43.7856" lon="7.36868">
        <ele>317</ele>
        <time>2013-11-02T13:26:51Z</time>
      </trkpt>
      <trkpt lat="43.78553" lon="7.3686">
        <ele>316</ele>
        <time>2013-11-02T13:26:56Z</time>
      </trkpt>
      <trkpt lat="43.7854" lon="7.36851">
        <ele>315</ele>
        <time>2013-11-02T13:27:01Z</time>
      </trkpt>
      <trkpt lat="43.78533" lon="7.3684">
        <ele>315</ele>
        <time>2013-11-02T13:27:06Z</time>
      </trkpt>
      <trkpt lat="43.7853" lon="7.36832">
        <ele>317</ele>
        <time>2013-11-02T13:27:11Z</time>
      </trkpt>
      <trkpt lat="43.78528" lon="7.36823">
        <ele>317</ele>
        <time>2013-11-02T13:27:16Z</time>
      </trkpt>
      <trkpt lat="43.78524" lon="7.3681">
        <ele>317</ele>
        <time>2013-11-02T13:27:21Z</time>
      </trkpt>
      <trkpt lat="43.78515" lon="7.368">
        <ele>317</ele>
        <time>2013-11-02T13:27:26Z</time>
      </trkpt>
      <trkpt lat="43.78503" lon="7.36797">
        <ele>317</ele>
        <time>2013-11-02T13:27:31Z</time>
      </trkpt>
      <trkpt lat="43.78492" lon="7.3679">
        <ele>316</ele>
        <time>2013-11-02T13:27:36Z</time>
      </trkpt>
      <trkpt lat="43.78481" lon="7.36784">
        <ele>316</ele>
        <time>2013-11-02T13:27:41Z</time>
      </trkpt>
      <trkpt lat="43.78469" lon="7.3678">
        <ele>316</ele>
        <time>2013-11-02T13:27:46Z</time>
      </trkpt>
      <trkpt lat="43.78457" lon="7.36775">
        <ele>317</ele>
        <time>2013-11-02T13:27:51Z</time>
      </trkpt>
      <trkpt lat="43.7845" lon="7.36767">
        <ele>317</ele>
        <time>2013-11-02T13:27:56Z</time>
      </trkpt>
      <trkpt lat="43.78442" lon="7.36758">
        <ele>318</ele>
        <time>2013-11-02T13:28:01Z</time>
      </trkpt>
      <trkpt lat="43.78432" lon="7.36756">
        <ele>319</ele>
        <time>2013-11-02T13:28:06Z</time>
      </trkpt>
      <trkpt lat="43.78421" lon="7.36749">
        <ele>321</ele>
        <time>2013-11-02T13:28:11Z</time>
      </trkpt>
      <trkpt lat="43.78414" lon="7.36739">
        <ele>322</ele>
        <time>2013-11-02T13:28:16Z</time>
      </trkpt>
      <trkpt lat="43.78407" lon="7.36727">
        <ele>322</ele>
        <time>2013-11-02T13:28:21Z</time>
      </trkpt>
      <trkpt lat="43.784" lon="7.36716">
        <ele>322</ele>
        <time>2013-11-02T13:28:26Z</time>
      </trkpt>
      <trkpt lat="43.78394" lon="7.36706">
        <ele>323</ele>
        <time>2013-11-02T13:28:36Z</time>
      </trkpt>
      <trkpt lat="43.78389" lon="7.367">
        <ele>323</ele>
        <time>2013-11-02T13:28:41Z</time>
      </trkpt>
      <trkpt lat="43.78385" lon="7.36694">
        <ele>323</ele>
        <time>2013-11-02T13:28:46Z</time>
      </trkpt>
      <trkpt lat="43.78381" lon="7.36687">
        <ele>323</ele>
        <time>2013-11-02T13:28:51Z</time>
      </trkpt>
      <trkpt lat="43.78376" lon="7.36677">
        <ele>324</ele>
        <time>2013-11-02T13:28:56Z</time>
      </trkpt>
      <trkpt lat="43.78369" lon="7.36667">
        <ele>325</ele>
        <time>2013-11-02T13:29:01Z</time>
      </trkpt>
      <trkpt lat="43.78361" lon="7.36657">
        <ele>324</ele>
        <time>2013-11-02T13:29:06Z</time>
      </trkpt>
      <trkpt lat="43.78354" lon="7.36647">
        <ele>325</ele>
        <time>2013-11-02T13:29:11Z</time>
      </trkpt>
      <trkpt lat="43.78347" lon="7.36642">
        <ele>325</ele>
        <time>2013-11-02T13:29:16Z</time>
      </trkpt>
      <trkpt lat="43.7834" lon="7.36635">
        <ele>325</ele>
        <time>2013-11-02T13:29:21Z</time>
      </trkpt>
      <trkpt lat="43.78334" lon="7.36625">
        <ele>324</ele>
        <time>2013-11-02T13:29:26Z</time>
      </trkpt>
      <trkpt lat="43.78328" lon="7.36612">
        <ele>333</ele>
        <time>2013-11-02T13:29:31Z</time>
      </trkpt>
      <trkpt lat="43.78323" lon="7.36599">
        <ele>332</ele>
        <time>2013-11-02T13:29:36Z</time>
      </trkpt>
      <trkpt lat="43.78318" lon="7.36587">
        <ele>331</ele>
        <time>2013-11-02T13:29:41Z</time>
      </trkpt>
      <trkpt lat="43.78315" lon="7.36576">
        <ele>332</ele>
        <time>2013-11-02T13:29:46Z</time>
      </trkpt>
      <trkpt lat="43.7831" lon="7.36566">
        <ele>333</ele>
        <time>2013-11-02T13:29:51Z</time>
      </trkpt>
      <trkpt lat="43.78304" lon="7.36555">
        <ele>333</ele>
        <time>2013-11-02T13:29:56Z</time>
      </trkpt>
      <trkpt lat="43.78299" lon="7.36543">
        <ele>334</ele>
        <time>2013-11-02T13:30:01Z</time>
      </trkpt>
      <trkpt lat="43.78292" lon="7.36531">
        <ele>334</ele>
        <time>2013-11-02T13:30:06Z</time>
      </trkpt>
      <trkpt lat="43.78287" lon="7.36518">
        <ele>335</ele>
        <time>2013-11-02T13:30:11Z</time>
      </trkpt>
      <trkpt lat="43.78281" lon="7.36504">
        <ele>337</ele>
        <time>2013-11-02T13:30:16Z</time>
      </trkpt>
      <trkpt lat="43.78276" lon="7.3649">
        <ele>332</ele>
        <time>2013-11-02T13:30:21Z</time>
      </trkpt>
      <trkpt lat="43.78268" lon="7.36477">
        <ele>332</ele>
        <time>2013-11-02T13:30:26Z</time>
      </trkpt>
      <trkpt lat="43.78259" lon="7.36467">
        <ele>332</ele>
        <time>2013-11-02T13:30:31Z</time>
      </trkpt>
      <trkpt lat="43.78251" lon="7.36457">
        <ele>331</ele>
        <time>2013-11-02T13:30:36Z</time>
      </trkpt>
      <trkpt lat="43.78244" lon="7.36447">
        <ele>346</ele>
        <time>2013-11-02T13:30:41Z</time>
      </trkpt>
      <trkpt lat="43.78238" lon="7.36431">
        <ele>344</ele>
        <time>2013-11-02T13:30:46Z</time>
      </trkpt>
      <trkpt lat="43.78235" lon="7.36416">
        <ele>340</ele>
        <time>2013-11-02T13:30:51Z</time>
      </trkpt>
      <trkpt lat="43.78232" lon="7.36402">
        <ele>342</ele>
        <time>2013-11-02T13:30:56Z</time>
      </trkpt>
      <trkpt lat="43.78228" lon="7.36389">
        <ele>343</ele>
        <time>2013-11-02T13:31:01Z</time>
      </trkpt>
      <trkpt lat="43.78224" lon="7.3638">
        <ele>343</ele>
        <time>2013-11-02T13:31:06Z</time>
      </trkpt>
      <trkpt lat="43.78218" lon="7.36366">
        <ele>343</ele>
        <time>2013-11-02T13:31:11Z</time>
      </trkpt>
      <trkpt lat="43.78211" lon="7.3635">
        <ele>344</ele>
        <time>2013-11-02T13:31:16Z</time>
      </trkpt>
      <trkpt lat="43.78205" lon="7.36334">
        <ele>345</ele>
        <time>2013-11-02T13:31:21Z</time>
      </trkpt>
      <trkpt lat="43.78198" lon="7.36318">
        <ele>342</ele>
        <time>2013-11-02T13:31:26Z</time>
      </trkpt>
      <trkpt lat="43.78193" lon="7.36302">
        <ele>341</ele>
        <time>2013-11-02T13:31:31Z</time>
      </trkpt>
      <trkpt lat="43.7819" lon="7.36287">
        <ele>341</ele>
        <time>2013-11-02T13:31:36Z</time>
      </trkpt>
      <trkpt lat="43.78186" lon="7.36271">
        <ele>342</ele>
        <time>2013-11-02T13:31:41Z</time>
      </trkpt>
      <trkpt lat="43.78182" lon="7.36255">
        <ele>344</ele>
        <time>2013-11-02T13:31:46Z</time>
      </trkpt>
      <trkpt lat="43.78178" lon="7.36243">
        <ele>341</ele>
        <time>2013-11-02T13:31:51Z</time>
      </trkpt>
      <trkpt lat="43.78171" lon="7.36231">
        <ele>338</ele>
        <time>2013-11-02T13:31:56Z</time>
      </trkpt>
      <trkpt lat="43.78162" lon="7.36221">
        <ele>351</ele>
        <time>2013-11-02T13:32:01Z</time>
      </trkpt>
      <trkpt lat="43.78152" lon="7.36214">
        <ele>351</ele>
        <time>2013-11-02T13:32:06Z</time>
      </trkpt>
      <trkpt lat="43.7814" lon="7.36206">
        <ele>352</ele>
        <time>2013-11-02T13:32:11Z</time>
      </trkpt>
      <trkpt lat="43.78131" lon="7.36202">
        <ele>353</ele>
        <time>2013-11-02T13:32:16Z</time>
      </trkpt>
      <trkpt lat="43.78119" lon="7.36196">
        <ele>354</ele>
        <time>2013-11-02T13:32:21Z</time>
      </trkpt>
      <trkpt lat="43.78108" lon="7.3619">
        <ele>355</ele>
        <time>2013-11-02T13:32:26Z</time>
      </trkpt>
      <trkpt lat="43.78097" lon="7.36183">
        <ele>355</ele>
        <time>2013-11-02T13:32:31Z</time>
      </trkpt>
      <trkpt lat="43.78086" lon="7.36174">
        <ele>356</ele>
        <time>2013-11-02T13:32:36Z</time>
      </trkpt>
      <trkpt lat="43.78075" lon="7.36166">
        <ele>355</ele>
        <time>2013-11-02T13:32:41Z</time>
      </trkpt>
      <trkpt lat="43.78065" lon="7.36161">
        <ele>354</ele>
        <time>2013-11-02T13:32:46Z</time>
      </trkpt>
      <trkpt lat="43.78055" lon="7.36158">
        <ele>354</ele>
        <time>2013-11-02T13:32:51Z</time>
      </trkpt>
      <trkpt lat="43.78048" lon="7.36157">
        <ele>354</ele>
        <time>2013-11-02T13:32:56Z</time>
      </trkpt>
      <trkpt lat="43.78042" lon="7.36158">
        <ele>355</ele>
        <time>2013-11-02T13:33:01Z</time>
      </trkpt>
      <trkpt lat="43.78037" lon="7.36156">
        <ele>356</ele>
        <time>2013-11-02T13:33:06Z</time>
      </trkpt>
      <trkpt lat="43.78032" lon="7.36156">
        <ele>356</ele>
        <time>2013-11-02T13:33:11Z</time>
      </trkpt>
      <trkpt lat="43.78026" lon="7.36151">
        <ele>357</ele>
        <time>2013-11-02T13:33:16Z</time>
      </trkpt>
      <trkpt lat="43.78019" lon="7.36143">
        <ele>357</ele>
        <time>2013-11-02T13:33:21Z</time>
      </trkpt>
      <trkpt lat="43.78008" lon="7.36133">
        <ele>356</ele>
        <time>2013-11-02T13:33:26Z</time>
      </trkpt>
      <trkpt lat="43.77985" lon="7.36134">
        <ele>363</ele>
        <time>2013-11-02T13:33:31Z</time>
      </trkpt>
      <trkpt lat="43.77964" lon="7.36107">
        <ele>359</ele>
        <time>2013-11-02T13:33:36Z</time>
      </trkpt>
      <trkpt lat="43.7796" lon="7.36067">
        <ele>340</ele>
        <time>2013-11-02T13:33:41Z</time>
      </trkpt>
      <trkpt lat="43.77948" lon="7.36052">
        <ele>338</ele>
        <time>2013-11-02T13:33:46Z</time>
      </trkpt>
      <trkpt lat="43.77939" lon="7.3605">
        <ele>338</ele>
        <time>2013-11-02T13:33:51Z</time>
      </trkpt>
      <trkpt lat="43.77934" lon="7.36062">
        <ele>340</ele>
        <time>2013-11-02T13:33:56Z</time>
      </trkpt>
      <trkpt lat="43.77928" lon="7.36071">
        <ele>343</ele>
        <time>2013-11-02T13:34:01Z</time>
      </trkpt>
      <trkpt lat="43.77933" lon="7.36062">
        <ele>341</ele>
        <time>2013-11-02T13:34:37Z</time>
      </trkpt>
      <trkpt lat="43.77927" lon="7.36059">
        <ele>340</ele>
        <time>2013-11-02T13:34:42Z</time>
      </trkpt>
      <trkpt lat="43.77919" lon="7.36068">
        <ele>343</ele>
        <time>2013-11-02T13:34:47Z</time>
      </trkpt>
      <trkpt lat="43.77913" lon="7.36077">
        <ele>347</ele>
        <time>2013-11-02T13:34:52Z</time>
      </trkpt>
      <trkpt lat="43.77902" lon="7.36079">
        <ele>344</ele>
        <time>2013-11-02T13:34:57Z</time>
      </trkpt>
      <trkpt lat="43.77893" lon="7.36064">
        <ele>341</ele>
        <time>2013-11-02T13:35:02Z</time>
      </trkpt>
      <trkpt lat="43.77875" lon="7.36054">
        <ele>339</ele>
        <time>2013-11-02T13:35:07Z</time>
      </trkpt>
      <trkpt lat="43.7785" lon="7.36051">
        <ele>339</ele>
        <time>2013-11-02T13:35:12Z</time>
      </trkpt>
      <trkpt lat="43.77837" lon="7.36033">
        <ele>336</ele>
        <time>2013-11-02T13:35:17Z</time>
      </trkpt>
      <trkpt lat="43.77824" lon="7.36045">
        <ele>341</ele>
        <time>2013-11-02T13:35:22Z</time>
      </trkpt>
      <trkpt lat="43.77812" lon="7.36049">
        <ele>341</ele>
        <time>2013-11-02T13:35:27Z</time>
      </trkpt>
      <trkpt lat="43.77798" lon="7.36021">
        <ele>339</ele>
        <time>2013-11-02T13:35:32Z</time>
      </trkpt>
      <trkpt lat="43.77788" lon="7.36">
        <ele>338</ele>
        <time>2013-11-02T13:35:37Z</time>
      </trkpt>
      <trkpt lat="43.77779" lon="7.35983">
        <ele>329</ele>
        <time>2013-11-02T13:35:42Z</time>
      </trkpt>
      <trkpt lat="43.77768" lon="7.3597">
        <ele>329</ele>
        <time>2013-11-02T13:35:47Z</time>
      </trkpt>
      <trkpt lat="43.77754" lon="7.35962">
        <ele>329</ele>
        <time>2013-11-02T13:35:52Z</time>
      </trkpt>
      <trkpt lat="43.77741" lon="7.35951">
        <ele>333</ele>
        <time>2013-11-02T13:35:57Z</time>
      </trkpt>
      <trkpt lat="43.7773" lon="7.35938">
        <ele>333</ele>
        <time>2013-11-02T13:36:02Z</time>
      </trkpt>
      <trkpt lat="43.77723" lon="7.35924">
        <ele>332</ele>
        <time>2013-11-02T13:36:07Z</time>
      </trkpt>
      <trkpt lat="43.77718" lon="7.35916">
        <ele>330</ele>
        <time>2013-11-02T13:36:12Z</time>
      </trkpt>
      <trkpt lat="43.77717" lon="7.35909">
        <ele>329</ele>
        <time>2013-11-02T13:36:26Z</time>
      </trkpt>
      <trkpt lat="43.77716" lon="7.35896">
        <ele>329</ele>
        <time>2013-11-02T13:36:31Z</time>
      </trkpt>
      <trkpt lat="43.77713" lon="7.35868">
        <ele>329</ele>
        <time>2013-11-02T13:36:36Z</time>
      </trkpt>
      <trkpt lat="43.77715" lon="7.35842">
        <ele>329</ele>
        <time>2013-11-02T13:36:41Z</time>
      </trkpt>
      <trkpt lat="43.77717" lon="7.35815">
        <ele>328</ele>
        <time>2013-11-02T13:36:46Z</time>
      </trkpt>
      <trkpt lat="43.7771" lon="7.35788">
        <ele>329</ele>
        <time>2013-11-02T13:36:51Z</time>
      </trkpt>
      <trkpt lat="43.77707" lon="7.35759">
        <ele>329</ele>
        <time>2013-11-02T13:36:56Z</time>
      </trkpt>
      <trkpt lat="43.77706" lon="7.35734">
        <ele>329</ele>
        <time>2013-11-02T13:37:01Z</time>
      </trkpt>
      <trkpt lat="43.77712" lon="7.35714">
        <ele>328</ele>
        <time>2013-11-02T13:37:06Z</time>
      </trkpt>
      <trkpt lat="43.77722" lon="7.35703">
        <ele>327</ele>
        <time>2013-11-02T13:37:11Z</time>
      </trkpt>
      <trkpt lat="43.7772" lon="7.35682">
        <ele>327</ele>
        <time>2013-11-02T13:37:16Z</time>
      </trkpt>
      <trkpt lat="43.77705" lon="7.35666">
        <ele>326</ele>
        <time>2013-11-02T13:37:21Z</time>
      </trkpt>
      <trkpt lat="43.77691" lon="7.35669">
        <ele>332</ele>
        <time>2013-11-02T13:37:26Z</time>
      </trkpt>
      <trkpt lat="43.7768" lon="7.35653">
        <ele>330</ele>
        <time>2013-11-02T13:37:31Z</time>
      </trkpt>
      <trkpt lat="43.77673" lon="7.3564">
        <ele>329</ele>
        <time>2013-11-02T13:37:36Z</time>
      </trkpt>
      <trkpt lat="43.7767" lon="7.35623">
        <ele>327</ele>
        <time>2013-11-02T13:37:41Z</time>
      </trkpt>
      <trkpt lat="43.77664" lon="7.35605">
        <ele>331</ele>
        <time>2013-11-02T13:37:46Z</time>
      </trkpt>
      <trkpt lat="43.77656" lon="7.35586">
        <ele>331</ele>
        <time>2013-11-02T13:37:51Z</time>
      </trkpt>
      <trkpt lat="43.77642" lon="7.35566">
        <ele>328</ele>
        <time>2013-11-02T13:37:56Z</time>
      </trkpt>
      <trkpt lat="43.77631" lon="7.35553">
        <ele>327</ele>
        <time>2013-11-02T13:38:01Z</time>
      </trkpt>
      <trkpt lat="43.77617" lon="7.35539">
        <ele>327</ele>
        <time>2013-11-02T13:38:06Z</time>
      </trkpt>
      <trkpt lat="43.77601" lon="7.35541">
        <ele>328</ele>
        <time>2013-11-02T13:38:11Z</time>
      </trkpt>
      <trkpt lat="43.77588" lon="7.35539">
        <ele>328</ele>
        <time>2013-11-02T13:38:16Z</time>
      </trkpt>
      <trkpt lat="43.77581" lon="7.35529">
        <ele>323</ele>
        <time>2013-11-02T13:38:21Z</time>
      </trkpt>
      <trkpt lat="43.77583" lon="7.35518">
        <ele>324</ele>
        <time>2013-11-02T13:38:26Z</time>
      </trkpt>
      <trkpt lat="43.77588" lon="7.35519">
        <ele>328</ele>
        <time>2013-11-02T13:38:31Z</time>
      </trkpt>
      <trkpt lat="43.77593" lon="7.35523">
        <ele>328</ele>
        <time>2013-11-02T13:38:36Z</time>
      </trkpt>
      <trkpt lat="43.77602" lon="7.35525">
        <ele>328</ele>
        <time>2013-11-02T13:38:41Z</time>
      </trkpt>
      <trkpt lat="43.77615" lon="7.35518">
        <ele>327</ele>
        <time>2013-11-02T13:38:46Z</time>
      </trkpt>
      <trkpt lat="43.77635" lon="7.35537">
        <ele>327</ele>
        <time>2013-11-02T13:38:51Z</time>
      </trkpt>
      <trkpt lat="43.77651" lon="7.35543">
        <ele>327</ele>
        <time>2013-11-02T13:38:56Z</time>
      </trkpt>
      <trkpt lat="43.77666" lon="7.35553">
        <ele>327</ele>
        <time>2013-11-02T13:39:01Z</time>
      </trkpt>
      <trkpt lat="43.77679" lon="7.35534">
        <ele>315</ele>
        <time>2013-11-02T13:39:06Z</time>
      </trkpt>
      <trkpt lat="43.77696" lon="7.35511">
        <ele>312</ele>
        <time>2013-11-02T13:39:11Z</time>
      </trkpt>
      <trkpt lat="43.77713" lon="7.35516">
        <ele>309</ele>
        <time>2013-11-02T13:39:16Z</time>
      </trkpt>
      <trkpt lat="43.77719" lon="7.3552">
        <ele>308</ele>
        <time>2013-11-02T13:39:21Z</time>
      </trkpt>
      <trkpt lat="43.77717" lon="7.35507">
        <ele>307</ele>
        <time>2013-11-02T13:39:26Z</time>
      </trkpt>
      <trkpt lat="43.77716" lon="7.3549">
        <ele>304</ele>
        <time>2013-11-02T13:39:31Z</time>
      </trkpt>
      <trkpt lat="43.77711" lon="7.3549">
        <ele>306</ele>
        <time>2013-11-02T13:40:40Z</time>
      </trkpt>
      <trkpt lat="43.77704" lon="7.35482">
        <ele>307</ele>
        <time>2013-11-02T13:40:45Z</time>
      </trkpt>
      <trkpt lat="43.77691" lon="7.35485">
        <ele>310</ele>
        <time>2013-11-02T13:40:50Z</time>
      </trkpt>
      <trkpt lat="43.77679" lon="7.35494">
        <ele>314</ele>
        <time>2013-11-02T13:40:55Z</time>
      </trkpt>
      <trkpt lat="43.77674" lon="7.35485">
        <ele>313</ele>
        <time>2013-11-02T13:41:00Z</time>
      </trkpt>
      <trkpt lat="43.77665" lon="7.35474">
        <ele>324</ele>
        <time>2013-11-02T13:41:05Z</time>
      </trkpt>
      <trkpt lat="43.77671" lon="7.35466">
        <ele>312</ele>
        <time>2013-11-02T13:41:10Z</time>
      </trkpt>
      <trkpt lat="43.77684" lon="7.35455">
        <ele>310</ele>
        <time>2013-11-02T13:41:15Z</time>
      </trkpt>
      <trkpt lat="43.77696" lon="7.35442">
        <ele>309</ele>
        <time>2013-11-02T13:41:20Z</time>
      </trkpt>
      <trkpt lat="43.77692" lon="7.35427">
        <ele>311</ele>
        <time>2013-11-02T13:41:25Z</time>
      </trkpt>
      <trkpt lat="43.77703" lon="7.35421">
        <ele>308</ele>
        <time>2013-11-02T13:41:30Z</time>
      </trkpt>
      <trkpt lat="43.77725" lon="7.35422">
        <ele>303</ele>
        <time>2013-11-02T13:41:35Z</time>
      </trkpt>
      <trkpt lat="43.77744" lon="7.35426">
        <ele>298</ele>
        <time>2013-11-02T13:41:40Z</time>
      </trkpt>
      <trkpt lat="43.77752" lon="7.35418">
        <ele>292</ele>
        <time>2013-11-02T13:41:45Z</time>
      </trkpt>
      <trkpt lat="43.77756" lon="7.35401">
        <ele>299</ele>
        <time>2013-11-02T13:41:50Z</time>
      </trkpt>
      <trkpt lat="43.77762" lon="7.35391">
        <ele>302</ele>
        <time>2013-11-02T13:41:55Z</time>
      </trkpt>
      <trkpt lat="43.77768" lon="7.35405">
        <ele>299</ele>
        <time>2013-11-02T13:42:00Z</time>
      </trkpt>
      <trkpt lat="43.77774" lon="7.35398">
        <ele>301</ele>
        <time>2013-11-02T13:42:05Z</time>
      </trkpt>
      <trkpt lat="43.77778" lon="7.35386">
        <ele>303</ele>
        <time>2013-11-02T13:42:10Z</time>
      </trkpt>
      <trkpt lat="43.77788" lon="7.35379">
        <ele>304</ele>
        <time>2013-11-02T13:42:20Z</time>
      </trkpt>
      <trkpt lat="43.77793" lon="7.35391">
        <ele>302</ele>
        <time>2013-11-02T13:42:25Z</time>
      </trkpt>
      <trkpt lat="43.77797" lon="7.35407">
        <ele>299</ele>
        <time>2013-11-02T13:42:30Z</time>
      </trkpt>
      <trkpt lat="43.77808" lon="7.35405">
        <ele>298</ele>
        <time>2013-11-02T13:42:35Z</time>
      </trkpt>
      <trkpt lat="43.77817" lon="7.35405">
        <ele>297</ele>
        <time>2013-11-02T13:42:40Z</time>
      </trkpt>
      <trkpt lat="43.77821" lon="7.35409">
        <ele>295</ele>
        <time>2013-11-02T13:42:57Z</time>
      </trkpt>
      <trkpt lat="43.77817" lon="7.35414">
        <ele>295</ele>
        <time>2013-11-02T13:43:17Z</time>
      </trkpt>
      <trkpt lat="43.77813" lon="7.35422">
        <ele>285</ele>
        <time>2013-11-02T13:43:22Z</time>
      </trkpt>
      <trkpt lat="43.77818" lon="7.35434">
        <ele>285</ele>
        <time>2013-11-02T13:43:27Z</time>
      </trkpt>
      <trkpt lat="43.77826" lon="7.35433">
        <ele>285</ele>
        <time>2013-11-02T13:44:32Z</time>
      </trkpt>
      <trkpt lat="43.77835" lon="7.35435">
        <ele>282</ele>
        <time>2013-11-02T13:45:16Z</time>
      </trkpt>
      <trkpt lat="43.77842" lon="7.35438">
        <ele>281</ele>
        <time>2013-11-02T13:45:21Z</time>
      </trkpt>
      <trkpt lat="43.77849" lon="7.35431">
        <ele>282</ele>
        <time>2013-11-02T13:45:31Z</time>
      </trkpt>
      <trkpt lat="43.77855" lon="7.3543">
        <ele>281</ele>
        <time>2013-11-02T13:45:36Z</time>
      </trkpt>
      <trkpt lat="43.77862" lon="7.35431">
        <ele>281</ele>
        <time>2013-11-02T13:45:41Z</time>
      </trkpt>
      <trkpt lat="43.77869" lon="7.3542">
        <ele>282</ele>
        <time>2013-11-02T13:45:46Z</time>
      </trkpt>
      <trkpt lat="43.77881" lon="7.35414">
        <ele>297</ele>
        <time>2013-11-02T13:45:51Z</time>
      </trkpt>
      <trkpt lat="43.77895" lon="7.35414">
        <ele>297</ele>
        <time>2013-11-02T13:45:56Z</time>
      </trkpt>
      <trkpt lat="43.77903" lon="7.35432">
        <ele>284</ele>
        <time>2013-11-02T13:46:01Z</time>
      </trkpt>
      <trkpt lat="43.77909" lon="7.35447">
        <ele>281</ele>
        <time>2013-11-02T13:46:06Z</time>
      </trkpt>
      <trkpt lat="43.77908" lon="7.35466">
        <ele>276</ele>
        <time>2013-11-02T13:46:11Z</time>
      </trkpt>
      <trkpt lat="43.77905" lon="7.35479">
        <ele>274</ele>
        <time>2013-11-02T13:46:16Z</time>
      </trkpt>
      <trkpt lat="43.77912" lon="7.35482">
        <ele>272</ele>
        <time>2013-11-02T13:46:53Z</time>
      </trkpt>
      <trkpt lat="43.77915" lon="7.35491">
        <ele>270</ele>
        <time>2013-11-02T13:46:58Z</time>
      </trkpt>
      <trkpt lat="43.77926" lon="7.3549">
        <ele>271</ele>
        <time>2013-11-02T13:47:03Z</time>
      </trkpt>
      <trkpt lat="43.77943" lon="7.35501">
        <ele>262</ele>
        <time>2013-11-02T13:47:08Z</time>
      </trkpt>
      <trkpt lat="43.77958" lon="7.35501">
        <ele>261</ele>
        <time>2013-11-02T13:47:13Z</time>
      </trkpt>
      <trkpt lat="43.7797" lon="7.35495">
        <ele>272</ele>
        <time>2013-11-02T13:47:18Z</time>
      </trkpt>
      <trkpt lat="43.77981" lon="7.35497">
        <ele>271</ele>
        <time>2013-11-02T13:47:23Z</time>
      </trkpt>
      <trkpt lat="43.77987" lon="7.3548">
        <ele>272</ele>
        <time>2013-11-02T13:47:28Z</time>
      </trkpt>
      <trkpt lat="43.77993" lon="7.35491">
        <ele>270</ele>
        <time>2013-11-02T13:47:33Z</time>
      </trkpt>
      <trkpt lat="43.78011" lon="7.35491">
        <ele>262</ele>
        <time>2013-11-02T13:47:38Z</time>
      </trkpt>
      <trkpt lat="43.78021" lon="7.35476">
        <ele>260</ele>
        <time>2013-11-02T13:47:43Z</time>
      </trkpt>
      <trkpt lat="43.78024" lon="7.35466">
        <ele>260</ele>
        <time>2013-11-02T13:47:48Z</time>
      </trkpt>
      <trkpt lat="43.78037" lon="7.35454">
        <ele>259</ele>
        <time>2013-11-02T13:47:53Z</time>
      </trkpt>
      <trkpt lat="43.78044" lon="7.3543">
        <ele>259</ele>
        <time>2013-11-02T13:47:58Z</time>
      </trkpt>
      <trkpt lat="43.78039" lon="7.35414">
        <ele>264</ele>
        <time>2013-11-02T13:48:03Z</time>
      </trkpt>
      <trkpt lat="43.78043" lon="7.35404">
        <ele>263</ele>
        <time>2013-11-02T13:48:08Z</time>
      </trkpt>
      <trkpt lat="43.78044" lon="7.35382">
        <ele>263</ele>
        <time>2013-11-02T13:48:13Z</time>
      </trkpt>
      <trkpt lat="43.78035" lon="7.35372">
        <ele>265</ele>
        <time>2013-11-02T13:48:18Z</time>
      </trkpt>
      <trkpt lat="43.78045" lon="7.35352">
        <ele>263</ele>
        <time>2013-11-02T13:48:23Z</time>
      </trkpt>
      <trkpt lat="43.7804" lon="7.35338">
        <ele>264</ele>
        <time>2013-11-02T13:48:28Z</time>
      </trkpt>
      <trkpt lat="43.78043" lon="7.35319">
        <ele>263</ele>
        <time>2013-11-02T13:48:33Z</time>
      </trkpt>
      <trkpt lat="43.78046" lon="7.35304">
        <ele>262</ele>
        <time>2013-11-02T13:48:38Z</time>
      </trkpt>
      <trkpt lat="43.78037" lon="7.35286">
        <ele>264</ele>
        <time>2013-11-02T13:48:43Z</time>
      </trkpt>
      <trkpt lat="43.78033" lon="7.35279">
        <ele>265</ele>
        <time>2013-11-02T13:48:48Z</time>
      </trkpt>
      <trkpt lat="43.78033" lon="7.35272">
        <ele>265</ele>
        <time>2013-11-02T13:48:53Z</time>
      </trkpt>
      <trkpt lat="43.78034" lon="7.3526">
        <ele>265</ele>
        <time>2013-11-02T13:49:03Z</time>
      </trkpt>
      <trkpt lat="43.78032" lon="7.35252">
        <ele>265</ele>
        <time>2013-11-02T13:49:08Z</time>
      </trkpt>
      <trkpt lat="43.78031" lon="7.35241">
        <ele>264</ele>
        <time>2013-11-02T13:49:13Z</time>
      </trkpt>
      <trkpt lat="43.78029" lon="7.35232">
        <ele>264</ele>
        <time>2013-11-02T13:49:18Z</time>
      </trkpt>
      <trkpt lat="43.78026" lon="7.35224">
        <ele>264</ele>
        <time>2013-11-02T13:49:23Z</time>
      </trkpt>
      <trkpt lat="43.78023" lon="7.35216">
        <ele>264</ele>
        <time>2013-11-02T13:49:28Z</time>
      </trkpt>
      <trkpt lat="43.78019" lon="7.35208">
        <ele>265</ele>
        <time>2013-11-02T13:49:33Z</time>
      </trkpt>
      <trkpt lat="43.78016" lon="7.35199">
        <ele>265</ele>
        <time>2013-11-02T13:49:38Z</time>
      </trkpt>
      <trkpt lat="43.78011" lon="7.35191">
        <ele>266</ele>
        <time>2013-11-02T13:49:43Z</time>
      </trkpt>
      <trkpt lat="43.78006" lon="7.35185">
        <ele>268</ele>
        <time>2013-11-02T13:49:48Z</time>
      </trkpt>
      <trkpt lat="43.78001" lon="7.35179">
        <ele>269</ele>
        <time>2013-11-02T13:49:53Z</time>
      </trkpt>
      <trkpt lat="43.77995" lon="7.35177">
        <ele>281</ele>
        <time>2013-11-02T13:49:58Z</time>
      </trkpt>
      <trkpt lat="43.77989" lon="7.35172">
        <ele>282</ele>
        <time>2013-11-02T13:50:03Z</time>
      </trkpt>
      <trkpt lat="43.77985" lon="7.35161">
        <ele>281</ele>
        <time>2013-11-02T13:50:08Z</time>
      </trkpt>
      <trkpt lat="43.77986" lon="7.35151">
        <ele>282</ele>
        <time>2013-11-02T13:50:13Z</time>
      </trkpt>
      <trkpt lat="43.77985" lon="7.3514">
        <ele>283</ele>
        <time>2013-11-02T13:50:18Z</time>
      </trkpt>
      <trkpt lat="43.7798" lon="7.3513">
        <ele>284</ele>
        <time>2013-11-02T13:50:23Z</time>
      </trkpt>
      <trkpt lat="43.77972" lon="7.35121">
        <ele>284</ele>
        <time>2013-11-02T13:50:28Z</time>
      </trkpt>
      <trkpt lat="43.77964" lon="7.35115">
        <ele>286</ele>
        <time>2013-11-02T13:50:33Z</time>
      </trkpt>
      <trkpt lat="43.77957" lon="7.35107">
        <ele>287</ele>
        <time>2013-11-02T13:50:38Z</time>
      </trkpt>
      <trkpt lat="43.77957" lon="7.35099">
        <ele>287</ele>
        <time>2013-11-02T13:50:43Z</time>
      </trkpt>
      <trkpt lat="43.77961" lon="7.35097">
        <ele>285</ele>
        <time>2013-11-02T13:50:48Z</time>
      </trkpt>
      <trkpt lat="43.77966" lon="7.35095">
        <ele>284</ele>
        <time>2013-11-02T13:50:53Z</time>
      </trkpt>
      <trkpt lat="43.7797" lon="7.35091">
        <ele>283</ele>
        <time>2013-11-02T13:50:58Z</time>
      </trkpt>
      <trkpt lat="43.77973" lon="7.35078">
        <ele>277</ele>
        <time>2013-11-02T13:51:08Z</time>
      </trkpt>
      <trkpt lat="43.77974" lon="7.3507">
        <ele>277</ele>
        <time>2013-11-02T13:51:13Z</time>
      </trkpt>
      <trkpt lat="43.77975" lon="7.35056">
        <ele>277</ele>
        <time>2013-11-02T13:51:23Z</time>
      </trkpt>
      <trkpt lat="43.77975" lon="7.35043">
        <ele>276</ele>
        <time>2013-11-02T13:51:34Z</time>
      </trkpt>
      <trkpt lat="43.77976" lon="7.35036">
        <ele>275</ele>
        <time>2013-11-02T13:51:39Z</time>
      </trkpt>
      <trkpt lat="43.77976" lon="7.35029">
        <ele>275</ele>
        <time>2013-11-02T13:51:44Z</time>
      </trkpt>
      <trkpt lat="43.77974" lon="7.35021">
        <ele>274</ele>
        <time>2013-11-02T13:51:49Z</time>
      </trkpt>
      <trkpt lat="43.77973" lon="7.35012">
        <ele>273</ele>
        <time>2013-11-02T13:51:54Z</time>
      </trkpt>
      <trkpt lat="43.7797" lon="7.35001">
        <ele>274</ele>
        <time>2013-11-02T13:51:59Z</time>
      </trkpt>
      <trkpt lat="43.77962" lon="7.34991">
        <ele>271</ele>
        <time>2013-11-02T13:52:04Z</time>
      </trkpt>
      <trkpt lat="43.77952" lon="7.34984">
        <ele>273</ele>
        <time>2013-11-02T13:52:09Z</time>
      </trkpt>
      <trkpt lat="43.77945" lon="7.34977">
        <ele>274</ele>
        <time>2013-11-02T13:52:14Z</time>
      </trkpt>
      <trkpt lat="43.77937" lon="7.34966">
        <ele>274</ele>
        <time>2013-11-02T13:52:19Z</time>
      </trkpt>
      <trkpt lat="43.77927" lon="7.34953">
        <ele>275</ele>
        <time>2013-11-02T13:52:24Z</time>
      </trkpt>
      <trkpt lat="43.77933" lon="7.34928">
        <ele>275</ele>
        <time>2013-11-02T13:52:29Z</time>
      </trkpt>
      <trkpt lat="43.77952" lon="7.34902">
        <ele>266</ele>
        <time>2013-11-02T13:52:34Z</time>
      </trkpt>
      <trkpt lat="43.77963" lon="7.34884">
        <ele>263</ele>
        <time>2013-11-02T13:52:39Z</time>
      </trkpt>
      <trkpt lat="43.77972" lon="7.34878">
        <ele>261</ele>
        <time>2013-11-02T13:52:44Z</time>
      </trkpt>
      <trkpt lat="43.77988" lon="7.34864">
        <ele>259</ele>
        <time>2013-11-02T13:52:49Z</time>
      </trkpt>
      <trkpt lat="43.78003" lon="7.34845">
        <ele>243</ele>
        <time>2013-11-02T13:52:54Z</time>
      </trkpt>
      <trkpt lat="43.78002" lon="7.34825">
        <ele>241</ele>
        <time>2013-11-02T13:52:59Z</time>
      </trkpt>
      <trkpt lat="43.78007" lon="7.34824">
        <ele>240</ele>
        <time>2013-11-02T13:53:04Z</time>
      </trkpt>
      <trkpt lat="43.7802" lon="7.34841">
        <ele>239</ele>
        <time>2013-11-02T13:53:09Z</time>
      </trkpt>
      <trkpt lat="43.78023" lon="7.34862">
        <ele>236</ele>
        <time>2013-11-02T13:53:14Z</time>
      </trkpt>
      <trkpt lat="43.78029" lon="7.34859">
        <ele>234</ele>
        <time>2013-11-02T13:53:19Z</time>
      </trkpt>
      <trkpt lat="43.78033" lon="7.34864">
        <ele>233</ele>
        <time>2013-11-02T13:53:26Z</time>
      </trkpt>
      <trkpt lat="43.78041" lon="7.34859">
        <ele>231</ele>
        <time>2013-11-02T13:53:31Z</time>
      </trkpt>
      <trkpt lat="43.78045" lon="7.34875">
        <ele>231</ele>
        <time>2013-11-02T13:53:36Z</time>
      </trkpt>
      <trkpt lat="43.78056" lon="7.34867">
        <ele>227</ele>
        <time>2013-11-02T13:53:41Z</time>
      </trkpt>
      <trkpt lat="43.78068" lon="7.34846">
        <ele>221</ele>
        <time>2013-11-02T13:53:46Z</time>
      </trkpt>
      <trkpt lat="43.78076" lon="7.34841">
        <ele>216</ele>
        <time>2013-11-02T13:53:51Z</time>
      </trkpt>
      <trkpt lat="43.78081" lon="7.34848">
        <ele>218</ele>
        <time>2013-11-02T13:53:56Z</time>
      </trkpt>
      <trkpt lat="43.78084" lon="7.34841">
        <ele>206</ele>
        <time>2013-11-02T13:54:01Z</time>
      </trkpt>
      <trkpt lat="43.78082" lon="7.34826">
        <ele>211</ele>
        <time>2013-11-02T13:54:06Z</time>
      </trkpt>
      <trkpt lat="43.78086" lon="7.34819">
        <ele>200</ele>
        <time>2013-11-02T13:54:11Z</time>
      </trkpt>
      <trkpt lat="43.78097" lon="7.34828">
        <ele>200</ele>
        <time>2013-11-02T13:54:16Z</time>
      </trkpt>
      <trkpt lat="43.78104" lon="7.34833">
        <ele>197</ele>
        <time>2013-11-02T13:54:21Z</time>
      </trkpt>
      <trkpt lat="43.78102" lon="7.34822">
        <ele>197</ele>
        <time>2013-11-02T13:54:57Z</time>
      </trkpt>
      <trkpt lat="43.78093" lon="7.34815">
        <ele>198</ele>
        <time>2013-11-02T13:55:22Z</time>
      </trkpt>
      <trkpt lat="43.78086" lon="7.34805">
        <ele>196</ele>
        <time>2013-11-02T13:55:27Z</time>
      </trkpt>
      <trkpt lat="43.78076" lon="7.34801">
        <ele>216</ele>
        <time>2013-11-02T13:55:32Z</time>
      </trkpt>
      <trkpt lat="43.78066" lon="7.34792">
        <ele>217</ele>
        <time>2013-11-02T13:55:37Z</time>
      </trkpt>
      <trkpt lat="43.78064" lon="7.34782">
        <ele>216</ele>
        <time>2013-11-02T13:55:42Z</time>
      </trkpt>
      <trkpt lat="43.78062" lon="7.34773">
        <ele>215</ele>
        <time>2013-11-02T13:55:52Z</time>
      </trkpt>
      <trkpt lat="43.7806" lon="7.34762">
        <ele>213</ele>
        <time>2013-11-02T13:55:57Z</time>
      </trkpt>
      <trkpt lat="43.78062" lon="7.34747">
        <ele>203</ele>
        <time>2013-11-02T13:56:02Z</time>
      </trkpt>
      <trkpt lat="43.78061" lon="7.34731">
        <ele>203</ele>
        <time>2013-11-02T13:56:07Z</time>
      </trkpt>
      <trkpt lat="43.78062" lon="7.34713">
        <ele>202</ele>
        <time>2013-11-02T13:56:12Z</time>
      </trkpt>
      <trkpt lat="43.78056" lon="7.34698">
        <ele>202</ele>
        <time>2013-11-02T13:56:17Z</time>
      </trkpt>
      <trkpt lat="43.78058" lon="7.34679">
        <ele>198</ele>
        <time>2013-11-02T13:56:22Z</time>
      </trkpt>
      <trkpt lat="43.78052" lon="7.34668">
        <ele>199</ele>
        <time>2013-11-02T13:56:27Z</time>
      </trkpt>
      <trkpt lat="43.78049" lon="7.3466">
        <ele>190</ele>
        <time>2013-11-02T13:56:42Z</time>
      </trkpt>
      <trkpt lat="43.78043" lon="7.34656">
        <ele>191</ele>
        <time>2013-11-02T13:56:47Z</time>
      </trkpt>
      <trkpt lat="43.78036" lon="7.34661">
        <ele>193</ele>
        <time>2013-11-02T13:56:52Z</time>
      </trkpt>
      <trkpt lat="43.78028" lon="7.34658">
        <ele>195</ele>
        <time>2013-11-02T13:56:57Z</time>
      </trkpt>
      <trkpt lat="43.78018" lon="7.34654">
        <ele>198</ele>
        <time>2013-11-02T13:57:02Z</time>
      </trkpt>
      <trkpt lat="43.78007" lon="7.34657">
        <ele>202</ele>
        <time>2013-11-02T13:57:07Z</time>
      </trkpt>
      <trkpt lat="43.78" lon="7.34659">
        <ele>214</ele>
        <time>2013-11-02T13:57:12Z</time>
      </trkpt>
      <trkpt lat="43.77989" lon="7.3467">
        <ele>220</ele>
        <time>2013-11-02T13:57:17Z</time>
      </trkpt>
      <trkpt lat="43.77975" lon="7.34676">
        <ele>228</ele>
        <time>2013-11-02T13:57:24Z</time>
      </trkpt>
      <trkpt lat="43.77977" lon="7.34669">
        <ele>226</ele>
        <time>2013-11-02T13:57:29Z</time>
      </trkpt>
      <trkpt lat="43.77979" lon="7.34661">
        <ele>218</ele>
        <time>2013-11-02T13:58:34Z</time>
      </trkpt>
      <trkpt lat="43.77978" lon="7.34652">
        <ele>219</ele>
        <time>2013-11-02T13:58:44Z</time>
      </trkpt>
      <trkpt lat="43.77972" lon="7.34646">
        <ele>220</ele>
        <time>2013-11-02T13:58:49Z</time>
      </trkpt>
      <trkpt lat="43.77964" lon="7.3464">
        <ele>221</ele>
        <time>2013-11-02T13:58:54Z</time>
      </trkpt>
      <trkpt lat="43.77956" lon="7.34637">
        <ele>223</ele>
        <time>2013-11-02T13:58:59Z</time>
      </trkpt>
      <trkpt lat="43.77959" lon="7.34628">
        <ele>222</ele>
        <time>2013-11-02T13:59:04Z</time>
      </trkpt>
      <trkpt lat="43.77967" lon="7.34631">
        <ele>220</ele>
        <time>2013-11-02T13:59:09Z</time>
      </trkpt>
      <trkpt lat="43.7797" lon="7.34624">
        <ele>219</ele>
        <time>2013-11-02T13:59:14Z</time>
      </trkpt>
      <trkpt lat="43.77976" lon="7.34623">
        <ele>218</ele>
        <time>2013-11-02T13:59:19Z</time>
      </trkpt>
      <trkpt lat="43.77981" lon="7.34611">
        <ele>216</ele>
        <time>2013-11-02T13:59:24Z</time>
      </trkpt>
      <trkpt lat="43.77985" lon="7.34599">
        <ele>212</ele>
        <time>2013-11-02T13:59:29Z</time>
      </trkpt>
      <trkpt lat="43.77988" lon="7.34589">
        <ele>208</ele>
        <time>2013-11-02T13:59:34Z</time>
      </trkpt>
      <trkpt lat="43.7799" lon="7.34577">
        <ele>204</ele>
        <time>2013-11-02T13:59:39Z</time>
      </trkpt>
      <trkpt lat="43.7799" lon="7.34568">
        <ele>206</ele>
        <time>2013-11-02T13:59:44Z</time>
      </trkpt>
      <trkpt lat="43.77996" lon="7.34559">
        <ele>207</ele>
        <time>2013-11-02T13:59:49Z</time>
      </trkpt>
      <trkpt lat="43.7801" lon="7.34558">
        <ele>187</ele>
        <time>2013-11-02T13:59:54Z</time>
      </trkpt>
      <trkpt lat="43.78017" lon="7.3454">
        <ele>184</ele>
        <time>2013-11-02T13:59:59Z</time>
      </trkpt>
      <trkpt lat="43.7801" lon="7.34513">
        <ele>188</ele>
        <time>2013-11-02T14:00:04Z</time>
      </trkpt>
      <trkpt lat="43.78011" lon="7.34486">
        <ele>185</ele>
        <time>2013-11-02T14:00:09Z</time>
      </trkpt>
      <trkpt lat="43.78008" lon="7.34466">
        <ele>181</ele>
        <time>2013-11-02T14:00:14Z</time>
      </trkpt>
      <trkpt lat="43.78006" lon="7.34447">
        <ele>180</ele>
        <time>2013-11-02T14:00:19Z</time>
      </trkpt>
      <trkpt lat="43.78003" lon="7.34431">
        <ele>181</ele>
        <time>2013-11-02T14:00:24Z</time>
      </trkpt>
      <trkpt lat="43.7799" lon="7.34434">
        <ele>196</ele>
        <time>2013-11-02T14:00:29Z</time>
      </trkpt>
      <trkpt lat="43.77972" lon="7.34428">
        <ele>199</ele>
        <time>2013-11-02T14:00:34Z</time>
      </trkpt>
      <trkpt lat="43.77978" lon="7.34414">
        <ele>188</ele>
        <time>2013-11-02T14:00:55Z</time>
      </trkpt>
      <trkpt lat="43.77988" lon="7.34395">
        <ele>187</ele>
        <time>2013-11-02T14:01:00Z</time>
      </trkpt>
      <trkpt lat="43.77995" lon="7.34387">
        <ele>186</ele>
        <time>2013-11-02T14:01:05Z</time>
      </trkpt>
      <trkpt lat="43.77987" lon="7.34377">
        <ele>185</ele>
        <time>2013-11-02T14:01:10Z</time>
      </trkpt>
      <trkpt lat="43.77991" lon="7.34362">
        <ele>182</ele>
        <time>2013-11-02T14:01:15Z</time>
      </trkpt>
      <trkpt lat="43.77985" lon="7.34355">
        <ele>181</ele>
        <time>2013-11-02T14:01:20Z</time>
      </trkpt>
      <trkpt lat="43.77979" lon="7.3434">
        <ele>179</ele>
        <time>2013-11-02T14:01:25Z</time>
      </trkpt>
      <trkpt lat="43.77972" lon="7.34339">
        <ele>182</ele>
        <time>2013-11-02T14:01:30Z</time>
      </trkpt>
      <trkpt lat="43.77962" lon="7.34324">
        <ele>172</ele>
        <time>2013-11-02T14:01:35Z</time>
      </trkpt>
      <trkpt lat="43.77961" lon="7.34302">
        <ele>170</ele>
        <time>2013-11-02T14:01:40Z</time>
      </trkpt>
      <trkpt lat="43.77948" lon="7.34299">
        <ele>172</ele>
        <time>2013-11-02T14:01:45Z</time>
      </trkpt>
      <trkpt lat="43.77948" lon="7.34281">
        <ele>169</ele>
        <time>2013-11-02T14:01:50Z</time>
      </trkpt>
      <trkpt lat="43.77946" lon="7.34267">
        <ele>168</ele>
        <time>2013-11-02T14:01:55Z</time>
      </trkpt>
      <trkpt lat="43.77944" lon="7.3425">
        <ele>168</ele>
        <time>2013-11-02T14:02:00Z</time>
      </trkpt>
      <trkpt lat="43.7793" lon="7.3424">
        <ele>162</ele>
        <time>2013-11-02T14:02:05Z</time>
      </trkpt>
      <trkpt lat="43.77911" lon="7.34235">
        <ele>171</ele>
        <time>2013-11-02T14:02:10Z</time>
      </trkpt>
      <trkpt lat="43.77895" lon="7.34227">
        <ele>172</ele>
        <time>2013-11-02T14:02:15Z</time>
      </trkpt>
      <trkpt lat="43.77903" lon="7.34209">
        <ele>170</ele>
        <time>2013-11-02T14:02:20Z</time>
      </trkpt>
      <trkpt lat="43.77915" lon="7.34193">
        <ele>166</ele>
        <time>2013-11-02T14:02:48Z</time>
      </trkpt>
      <trkpt lat="43.77923" lon="7.34177">
        <ele>155</ele>
        <time>2013-11-02T14:02:53Z</time>
      </trkpt>
      <trkpt lat="43.77916" lon="7.34159">
        <ele>156</ele>
        <time>2013-11-02T14:02:58Z</time>
      </trkpt>
      <trkpt lat="43.7791" lon="7.34141">
        <ele>158</ele>
        <time>2013-11-02T14:03:03Z</time>
      </trkpt>
      <trkpt lat="43.77903" lon="7.34117">
        <ele>157</ele>
        <time>2013-11-02T14:03:08Z</time>
      </trkpt>
      <trkpt lat="43.77892" lon="7.34101">
        <ele>156</ele>
        <time>2013-11-02T14:03:13Z</time>
      </trkpt>
      <trkpt lat="43.77881" lon="7.3408">
        <ele>149</ele>
        <time>2013-11-02T14:03:18Z</time>
      </trkpt>
      <trkpt lat="43.77866" lon="7.34063">
        <ele>150</ele>
        <time>2013-11-02T14:03:23Z</time>
      </trkpt>
      <trkpt lat="43.77855" lon="7.34054">
        <ele>150</ele>
        <time>2013-11-02T14:03:28Z</time>
      </trkpt>
      <trkpt lat="43.77846" lon="7.34042">
        <ele>148</ele>
        <time>2013-11-02T14:03:33Z</time>
      </trkpt>
      <trkpt lat="43.77833" lon="7.3404">
        <ele>147</ele>
        <time>2013-11-02T14:03:38Z</time>
      </trkpt>
      <trkpt lat="43.77821" lon="7.34035">
        <ele>146</ele>
        <time>2013-11-02T14:03:43Z</time>
      </trkpt>
      <trkpt lat="43.77814" lon="7.34032">
        <ele>145</ele>
        <time>2013-11-02T14:03:49Z</time>
      </trkpt>
      <trkpt lat="43.77809" lon="7.34027">
        <ele>144</ele>
        <time>2013-11-02T14:03:54Z</time>
      </trkpt>
      <trkpt lat="43.77799" lon="7.34027">
        <ele>144</ele>
        <time>2013-11-02T14:03:59Z</time>
      </trkpt>
      <trkpt lat="43.77779" lon="7.34036">
        <ele>144</ele>
        <time>2013-11-02T14:04:04Z</time>
      </trkpt>
      <trkpt lat="43.77752" lon="7.34066">
        <ele>145</ele>
        <time>2013-11-02T14:04:09Z</time>
      </trkpt>
      <trkpt lat="43.77738" lon="7.34083">
        <ele>145</ele>
        <time>2013-11-02T14:04:14Z</time>
      </trkpt>
      <trkpt lat="43.77736" lon="7.34064">
        <ele>145</ele>
        <time>2013-11-02T14:04:19Z</time>
      </trkpt>
      <trkpt lat="43.77751" lon="7.34032">
        <ele>142</ele>
        <time>2013-11-02T14:04:24Z</time>
      </trkpt>
      <trkpt lat="43.77755" lon="7.34005">
        <ele>137</ele>
        <time>2013-11-02T14:04:29Z</time>
      </trkpt>
      <trkpt lat="43.77753" lon="7.33972">
        <ele>133</ele>
        <time>2013-11-02T14:04:34Z</time>
      </trkpt>
      <trkpt lat="43.77751" lon="7.33935">
        <ele>132</ele>
        <time>2013-11-02T14:04:39Z</time>
      </trkpt>
      <trkpt lat="43.77748" lon="7.33897">
        <ele>129</ele>
        <time>2013-11-02T14:04:44Z</time>
      </trkpt>
      <trkpt lat="43.77747" lon="7.33857">
        <ele>127</ele>
        <time>2013-11-02T14:04:49Z</time>
      </trkpt>
      <trkpt lat="43.77752" lon="7.33823">
        <ele>125</ele>
        <time>2013-11-02T14:04:54Z</time>
      </trkpt>
      <trkpt lat="43.77753" lon="7.33809">
        <ele>124</ele>
        <time>2013-11-02T14:04:59Z</time>
      </trkpt>
      <trkpt lat="43.77742" lon="7.33792">
        <ele>124</ele>
        <time>2013-11-02T14:05:04Z</time>
      </trkpt>
      <trkpt lat="43.77722" lon="7.33785">
        <ele>124</ele>
        <time>2013-11-02T14:05:09Z</time>
      </trkpt>
      <trkpt lat="43.77706" lon="7.33781">
        <ele>124</ele>
        <time>2013-11-02T14:05:14Z</time>
      </trkpt>
      <trkpt lat="43.77683" lon="7.33774">
        <ele>124</ele>
        <time>2013-11-02T14:05:19Z</time>
      </trkpt>
      <trkpt lat="43.77657" lon="7.33767">
        <ele>127</ele>
        <time>2013-11-02T14:05:24Z</time>
      </trkpt>
      <trkpt lat="43.77631" lon="7.3376">
        <ele>128</ele>
        <time>2013-11-02T14:05:29Z</time>
      </trkpt>
      <trkpt lat="43.77606" lon="7.33751">
        <ele>129</ele>
        <time>2013-11-02T14:05:34Z</time>
      </trkpt>
      <trkpt lat="43.77582" lon="7.33736">
        <ele>132</ele>
        <time>2013-11-02T14:05:39Z</time>
      </trkpt>
      <trkpt lat="43.77561" lon="7.33719">
        <ele>134</ele>
        <time>2013-11-02T14:05:44Z</time>
      </trkpt>
      <trkpt lat="43.77541" lon="7.33699">
        <ele>135</ele>
        <time>2013-11-02T14:05:49Z</time>
      </trkpt>
      <trkpt lat="43.77521" lon="7.33678">
        <ele>134</ele>
        <time>2013-11-02T14:05:54Z</time>
      </trkpt>
      <trkpt lat="43.77504" lon="7.33661">
        <ele>130</ele>
        <time>2013-11-02T14:05:59Z</time>
      </trkpt>
      <trkpt lat="43.77492" lon="7.33649">
        <ele>132</ele>
        <time>2013-11-02T14:06:04Z</time>
      </trkpt>
      <trkpt lat="43.77481" lon="7.33641">
        <ele>132</ele>
        <time>2013-11-02T14:06:09Z</time>
      </trkpt>
      <trkpt lat="43.77468" lon="7.33632">
        <ele>132</ele>
        <time>2013-11-02T14:06:14Z</time>
      </trkpt>
      <trkpt lat="43.77453" lon="7.33614">
        <ele>132</ele>
        <time>2013-11-02T14:06:19Z</time>
      </trkpt>
      <trkpt lat="43.77435" lon="7.33592">
        <ele>130</ele>
        <time>2013-11-02T14:06:24Z</time>
      </trkpt>
      <trkpt lat="43.77414" lon="7.33568">
        <ele>131</ele>
        <time>2013-11-02T14:06:29Z</time>
      </trkpt>
      <trkpt lat="43.77392" lon="7.33544">
        <ele>133</ele>
        <time>2013-11-02T14:06:34Z</time>
      </trkpt>
      <trkpt lat="43.77369" lon="7.33519">
        <ele>134</ele>
        <time>2013-11-02T14:06:39Z</time>
      </trkpt>
      <trkpt lat="43.77349" lon="7.33489">
        <ele>129</ele>
        <time>2013-11-02T14:06:44Z</time>
      </trkpt>
      <trkpt lat="43.77332" lon="7.33459">
        <ele>139</ele>
        <time>2013-11-02T14:06:49Z</time>
      </trkpt>
      <trkpt lat="43.7732" lon="7.3343">
        <ele>134</ele>
        <time>2013-11-02T14:06:54Z</time>
      </trkpt>
      <trkpt lat="43.77306" lon="7.334">
        <ele>126</ele>
        <time>2013-11-02T14:06:59Z</time>
      </trkpt>
      <trkpt lat="43.77291" lon="7.33368">
        <ele>126</ele>
        <time>2013-11-02T14:07:04Z</time>
      </trkpt>
      <trkpt lat="43.77274" lon="7.3334">
        <ele>125</ele>
        <time>2013-11-02T14:07:09Z</time>
      </trkpt>
      <trkpt lat="43.77249" lon="7.33321">
        <ele>123</ele>
        <time>2013-11-02T14:07:14Z</time>
      </trkpt>
      <trkpt lat="43.77223" lon="7.33309">
        <ele>123</ele>
        <time>2013-11-02T14:07:19Z</time>
      </trkpt>
      <trkpt lat="43.77198" lon="7.33299">
        <ele>124</ele>
        <time>2013-11-02T14:07:24Z</time>
      </trkpt>
      <trkpt lat="43.7717" lon="7.33304">
        <ele>126</ele>
        <time>2013-11-02T14:07:29Z</time>
      </trkpt>
      <trkpt lat="43.7714" lon="7.33306">
        <ele>130</ele>
        <time>2013-11-02T14:07:34Z</time>
      </trkpt>
      <trkpt lat="43.77111" lon="7.33302">
        <ele>131</ele>
        <time>2013-11-02T14:07:39Z</time>
      </trkpt>
      <trkpt lat="43.77084" lon="7.33295">
        <ele>131</ele>
        <time>2013-11-02T14:07:44Z</time>
      </trkpt>
      <trkpt lat="43.77058" lon="7.33278">
        <ele>132</ele>
        <time>2013-11-02T14:07:49Z</time>
      </trkpt>
      <trkpt lat="43.77032" lon="7.33263">
        <ele>131</ele>
        <time>2013-11-02T14:07:54Z</time>
      </trkpt>
      <trkpt lat="43.77005" lon="7.33249">
        <ele>123</ele>
        <time>2013-11-02T14:07:59Z</time>
      </trkpt>
      <trkpt lat="43.76978" lon="7.33239">
        <ele>123</ele>
        <time>2013-11-02T14:08:04Z</time>
      </trkpt>
      <trkpt lat="43.76954" lon="7.3323">
        <ele>123</ele>
        <time>2013-11-02T14:08:09Z</time>
      </trkpt>
      <trkpt lat="43.76929" lon="7.33221">
        <ele>124</ele>
        <time>2013-11-02T14:08:14Z</time>
      </trkpt>
      <trkpt lat="43.76909" lon="7.33207">
        <ele>122</ele>
        <time>2013-11-02T14:08:19Z</time>
      </trkpt>
      <trkpt lat="43.76896" lon="7.33188">
        <ele>119</ele>
        <time>2013-11-02T14:08:24Z</time>
      </trkpt>
      <trkpt lat="43.7689" lon="7.33183">
        <ele>119</ele>
        <time>2013-11-02T14:08:54Z</time>
      </trkpt>
      <trkpt lat="43.76886" lon="7.33178">
        <ele>119</ele>
        <time>2013-11-02T14:09:42Z</time>
      </trkpt>
      <trkpt lat="43.76876" lon="7.33169">
        <ele>119</ele>
        <time>2013-11-02T14:09:47Z</time>
      </trkpt>
      <trkpt lat="43.76861" lon="7.33159">
        <ele>114</ele>
        <time>2013-11-02T14:09:52Z</time>
      </trkpt>
      <trkpt lat="43.76844" lon="7.33144">
        <ele>114</ele>
        <time>2013-11-02T14:09:57Z</time>
      </trkpt>
      <trkpt lat="43.76834" lon="7.33163">
        <ele>115</ele>
        <time>2013-11-02T14:10:02Z</time>
      </trkpt>
      <trkpt lat="43.76823" lon="7.33187">
        <ele>116</ele>
        <time>2013-11-02T14:10:07Z</time>
      </trkpt>
      <trkpt lat="43.76814" lon="7.33198">
        <ele>116</ele>
        <time>2013-11-02T14:10:12Z</time>
      </trkpt>
      <trkpt lat="43.76811" lon="7.33205">
        <ele>117</ele>
        <time>2013-11-02T14:10:17Z</time>
      </trkpt>
      <trkpt lat="43.76809" lon="7.33215">
        <ele>117</ele>
        <time>2013-11-02T14:10:22Z</time>
      </trkpt>
      <trkpt lat="43.76811" lon="7.33227">
        <ele>118</ele>
        <time>2013-11-02T14:10:27Z</time>
      </trkpt>
      <trkpt lat="43.76814" lon="7.33243">
        <ele>119</ele>
        <time>2013-11-02T14:10:32Z</time>
      </trkpt>
      <trkpt lat="43.76815" lon="7.33267">
        <ele>122</ele>
        <time>2013-11-02T14:10:37Z</time>
      </trkpt>
      <trkpt lat="43.76813" lon="7.33292">
        <ele>122</ele>
        <time>2013-11-02T14:10:42Z</time>
      </trkpt>
      <trkpt lat="43.76808" lon="7.33317">
        <ele>123</ele>
        <time>2013-11-02T14:10:47Z</time>
      </trkpt>
      <trkpt lat="43.76801" lon="7.33342">
        <ele>127</ele>
        <time>2013-11-02T14:10:52Z</time>
      </trkpt>
      <trkpt lat="43.76791" lon="7.33368">
        <ele>126</ele>
        <time>2013-11-02T14:10:57Z</time>
      </trkpt>
      <trkpt lat="43.76783" lon="7.33394">
        <ele>126</ele>
        <time>2013-11-02T14:11:02Z</time>
      </trkpt>
      <trkpt lat="43.76774" lon="7.33421">
        <ele>130</ele>
        <time>2013-11-02T14:11:07Z</time>
      </trkpt>
      <trkpt lat="43.76761" lon="7.33444">
        <ele>131</ele>
        <time>2013-11-02T14:11:12Z</time>
      </trkpt>
      <trkpt lat="43.76746" lon="7.33465">
        <ele>121</ele>
        <time>2013-11-02T14:11:17Z</time>
      </trkpt>
      <trkpt lat="43.7673" lon="7.33487">
        <ele>123</ele>
        <time>2013-11-02T14:11:22Z</time>
      </trkpt>
      <trkpt lat="43.76714" lon="7.33507">
        <ele>126</ele>
        <time>2013-11-02T14:11:27Z</time>
      </trkpt>
      <trkpt lat="43.76699" lon="7.33529">
        <ele>125</ele>
        <time>2013-11-02T14:11:32Z</time>
      </trkpt>
      <trkpt lat="43.76685" lon="7.33552">
        <ele>124</ele>
        <time>2013-11-02T14:11:37Z</time>
      </trkpt>
      <trkpt lat="43.76673" lon="7.33577">
        <ele>121</ele>
        <time>2013-11-02T14:11:42Z</time>
      </trkpt>
      <trkpt lat="43.76664" lon="7.33605">
        <ele>120</ele>
        <time>2013-11-02T14:11:47Z</time>
      </trkpt>
      <trkpt lat="43.76654" lon="7.33632">
        <ele>122</ele>
        <time>2013-11-02T14:11:52Z</time>
      </trkpt>
      <trkpt lat="43.7664" lon="7.33655">
        <ele>122</ele>
        <time>2013-11-02T14:11:57Z</time>
      </trkpt>
      <trkpt lat="43.76624" lon="7.33675">
        <ele>125</ele>
        <time>2013-11-02T14:12:02Z</time>
      </trkpt>
      <trkpt lat="43.76612" lon="7.33692">
        <ele>125</ele>
        <time>2013-11-02T14:12:07Z</time>
      </trkpt>
      <trkpt lat="43.766" lon="7.33708">
        <ele>125</ele>
        <time>2013-11-02T14:12:12Z</time>
      </trkpt>
      <trkpt lat="43.76588" lon="7.33726">
        <ele>124</ele>
        <time>2013-11-02T14:12:17Z</time>
      </trkpt>
      <trkpt lat="43.76576" lon="7.33744">
        <ele>122</ele>
        <time>2013-11-02T14:12:22Z</time>
      </trkpt>
      <trkpt lat="43.76572" lon="7.33767">
        <ele>122</ele>
        <time>2013-11-02T14:12:27Z</time>
      </trkpt>
      <trkpt lat="43.76576" lon="7.33791">
        <ele>122</ele>
        <time>2013-11-02T14:12:32Z</time>
      </trkpt>
      <trkpt lat="43.76581" lon="7.33812">
        <ele>123</ele>
        <time>2013-11-02T14:12:37Z</time>
      </trkpt>
      <trkpt lat="43.76588" lon="7.33829">
        <ele>125</ele>
        <time>2013-11-02T14:12:42Z</time>
      </trkpt>
      <trkpt lat="43.76597" lon="7.33847">
        <ele>128</ele>
        <time>2013-11-02T14:12:47Z</time>
      </trkpt>
      <trkpt lat="43.76608" lon="7.33864">
        <ele>131</ele>
        <time>2013-11-02T14:12:52Z</time>
      </trkpt>
      <trkpt lat="43.76616" lon="7.33883">
        <ele>132</ele>
        <time>2013-11-02T14:12:57Z</time>
      </trkpt>
      <trkpt lat="43.7662" lon="7.33904">
        <ele>132</ele>
        <time>2013-11-02T14:13:02Z</time>
      </trkpt>
      <trkpt lat="43.76622" lon="7.33926">
        <ele>134</ele>
        <time>2013-11-02T14:13:07Z</time>
      </trkpt>
      <trkpt lat="43.76623" lon="7.33953">
        <ele>135</ele>
        <time>2013-11-02T14:13:12Z</time>
      </trkpt>
      <trkpt lat="43.76618" lon="7.33981">
        <ele>135</ele>
        <time>2013-11-02T14:13:17Z</time>
      </trkpt>
      <trkpt lat="43.7661" lon="7.34009">
        <ele>134</ele>
        <time>2013-11-02T14:13:22Z</time>
      </trkpt>
      <trkpt lat="43.76605" lon="7.34039">
        <ele>134</ele>
        <time>2013-11-02T14:13:27Z</time>
      </trkpt>
      <trkpt lat="43.76611" lon="7.3407">
        <ele>133</ele>
        <time>2013-11-02T14:13:32Z</time>
      </trkpt>
      <trkpt lat="43.76621" lon="7.34102">
        <ele>132</ele>
        <time>2013-11-02T14:13:37Z</time>
      </trkpt>
      <trkpt lat="43.76631" lon="7.34132">
        <ele>132</ele>
        <time>2013-11-02T14:13:42Z</time>
      </trkpt>
      <trkpt lat="43.76641" lon="7.34161">
        <ele>133</ele>
        <time>2013-11-02T14:13:47Z</time>
      </trkpt>
      <trkpt lat="43.7665" lon="7.34189">
        <ele>133</ele>
        <time>2013-11-02T14:13:52Z</time>
      </trkpt>
      <trkpt lat="43.7666" lon="7.34217">
        <ele>133</ele>
        <time>2013-11-02T14:13:57Z</time>
      </trkpt>
      <trkpt lat="43.76662" lon="7.34249">
        <ele>138</ele>
        <time>2013-11-02T14:14:02Z</time>
      </trkpt>
      <trkpt lat="43.76656" lon="7.34279">
        <ele>134</ele>
        <time>2013-11-02T14:14:07Z</time>
      </trkpt>
      <trkpt lat="43.76643" lon="7.34305">
        <ele>133</ele>
        <time>2013-11-02T14:14:12Z</time>
      </trkpt>
      <trkpt lat="43.76625" lon="7.34326">
        <ele>131</ele>
        <time>2013-11-02T14:14:17Z</time>
      </trkpt>
      <trkpt lat="43.76604" lon="7.34339">
        <ele>129</ele>
        <time>2013-11-02T14:14:22Z</time>
      </trkpt>
      <trkpt lat="43.76585" lon="7.34353">
        <ele>128</ele>
        <time>2013-11-02T14:14:27Z</time>
      </trkpt>
      <trkpt lat="43.76572" lon="7.34377">
        <ele>125</ele>
        <time>2013-11-02T14:14:32Z</time>
      </trkpt>
      <trkpt lat="43.76568" lon="7.34408">
        <ele>125</ele>
        <time>2013-11-02T14:14:37Z</time>
      </trkpt>
      <trkpt lat="43.76568" lon="7.34439">
        <ele>127</ele>
        <time>2013-11-02T14:14:42Z</time>
      </trkpt>
      <trkpt lat="43.76566" lon="7.3447">
        <ele>128</ele>
        <time>2013-11-02T14:14:47Z</time>
      </trkpt>
      <trkpt lat="43.76553" lon="7.34495">
        <ele>128</ele>
        <time>2013-11-02T14:14:52Z</time>
      </trkpt>
      <trkpt lat="43.76536" lon="7.34511">
        <ele>131</ele>
        <time>2013-11-02T14:14:57Z</time>
      </trkpt>
      <trkpt lat="43.76518" lon="7.34528">
        <ele>131</ele>
        <time>2013-11-02T14:15:02Z</time>
      </trkpt>
      <trkpt lat="43.76506" lon="7.34552">
        <ele>131</ele>
        <time>2013-11-02T14:15:07Z</time>
      </trkpt>
      <trkpt lat="43.76501" lon="7.34576">
        <ele>131</ele>
        <time>2013-11-02T14:15:12Z</time>
      </trkpt>
      <trkpt lat="43.76498" lon="7.34593">
        <ele>131</ele>
        <time>2013-11-02T14:15:17Z</time>
      </trkpt>
      <trkpt lat="43.76495" lon="7.34604">
        <ele>130</ele>
        <time>2013-11-02T14:15:22Z</time>
      </trkpt>
      <trkpt lat="43.76493" lon="7.34611">
        <ele>130</ele>
        <time>2013-11-02T14:15:27Z</time>
      </trkpt>
      <trkpt lat="43.76487" lon="7.34623">
        <ele>130</ele>
        <time>2013-11-02T14:15:51Z</time>
      </trkpt>
      <trkpt lat="43.76475" lon="7.3463">
        <ele>130</ele>
        <time>2013-11-02T14:15:56Z</time>
      </trkpt>
      <trkpt lat="43.76462" lon="7.34636">
        <ele>130</ele>
        <time>2013-11-02T14:16:01Z</time>
      </trkpt>
      <trkpt lat="43.76448" lon="7.34643">
        <ele>131</ele>
        <time>2013-11-02T14:16:06Z</time>
      </trkpt>
      <trkpt lat="43.76431" lon="7.34659">
        <ele>132</ele>
        <time>2013-11-02T14:16:11Z</time>
      </trkpt>
      <trkpt lat="43.76416" lon="7.34676">
        <ele>140</ele>
        <time>2013-11-02T14:16:16Z</time>
      </trkpt>
      <trkpt lat="43.76408" lon="7.34682">
        <ele>145</ele>
        <time>2013-11-02T14:16:21Z</time>
      </trkpt>
      <trkpt lat="43.76403" lon="7.3469">
        <ele>149</ele>
        <time>2013-11-02T14:16:27Z</time>
      </trkpt>
      <trkpt lat="43.76403" lon="7.34698">
        <ele>151</ele>
        <time>2013-11-02T14:16:37Z</time>
      </trkpt>
      <trkpt lat="43.76399" lon="7.34703">
        <ele>152</ele>
        <time>2013-11-02T14:16:53Z</time>
      </trkpt>
      <trkpt lat="43.76399" lon="7.34713">
        <ele>153</ele>
        <time>2013-11-02T14:17:09Z</time>
      </trkpt>
      <trkpt lat="43.76402" lon="7.34721">
        <ele>153</ele>
        <time>2013-11-02T14:17:19Z</time>
      </trkpt>
      <trkpt lat="43.76408" lon="7.34729">
        <ele>152</ele>
        <time>2013-11-02T14:17:24Z</time>
      </trkpt>
      <trkpt lat="43.76417" lon="7.3474">
        <ele>150</ele>
        <time>2013-11-02T14:17:29Z</time>
      </trkpt>
      <trkpt lat="43.76427" lon="7.34749">
        <ele>143</ele>
        <time>2013-11-02T14:17:34Z</time>
      </trkpt>
      <trkpt lat="43.76438" lon="7.34759">
        <ele>145</ele>
        <time>2013-11-02T14:17:39Z</time>
      </trkpt>
      <trkpt lat="43.76449" lon="7.34774">
        <ele>144</ele>
        <time>2013-11-02T14:17:44Z</time>
      </trkpt>
      <trkpt lat="43.76456" lon="7.34792">
        <ele>144</ele>
        <time>2013-11-02T14:17:49Z</time>
      </trkpt>
      <trkpt lat="43.76466" lon="7.34802">
        <ele>143</ele>
        <time>2013-11-02T14:17:54Z</time>
      </trkpt>
      <trkpt lat="43.76469" lon="7.34813">
        <ele>143</ele>
        <time>2013-11-02T14:17:59Z</time>
      </trkpt>
      <trkpt lat="43.76468" lon="7.34827">
        <ele>143</ele>
        <time>2013-11-02T14:18:04Z</time>
      </trkpt>
      <trkpt lat="43.76469" lon="7.3484">
        <ele>149</ele>
        <time>2013-11-02T14:18:09Z</time>
      </trkpt>
      <trkpt lat="43.76471" lon="7.34854">
        <ele>149</ele>
        <time>2013-11-02T14:18:14Z</time>
      </trkpt>
      <trkpt lat="43.76473" lon="7.34868">
        <ele>150</ele>
        <time>2013-11-02T14:18:19Z</time>
      </trkpt>
      <trkpt lat="43.76475" lon="7.34881">
        <ele>150</ele>
        <time>2013-11-02T14:18:24Z</time>
      </trkpt>
      <trkpt lat="43.76474" lon="7.34895">
        <ele>150</ele>
        <time>2013-11-02T14:18:29Z</time>
      </trkpt>
      <trkpt lat="43.7647" lon="7.34908">
        <ele>151</ele>
        <time>2013-11-02T14:18:34Z</time>
      </trkpt>
      <trkpt lat="43.76462" lon="7.34917">
        <ele>156</ele>
        <time>2013-11-02T14:18:39Z</time>
      </trkpt>
      <trkpt lat="43.76455" lon="7.34931">
        <ele>159</ele>
        <time>2013-11-02T14:18:44Z</time>
      </trkpt>
      <trkpt lat="43.76449" lon="7.34942">
        <ele>161</ele>
        <time>2013-11-02T14:18:49Z</time>
      </trkpt>
      <trkpt lat="43.76446" lon="7.34959">
        <ele>161</ele>
        <time>2013-11-02T14:18:54Z</time>
      </trkpt>
      <trkpt lat="43.76447" lon="7.34974">
        <ele>162</ele>
        <time>2013-11-02T14:18:59Z</time>
      </trkpt>
      <trkpt lat="43.76445" lon="7.34983">
        <ele>163</ele>
        <time>2013-11-02T14:19:04Z</time>
      </trkpt>
      <trkpt lat="43.76447" lon="7.34969">
        <ele>161</ele>
        <time>2013-11-02T14:19:14Z</time>
      </trkpt>
      <trkpt lat="43.76444" lon="7.34961">
        <ele>162</ele>
        <time>2013-11-02T14:19:24Z</time>
      </trkpt>
      <trkpt lat="43.76445" lon="7.3495">
        <ele>161</ele>
        <time>2013-11-02T14:20:07Z</time>
      </trkpt>
      <trkpt lat="43.7645" lon="7.3494">
        <ele>160</ele>
        <time>2013-11-02T14:20:12Z</time>
      </trkpt>
      <trkpt lat="43.76456" lon="7.3493">
        <ele>159</ele>
        <time>2013-11-02T14:20:17Z</time>
      </trkpt>
      <trkpt lat="43.76463" lon="7.34916">
        <ele>153</ele>
        <time>2013-11-02T14:20:22Z</time>
      </trkpt>
      <trkpt lat="43.76469" lon="7.34901">
        <ele>151</ele>
        <time>2013-11-02T14:20:27Z</time>
      </trkpt>
      <trkpt lat="43.76469" lon="7.34887">
        <ele>151</ele>
        <time>2013-11-02T14:20:32Z</time>
      </trkpt>
      <trkpt lat="43.7647" lon="7.34871">
        <ele>151</ele>
        <time>2013-11-02T14:20:37Z</time>
      </trkpt>
      <trkpt lat="43.7647" lon="7.34854">
        <ele>149</ele>
        <time>2013-11-02T14:20:42Z</time>
      </trkpt>
      <trkpt lat="43.76462" lon="7.34839">
        <ele>151</ele>
        <time>2013-11-02T14:20:47Z</time>
      </trkpt>
      <trkpt lat="43.76449" lon="7.34829">
        <ele>149</ele>
        <time>2013-11-02T14:20:52Z</time>
      </trkpt>
      <trkpt lat="43.7644" lon="7.34814">
        <ele>150</ele>
        <time>2013-11-02T14:20:57Z</time>
      </trkpt>
      <trkpt lat="43.76436" lon="7.34795">
        <ele>148</ele>
        <time>2013-11-02T14:21:02Z</time>
      </trkpt>
      <trkpt lat="43.76429" lon="7.34777">
        <ele>146</ele>
        <time>2013-11-02T14:21:07Z</time>
      </trkpt>
      <trkpt lat="43.76417" lon="7.34766">
        <ele>159</ele>
        <time>2013-11-02T14:21:12Z</time>
      </trkpt>
      <trkpt lat="43.76403" lon="7.34753">
        <ele>158</ele>
        <time>2013-11-02T14:21:17Z</time>
      </trkpt>
      <trkpt lat="43.7639" lon="7.34734">
        <ele>156</ele>
        <time>2013-11-02T14:21:22Z</time>
      </trkpt>
      <trkpt lat="43.76372" lon="7.34717">
        <ele>159</ele>
        <time>2013-11-02T14:21:27Z</time>
      </trkpt>
      <trkpt lat="43.76364" lon="7.3469">
        <ele>158</ele>
        <time>2013-11-02T14:21:32Z</time>
      </trkpt>
      <trkpt lat="43.7636" lon="7.34663">
        <ele>151</ele>
        <time>2013-11-02T14:21:37Z</time>
      </trkpt>
      <trkpt lat="43.76353" lon="7.34626">
        <ele>148</ele>
        <time>2013-11-02T14:21:42Z</time>
      </trkpt>
      <trkpt lat="43.76348" lon="7.34587">
        <ele>148</ele>
        <time>2013-11-02T14:21:47Z</time>
      </trkpt>
      <trkpt lat="43.76343" lon="7.34548">
        <ele>146</ele>
        <time>2013-11-02T14:21:52Z</time>
      </trkpt>
      <trkpt lat="43.76342" lon="7.34512">
        <ele>152</ele>
        <time>2013-11-02T14:21:57Z</time>
      </trkpt>
      <trkpt lat="43.76344" lon="7.34487">
        <ele>155</ele>
        <time>2013-11-02T14:22:02Z</time>
      </trkpt>
      <trkpt lat="43.7635" lon="7.34475">
        <ele>154</ele>
        <time>2013-11-02T14:22:07Z</time>
      </trkpt>
      <trkpt lat="43.76352" lon="7.34466">
        <ele>154</ele>
        <time>2013-11-02T14:22:12Z</time>
      </trkpt>
      <trkpt lat="43.76363" lon="7.34453">
        <ele>153</ele>
        <time>2013-11-02T14:22:17Z</time>
      </trkpt>
      <trkpt lat="43.76369" lon="7.34444">
        <ele>152</ele>
        <time>2013-11-02T14:22:22Z</time>
      </trkpt>
      <trkpt lat="43.76371" lon="7.34436">
        <ele>152</ele>
        <time>2013-11-02T14:22:27Z</time>
      </trkpt>
      <trkpt lat="43.76372" lon="7.34429">
        <ele>152</ele>
        <time>2013-11-02T14:22:32Z</time>
      </trkpt>
      <trkpt lat="43.76375" lon="7.34421">
        <ele>151</ele>
        <time>2013-11-02T14:22:37Z</time>
      </trkpt>
      <trkpt lat="43.76379" lon="7.34413">
        <ele>155</ele>
        <time>2013-11-02T14:22:42Z</time>
      </trkpt>
      <trkpt lat="43.76382" lon="7.34405">
        <ele>154</ele>
        <time>2013-11-02T14:22:47Z</time>
      </trkpt>
      <trkpt lat="43.7639" lon="7.34393">
        <ele>152</ele>
        <time>2013-11-02T14:22:52Z</time>
      </trkpt>
      <trkpt lat="43.76393" lon="7.34385">
        <ele>152</ele>
        <time>2013-11-02T14:22:57Z</time>
      </trkpt>
      <trkpt lat="43.76392" lon="7.34376">
        <ele>153</ele>
        <time>2013-11-02T14:23:51Z</time>
      </trkpt>
      <trkpt lat="43.76394" lon="7.34365">
        <ele>153</ele>
        <time>2013-11-02T14:23:56Z</time>
      </trkpt>
      <trkpt lat="43.76395" lon="7.34348">
        <ele>151</ele>
        <time>2013-11-02T14:24:01Z</time>
      </trkpt>
      <trkpt lat="43.76395" lon="7.34333">
        <ele>151</ele>
        <time>2013-11-02T14:24:06Z</time>
      </trkpt>
      <trkpt lat="43.76393" lon="7.34314">
        <ele>153</ele>
        <time>2013-11-02T14:24:11Z</time>
      </trkpt>
      <trkpt lat="43.76396" lon="7.34293">
        <ele>154</ele>
        <time>2013-11-02T14:24:16Z</time>
      </trkpt>
      <trkpt lat="43.7639" lon="7.34275">
        <ele>155</ele>
        <time>2013-11-02T14:24:21Z</time>
      </trkpt>
      <trkpt lat="43.76386" lon="7.34252">
        <ele>155</ele>
        <time>2013-11-02T14:24:26Z</time>
      </trkpt>
      <trkpt lat="43.76391" lon="7.34234">
        <ele>157</ele>
        <time>2013-11-02T14:24:31Z</time>
      </trkpt>
      <trkpt lat="43.76397" lon="7.34212">
        <ele>158</ele>
        <time>2013-11-02T14:24:36Z</time>
      </trkpt>
      <trkpt lat="43.76404" lon="7.34188">
        <ele>157</ele>
        <time>2013-11-02T14:24:41Z</time>
      </trkpt>
      <trkpt lat="43.7641" lon="7.34162">
        <ele>155</ele>
        <time>2013-11-02T14:24:46Z</time>
      </trkpt>
      <trkpt lat="43.76414" lon="7.34135">
        <ele>162</ele>
        <time>2013-11-02T14:24:51Z</time>
      </trkpt>
      <trkpt lat="43.76419" lon="7.34111">
        <ele>148</ele>
        <time>2013-11-02T14:24:56Z</time>
      </trkpt>
      <trkpt lat="43.76424" lon="7.3409">
        <ele>152</ele>
        <time>2013-11-02T14:25:01Z</time>
      </trkpt>
      <trkpt lat="43.76425" lon="7.34067">
        <ele>149</ele>
        <time>2013-11-02T14:25:06Z</time>
      </trkpt>
      <trkpt lat="43.76424" lon="7.34043">
        <ele>147</ele>
        <time>2013-11-02T14:25:11Z</time>
      </trkpt>
      <trkpt lat="43.76423" lon="7.34022">
        <ele>146</ele>
        <time>2013-11-02T14:25:16Z</time>
      </trkpt>
      <trkpt lat="43.76421" lon="7.34003">
        <ele>148</ele>
        <time>2013-11-02T14:25:21Z</time>
      </trkpt>
      <trkpt lat="43.76411" lon="7.33988">
        <ele>149</ele>
        <time>2013-11-02T14:25:26Z</time>
      </trkpt>
      <trkpt lat="43.76399" lon="7.33983">
        <ele>149</ele>
        <time>2013-11-02T14:25:31Z</time>
      </trkpt>
      <trkpt lat="43.76385" lon="7.33982">
        <ele>150</ele>
        <time>2013-11-02T14:25:36Z</time>
      </trkpt>
      <trkpt lat="43.7637" lon="7.33972">
        <ele>151</ele>
        <time>2013-11-02T14:25:41Z</time>
      </trkpt>
      <trkpt lat="43.76354" lon="7.33957">
        <ele>151</ele>
        <time>2013-11-02T14:25:46Z</time>
      </trkpt>
      <trkpt lat="43.76335" lon="7.33945">
        <ele>150</ele>
        <time>2013-11-02T14:25:51Z</time>
      </trkpt>
      <trkpt lat="43.76319" lon="7.33938">
        <ele>156</ele>
        <time>2013-11-02T14:25:56Z</time>
      </trkpt>
      <trkpt lat="43.7631" lon="7.33938">
        <ele>157</ele>
        <time>2013-11-02T14:26:01Z</time>
      </trkpt>
      <trkpt lat="43.76295" lon="7.33921">
        <ele>157</ele>
        <time>2013-11-02T14:26:06Z</time>
      </trkpt>
      <trkpt lat="43.7629" lon="7.33917">
        <ele>152</ele>
        <time>2013-11-02T14:26:15Z</time>
      </trkpt>
      <trkpt lat="43.76286" lon="7.33909">
        <ele>153</ele>
        <time>2013-11-02T14:26:40Z</time>
      </trkpt>
      <trkpt lat="43.76283" lon="7.33902">
        <ele>153</ele>
        <time>2013-11-02T14:26:52Z</time>
      </trkpt>
      <trkpt lat="43.76279" lon="7.33892">
        <ele>153</ele>
        <time>2013-11-02T14:26:57Z</time>
      </trkpt>
      <trkpt lat="43.76271" lon="7.33882">
        <ele>153</ele>
        <time>2013-11-02T14:27:02Z</time>
      </trkpt>
      <trkpt lat="43.76261" lon="7.33871">
        <ele>153</ele>
        <time>2013-11-02T14:27:07Z</time>
      </trkpt>
      <trkpt lat="43.76254" lon="7.33864">
        <ele>153</ele>
        <time>2013-11-02T14:27:12Z</time>
      </trkpt>
      <trkpt lat="43.76249" lon="7.33856">
        <ele>157</ele>
        <time>2013-11-02T14:27:29Z</time>
      </trkpt>
      <trkpt lat="43.76241" lon="7.3385">
        <ele>157</ele>
        <time>2013-11-02T14:28:24Z</time>
      </trkpt>
      <trkpt lat="43.76237" lon="7.33846">
        <ele>157</ele>
        <time>2013-11-02T14:28:38Z</time>
      </trkpt>
      <trkpt lat="43.76236" lon="7.33839">
        <ele>156</ele>
        <time>2013-11-02T14:28:49Z</time>
      </trkpt>
      <trkpt lat="43.76229" lon="7.33832">
        <ele>155</ele>
        <time>2013-11-02T14:29:05Z</time>
      </trkpt>
      <trkpt lat="43.7623" lon="7.33819">
        <ele>155</ele>
        <time>2013-11-02T14:29:15Z</time>
      </trkpt>
      <trkpt lat="43.76232" lon="7.33813">
        <ele>155</ele>
        <time>2013-11-02T14:29:20Z</time>
      </trkpt>
      <trkpt lat="43.76234" lon="7.33807">
        <ele>155</ele>
        <time>2013-11-02T14:29:29Z</time>
      </trkpt>
      <trkpt lat="43.76236" lon="7.33795">
        <ele>155</ele>
        <time>2013-11-02T14:29:34Z</time>
      </trkpt>
      <trkpt lat="43.76242" lon="7.33777">
        <ele>155</ele>
        <time>2013-11-02T14:29:39Z</time>
      </trkpt>
      <trkpt lat="43.76244" lon="7.33767">
        <ele>154</ele>
        <time>2013-11-02T14:29:44Z</time>
      </trkpt>
      <trkpt lat="43.76242" lon="7.33754">
        <ele>154</ele>
        <time>2013-11-02T14:29:49Z</time>
      </trkpt>
      <trkpt lat="43.76244" lon="7.33738">
        <ele>154</ele>
        <time>2013-11-02T14:29:54Z</time>
      </trkpt>
      <trkpt lat="43.76247" lon="7.33724">
        <ele>154</ele>
        <time>2013-11-02T14:29:59Z</time>
      </trkpt>
      <trkpt lat="43.76253" lon="7.33709">
        <ele>149</ele>
        <time>2013-11-02T14:30:04Z</time>
      </trkpt>
      <trkpt lat="43.76256" lon="7.33695">
        <ele>149</ele>
        <time>2013-11-02T14:30:09Z</time>
      </trkpt>
      <trkpt lat="43.76258" lon="7.33676">
        <ele>151</ele>
        <time>2013-11-02T14:30:14Z</time>
      </trkpt>
      <trkpt lat="43.76261" lon="7.33656">
        <ele>152</ele>
        <time>2013-11-02T14:30:19Z</time>
      </trkpt>
      <trkpt lat="43.76262" lon="7.33633">
        <ele>151</ele>
        <time>2013-11-02T14:30:24Z</time>
      </trkpt>
      <trkpt lat="43.76269" lon="7.33613">
        <ele>151</ele>
        <time>2013-11-02T14:30:29Z</time>
      </trkpt>
      <trkpt lat="43.76284" lon="7.33603">
        <ele>150</ele>
        <time>2013-11-02T14:30:34Z</time>
      </trkpt>
      <trkpt lat="43.763" lon="7.33598">
        <ele>149</ele>
        <time>2013-11-02T14:30:39Z</time>
      </trkpt>
      <trkpt lat="43.76311" lon="7.33586">
        <ele>148</ele>
        <time>2013-11-02T14:30:44Z</time>
      </trkpt>
      <trkpt lat="43.76324" lon="7.33573">
        <ele>152</ele>
        <time>2013-11-02T14:30:49Z</time>
      </trkpt>
      <trkpt lat="43.76333" lon="7.33552">
        <ele>156</ele>
        <time>2013-11-02T14:30:54Z</time>
      </trkpt>
      <trkpt lat="43.76348" lon="7.33536">
        <ele>147</ele>
        <time>2013-11-02T14:30:59Z</time>
      </trkpt>
      <trkpt lat="43.76365" lon="7.33529">
        <ele>145</ele>
        <time>2013-11-02T14:31:04Z</time>
      </trkpt>
      <trkpt lat="43.7638" lon="7.33517">
        <ele>144</ele>
        <time>2013-11-02T14:31:09Z</time>
      </trkpt>
      <trkpt lat="43.76393" lon="7.33497">
        <ele>150</ele>
        <time>2013-11-02T14:31:14Z</time>
      </trkpt>
      <trkpt lat="43.76394" lon="7.33471">
        <ele>153</ele>
        <time>2013-11-02T14:31:19Z</time>
      </trkpt>
      <trkpt lat="43.76402" lon="7.33452">
        <ele>154</ele>
        <time>2013-11-02T14:31:24Z</time>
      </trkpt>
      <trkpt lat="43.76418" lon="7.33439">
        <ele>141</ele>
        <time>2013-11-02T14:31:29Z</time>
      </trkpt>
      <trkpt lat="43.76436" lon="7.33435">
        <ele>139</ele>
        <time>2013-11-02T14:31:34Z</time>
      </trkpt>
      <trkpt lat="43.7645" lon="7.33416">
        <ele>142</ele>
        <time>2013-11-02T14:31:39Z</time>
      </trkpt>
      <trkpt lat="43.76455" lon="7.33393">
        <ele>141</ele>
        <time>2013-11-02T14:31:44Z</time>
      </trkpt>
      <trkpt lat="43.76455" lon="7.33369">
        <ele>142</ele>
        <time>2013-11-02T14:31:49Z</time>
      </trkpt>
      <trkpt lat="43.7645" lon="7.33345">
        <ele>145</ele>
        <time>2013-11-02T14:31:54Z</time>
      </trkpt>
      <trkpt lat="43.76441" lon="7.33322">
        <ele>150</ele>
        <time>2013-11-02T14:31:59Z</time>
      </trkpt>
      <trkpt lat="43.76449" lon="7.33303">
        <ele>148</ele>
        <time>2013-11-02T14:32:04Z</time>
      </trkpt>
      <trkpt lat="43.76462" lon="7.33283">
        <ele>145</ele>
        <time>2013-11-02T14:32:09Z</time>
      </trkpt>
      <trkpt lat="43.76471" lon="7.33261">
        <ele>143</ele>
        <time>2013-11-02T14:32:14Z</time>
      </trkpt>
      <trkpt lat="43.76474" lon="7.33239">
        <ele>141</ele>
        <time>2013-11-02T14:32:19Z</time>
      </trkpt>
      <trkpt lat="43.76463" lon="7.33215">
        <ele>144</ele>
        <time>2013-11-02T14:32:24Z</time>
      </trkpt>
      <trkpt lat="43.76449" lon="7.33191">
        <ele>146</ele>
        <time>2013-11-02T14:32:29Z</time>
      </trkpt>
      <trkpt lat="43.76432" lon="7.33175">
        <ele>150</ele>
        <time>2013-11-02T14:32:34Z</time>
      </trkpt>
      <trkpt lat="43.76421" lon="7.33155">
        <ele>150</ele>
        <time>2013-11-02T14:32:39Z</time>
      </trkpt>
      <trkpt lat="43.76418" lon="7.33128">
        <ele>145</ele>
        <time>2013-11-02T14:32:44Z</time>
      </trkpt>
      <trkpt lat="43.76416" lon="7.33103">
        <ele>161</ele>
        <time>2013-11-02T14:32:49Z</time>
      </trkpt>
      <trkpt lat="43.76413" lon="7.33079">
        <ele>156</ele>
        <time>2013-11-02T14:32:54Z</time>
      </trkpt>
      <trkpt lat="43.76421" lon="7.33056">
        <ele>144</ele>
        <time>2013-11-02T14:32:59Z</time>
      </trkpt>
      <trkpt lat="43.76429" lon="7.33032">
        <ele>144</ele>
        <time>2013-11-02T14:33:04Z</time>
      </trkpt>
      <trkpt lat="43.76438" lon="7.3301">
        <ele>145</ele>
        <time>2013-11-02T14:33:09Z</time>
      </trkpt>
      <trkpt lat="43.76436" lon="7.32988">
        <ele>143</ele>
        <time>2013-11-02T14:33:14Z</time>
      </trkpt>
      <trkpt lat="43.7643" lon="7.3297">
        <ele>142</ele>
        <time>2013-11-02T14:33:19Z</time>
      </trkpt>
      <trkpt lat="43.76429" lon="7.32952">
        <ele>141</ele>
        <time>2013-11-02T14:33:24Z</time>
      </trkpt>
      <trkpt lat="43.76425" lon="7.32938">
        <ele>143</ele>
        <time>2013-11-02T14:33:29Z</time>
      </trkpt>
      <trkpt lat="43.76421" lon="7.3292">
        <ele>149</ele>
        <time>2013-11-02T14:33:34Z</time>
      </trkpt>
      <trkpt lat="43.76418" lon="7.32898">
        <ele>140</ele>
        <time>2013-11-02T14:33:39Z</time>
      </trkpt>
      <trkpt lat="43.76414" lon="7.32877">
        <ele>164</ele>
        <time>2013-11-02T14:33:44Z</time>
      </trkpt>
      <trkpt lat="43.76405" lon="7.32852">
        <ele>160</ele>
        <time>2013-11-02T14:33:49Z</time>
      </trkpt>
      <trkpt lat="43.76402" lon="7.32824">
        <ele>154</ele>
        <time>2013-11-02T14:33:54Z</time>
      </trkpt>
      <trkpt lat="43.76407" lon="7.32795">
        <ele>156</ele>
        <time>2013-11-02T14:33:59Z</time>
      </trkpt>
      <trkpt lat="43.76408" lon="7.32768">
        <ele>150</ele>
        <time>2013-11-02T14:34:04Z</time>
      </trkpt>
      <trkpt lat="43.76396" lon="7.32742">
        <ele>146</ele>
        <time>2013-11-02T14:34:09Z</time>
      </trkpt>
      <trkpt lat="43.76385" lon="7.32717">
        <ele>151</ele>
        <time>2013-11-02T14:34:14Z</time>
      </trkpt>
      <trkpt lat="43.76374" lon="7.32696">
        <ele>153</ele>
        <time>2013-11-02T14:34:19Z</time>
      </trkpt>
      <trkpt lat="43.76359" lon="7.32681">
        <ele>158</ele>
        <time>2013-11-02T14:34:24Z</time>
      </trkpt>
      <trkpt lat="43.76361" lon="7.3266">
        <ele>152</ele>
        <time>2013-11-02T14:34:29Z</time>
      </trkpt>
      <trkpt lat="43.76362" lon="7.32633">
        <ele>149</ele>
        <time>2013-11-02T14:34:34Z</time>
      </trkpt>
      <trkpt lat="43.7636" lon="7.32602">
        <ele>149</ele>
        <time>2013-11-02T14:34:39Z</time>
      </trkpt>
      <trkpt lat="43.76358" lon="7.32574">
        <ele>149</ele>
        <time>2013-11-02T14:34:44Z</time>
      </trkpt>
      <trkpt lat="43.76355" lon="7.32545">
        <ele>147</ele>
        <time>2013-11-02T14:34:49Z</time>
      </trkpt>
      <trkpt lat="43.76347" lon="7.32518">
        <ele>151</ele>
        <time>2013-11-02T14:34:54Z</time>
      </trkpt>
      <trkpt lat="43.76343" lon="7.32494">
        <ele>156</ele>
        <time>2013-11-02T14:34:59Z</time>
      </trkpt>
      <trkpt lat="43.76348" lon="7.32469">
        <ele>149</ele>
        <time>2013-11-02T14:35:04Z</time>
      </trkpt>
      <trkpt lat="43.76353" lon="7.32443">
        <ele>148</ele>
        <time>2013-11-02T14:35:09Z</time>
      </trkpt>
      <trkpt lat="43.76359" lon="7.32415">
        <ele>147</ele>
        <time>2013-11-02T14:35:14Z</time>
      </trkpt>
      <trkpt lat="43.76367" lon="7.32388">
        <ele>142</ele>
        <time>2013-11-02T14:35:19Z</time>
      </trkpt>
      <trkpt lat="43.76372" lon="7.32363">
        <ele>140</ele>
        <time>2013-11-02T14:35:24Z</time>
      </trkpt>
      <trkpt lat="43.76369" lon="7.32339">
        <ele>141</ele>
        <time>2013-11-02T14:35:29Z</time>
      </trkpt>
      <trkpt lat="43.76357" lon="7.32322">
        <ele>137</ele>
        <time>2013-11-02T14:35:34Z</time>
      </trkpt>
      <trkpt lat="43.76337" lon="7.32307">
        <ele>137</ele>
        <time>2013-11-02T14:35:39Z</time>
      </trkpt>
      <trkpt lat="43.76317" lon="7.32286">
        <ele>149</ele>
        <time>2013-11-02T14:35:44Z</time>
      </trkpt>
      <trkpt lat="43.76298" lon="7.32266">
        <ele>148</ele>
        <time>2013-11-02T14:35:49Z</time>
      </trkpt>
      <trkpt lat="43.76273" lon="7.32253">
        <ele>151</ele>
        <time>2013-11-02T14:35:54Z</time>
      </trkpt>
      <trkpt lat="43.76249" lon="7.32236">
        <ele>145</ele>
        <time>2013-11-02T14:35:59Z</time>
      </trkpt>
      <trkpt lat="43.76223" lon="7.32229">
        <ele>143</ele>
        <time>2013-11-02T14:36:04Z</time>
      </trkpt>
      <trkpt lat="43.76198" lon="7.32211">
        <ele>142</ele>
        <time>2013-11-02T14:36:09Z</time>
      </trkpt>
      <trkpt lat="43.76174" lon="7.32192">
        <ele>140</ele>
        <time>2013-11-02T14:36:14Z</time>
      </trkpt>
      <trkpt lat="43.76152" lon="7.32178">
        <ele>143</ele>
        <time>2013-11-02T14:36:19Z</time>
      </trkpt>
      <trkpt lat="43.76134" lon="7.3217">
        <ele>144</ele>
        <time>2013-11-02T14:36:24Z</time>
      </trkpt>
      <trkpt lat="43.76115" lon="7.32177">
        <ele>145</ele>
        <time>2013-11-02T14:36:29Z</time>
      </trkpt>
      <trkpt lat="43.76101" lon="7.32201">
        <ele>148</ele>
        <time>2013-11-02T14:36:34Z</time>
      </trkpt>
      <trkpt lat="43.76091" lon="7.32216">
        <ele>151</ele>
        <time>2013-11-02T14:36:39Z</time>
      </trkpt>
      <trkpt lat="43.76078" lon="7.32219">
        <ele>153</ele>
        <time>2013-11-02T14:36:44Z</time>
      </trkpt>
      <trkpt lat="43.76067" lon="7.32219">
        <ele>153</ele>
        <time>2013-11-02T14:36:49Z</time>
      </trkpt>
      <trkpt lat="43.76052" lon="7.32236">
        <ele>155</ele>
        <time>2013-11-02T14:36:54Z</time>
      </trkpt>
      <trkpt lat="43.76036" lon="7.32259">
        <ele>169</ele>
        <time>2013-11-02T14:36:59Z</time>
      </trkpt>
      <trkpt lat="43.76027" lon="7.32268">
        <ele>169</ele>
        <time>2013-11-02T14:37:04Z</time>
      </trkpt>
      <trkpt lat="43.76028" lon="7.32255">
        <ele>168</ele>
        <time>2013-11-02T14:37:09Z</time>
      </trkpt>
      <trkpt lat="43.76021" lon="7.32226">
        <ele>156</ele>
        <time>2013-11-02T14:37:14Z</time>
      </trkpt>
      <trkpt lat="43.76002" lon="7.32189">
        <ele>150</ele>
        <time>2013-11-02T14:37:19Z</time>
      </trkpt>
      <trkpt lat="43.75984" lon="7.32164">
        <ele>139</ele>
        <time>2013-11-02T14:37:24Z</time>
      </trkpt>
      <trkpt lat="43.75961" lon="7.32146">
        <ele>134</ele>
        <time>2013-11-02T14:37:29Z</time>
      </trkpt>
      <trkpt lat="43.75942" lon="7.32152">
        <ele>135</ele>
        <time>2013-11-02T14:37:34Z</time>
      </trkpt>
      <trkpt lat="43.75927" lon="7.32177">
        <ele>148</ele>
        <time>2013-11-02T14:37:39Z</time>
      </trkpt>
      <trkpt lat="43.75906" lon="7.32183">
        <ele>144</ele>
        <time>2013-11-02T14:37:44Z</time>
      </trkpt>
      <trkpt lat="43.75881" lon="7.32176">
        <ele>142</ele>
        <time>2013-11-02T14:37:49Z</time>
      </trkpt>
      <trkpt lat="43.75855" lon="7.32188">
        <ele>140</ele>
        <time>2013-11-02T14:37:54Z</time>
      </trkpt>
      <trkpt lat="43.75848" lon="7.32209">
        <ele>142</ele>
        <time>2013-11-02T14:37:59Z</time>
      </trkpt>
      <trkpt lat="43.75858" lon="7.32236">
        <ele>144</ele>
        <time>2013-11-02T14:38:04Z</time>
      </trkpt>
      <trkpt lat="43.75859" lon="7.32268">
        <ele>154</ele>
        <time>2013-11-02T14:38:09Z</time>
      </trkpt>
      <trkpt lat="43.75844" lon="7.3229">
        <ele>155</ele>
        <time>2013-11-02T14:38:14Z</time>
      </trkpt>
      <trkpt lat="43.75821" lon="7.32298">
        <ele>144</ele>
        <time>2013-11-02T14:38:19Z</time>
      </trkpt>
      <trkpt lat="43.75803" lon="7.32316">
        <ele>144</ele>
        <time>2013-11-02T14:38:24Z</time>
      </trkpt>
      <trkpt lat="43.75798" lon="7.32348">
        <ele>156</ele>
        <time>2013-11-02T14:38:29Z</time>
      </trkpt>
      <trkpt lat="43.75793" lon="7.32369">
        <ele>158</ele>
        <time>2013-11-02T14:38:34Z</time>
      </trkpt>
      <trkpt lat="43.75788" lon="7.32379">
        <ele>158</ele>
        <time>2013-11-02T14:38:39Z</time>
      </trkpt>
      <trkpt lat="43.75771" lon="7.3237">
        <ele>156</ele>
        <time>2013-11-02T14:38:44Z</time>
      </trkpt>
      <trkpt lat="43.7575" lon="7.32366">
        <ele>154</ele>
        <time>2013-11-02T14:38:49Z</time>
      </trkpt>
      <trkpt lat="43.75729" lon="7.32371">
        <ele>150</ele>
        <time>2013-11-02T14:38:54Z</time>
      </trkpt>
      <trkpt lat="43.75716" lon="7.32394">
        <ele>152</ele>
        <time>2013-11-02T14:38:59Z</time>
      </trkpt>
      <trkpt lat="43.75706" lon="7.32403">
        <ele>153</ele>
        <time>2013-11-02T14:39:04Z</time>
      </trkpt>
      <trkpt lat="43.75701" lon="7.32382">
        <ele>150</ele>
        <time>2013-11-02T14:39:09Z</time>
      </trkpt>
      <trkpt lat="43.75687" lon="7.32362">
        <ele>147</ele>
        <time>2013-11-02T14:39:14Z</time>
      </trkpt>
      <trkpt lat="43.75673" lon="7.32363">
        <ele>147</ele>
        <time>2013-11-02T14:39:19Z</time>
      </trkpt>
      <trkpt lat="43.75658" lon="7.32375">
        <ele>142</ele>
        <time>2013-11-02T14:39:24Z</time>
      </trkpt>
      <trkpt lat="43.75644" lon="7.32388">
        <ele>143</ele>
        <time>2013-11-02T14:39:29Z</time>
      </trkpt>
      <trkpt lat="43.75632" lon="7.32401">
        <ele>143</ele>
        <time>2013-11-02T14:39:34Z</time>
      </trkpt>
      <trkpt lat="43.75619" lon="7.32411">
        <ele>142</ele>
        <time>2013-11-02T14:39:39Z</time>
      </trkpt>
      <trkpt lat="43.75604" lon="7.3242">
        <ele>148</ele>
        <time>2013-11-02T14:39:44Z</time>
      </trkpt>
      <trkpt lat="43.75592" lon="7.32435">
        <ele>148</ele>
        <time>2013-11-02T14:39:49Z</time>
      </trkpt>
      <trkpt lat="43.7559" lon="7.32454">
        <ele>151</ele>
        <time>2013-11-02T14:39:54Z</time>
      </trkpt>
      <trkpt lat="43.75588" lon="7.32473">
        <ele>153</ele>
        <time>2013-11-02T14:39:59Z</time>
      </trkpt>
      <trkpt lat="43.75568" lon="7.3249">
        <ele>146</ele>
        <time>2013-11-02T14:40:04Z</time>
      </trkpt>
      <trkpt lat="43.75557" lon="7.32488">
        <ele>145</ele>
        <time>2013-11-02T14:40:09Z</time>
      </trkpt>
      <trkpt lat="43.75549" lon="7.32483">
        <ele>144</ele>
        <time>2013-11-02T14:40:14Z</time>
      </trkpt>
      <trkpt lat="43.75541" lon="7.32475">
        <ele>143</ele>
        <time>2013-11-02T14:40:19Z</time>
      </trkpt>
      <trkpt lat="43.75533" lon="7.32458">
        <ele>141</ele>
        <time>2013-11-02T14:40:24Z</time>
      </trkpt>
      <trkpt lat="43.75522" lon="7.32442">
        <ele>139</ele>
        <time>2013-11-02T14:40:29Z</time>
      </trkpt>
      <trkpt lat="43.75519" lon="7.32425">
        <ele>136</ele>
        <time>2013-11-02T14:40:34Z</time>
      </trkpt>
      <trkpt lat="43.75517" lon="7.32398">
        <ele>127</ele>
        <time>2013-11-02T14:40:39Z</time>
      </trkpt>
      <trkpt lat="43.75519" lon="7.32382">
        <ele>126</ele>
        <time>2013-11-02T14:40:44Z</time>
      </trkpt>
      <trkpt lat="43.75514" lon="7.3237">
        <ele>124</ele>
        <time>2013-11-02T14:40:49Z</time>
      </trkpt>
      <trkpt lat="43.75501" lon="7.32361">
        <ele>122</ele>
        <time>2013-11-02T14:40:54Z</time>
      </trkpt>
      <trkpt lat="43.75504" lon="7.32352">
        <ele>120</ele>
        <time>2013-11-02T14:40:59Z</time>
      </trkpt>
      <trkpt lat="43.75509" lon="7.32338">
        <ele>117</ele>
        <time>2013-11-02T14:41:04Z</time>
      </trkpt>
      <trkpt lat="43.75519" lon="7.32327">
        <ele>114</ele>
        <time>2013-11-02T14:41:09Z</time>
      </trkpt>
      <trkpt lat="43.7554" lon="7.32309">
        <ele>114</ele>
        <time>2013-11-02T14:41:14Z</time>
      </trkpt>
      <trkpt lat="43.75543" lon="7.32262">
        <ele>111</ele>
        <time>2013-11-02T14:41:19Z</time>
      </trkpt>
      <trkpt lat="43.7555" lon="7.3223">
        <ele>104</ele>
        <time>2013-11-02T14:41:24Z</time>
      </trkpt>
      <trkpt lat="43.75578" lon="7.32232">
        <ele>105</ele>
        <time>2013-11-02T14:41:29Z</time>
      </trkpt>
      <trkpt lat="43.75612" lon="7.32228">
        <ele>106</ele>
        <time>2013-11-02T14:41:34Z</time>
      </trkpt>
      <trkpt lat="43.75648" lon="7.32209">
        <ele>105</ele>
        <time>2013-11-02T14:41:39Z</time>
      </trkpt>
      <trkpt lat="43.75681" lon="7.32184">
        <ele>106</ele>
        <time>2013-11-02T14:41:44Z</time>
      </trkpt>
      <trkpt lat="43.75677" lon="7.32129">
        <ele>98</ele>
        <time>2013-11-02T14:41:49Z</time>
      </trkpt>
      <trkpt lat="43.7567" lon="7.32076">
        <ele>93</ele>
        <time>2013-11-02T14:41:54Z</time>
      </trkpt>
      <trkpt lat="43.75669" lon="7.32062">
        <ele>93</ele>
        <time>2013-11-02T14:42:04Z</time>
      </trkpt>
      <trkpt lat="43.75661" lon="7.32055">
        <ele>92</ele>
        <time>2013-11-02T14:42:09Z</time>
      </trkpt>
      <trkpt lat="43.75641" lon="7.32053">
        <ele>92</ele>
        <time>2013-11-02T14:42:14Z</time>
      </trkpt>
      <trkpt lat="43.7562" lon="7.32051">
        <ele>92</ele>
        <time>2013-11-02T14:42:19Z</time>
      </trkpt>
      <trkpt lat="43.75596" lon="7.32048">
        <ele>91</ele>
        <time>2013-11-02T14:42:24Z</time>
      </trkpt>
      <trkpt lat="43.75571" lon="7.32047">
        <ele>92</ele>
        <time>2013-11-02T14:42:29Z</time>
      </trkpt>
      <trkpt lat="43.75548" lon="7.32043">
        <ele>92</ele>
        <time>2013-11-02T14:42:34Z</time>
      </trkpt>
      <trkpt lat="43.75525" lon="7.32039">
        <ele>92</ele>
        <time>2013-11-02T14:42:39Z</time>
      </trkpt>
      <trkpt lat="43.75504" lon="7.32032">
        <ele>92</ele>
        <time>2013-11-02T14:42:44Z</time>
      </trkpt>
      <trkpt lat="43.75485" lon="7.32017">
        <ele>92</ele>
        <time>2013-11-02T14:42:49Z</time>
      </trkpt>
      <trkpt lat="43.75473" lon="7.32002">
        <ele>92</ele>
        <time>2013-11-02T14:42:54Z</time>
      </trkpt>
      <trkpt lat="43.75453" lon="7.32004">
        <ele>92</ele>
        <time>2013-11-02T14:42:59Z</time>
      </trkpt>
      <trkpt lat="43.75432" lon="7.32008">
        <ele>91</ele>
        <time>2013-11-02T14:43:04Z</time>
      </trkpt>
      <trkpt lat="43.7542" lon="7.32014">
        <ele>91</ele>
        <time>2013-11-02T14:43:33Z</time>
      </trkpt>
      <trkpt lat="43.75415" lon="7.32013">
        <ele>90</ele>
        <time>2013-11-02T14:45:26Z</time>
      </trkpt>
      <trkpt lat="43.75417" lon="7.32015">
        <ele>91</ele>
        <time>2013-11-02T14:46:28Z</time>
      </trkpt>
    </trkseg>
  </trk>
</gpx>